<?xml version="1.0" encoding="UTF-8" standalone="no" ?>
<gpx xmlns="http://www.topografix.com/GPX/1/1" xmlns:xsi="http://www.w3.org/2001/XMLSchema-instance" xsi:schemaLocation="http://www.topografix.com/GPX/1/1 http://www.topografix.com/GPX/1/1/gpx.xsd" version="1.1" creator="VisuGPX - https://www.visugpx.com">
  <metadata>
    <name>Saint-Macaire_20km</name>
  </metadata>
  <trk>
    <name><![CDATA[20_Saint-Macaire_2021-05]]></name>
    <trkseg>
      <trkpt lat="44.56352" lon="-0.2247">
        <ele>9.00390625</ele>
        <time>2021-05-05T07:11:53Z</time>
      </trkpt>
      <trkpt lat="44.56363" lon="-0.22476">
        <ele>11.00390625</ele>
        <time>2021-05-05T07:12:02Z</time>
      </trkpt>
      <trkpt lat="44.56371" lon="-0.22482">
        <ele>12.58203125</ele>
        <time>2021-05-05T07:12:12Z</time>
      </trkpt>
      <trkpt lat="44.56372" lon="-0.22501">
        <ele>14.44921875</ele>
        <time>2021-05-05T07:12:21Z</time>
      </trkpt>
      <trkpt lat="44.56371" lon="-0.2252">
        <ele>16.046875</ele>
        <time>2021-05-05T07:12:31Z</time>
      </trkpt>
      <trkpt lat="44.56363" lon="-0.22544">
        <ele>16.74609375</ele>
        <time>2021-05-05T07:12:40Z</time>
      </trkpt>
      <trkpt lat="44.56355" lon="-0.22561">
        <ele>16.73046875</ele>
        <time>2021-05-05T07:12:48Z</time>
      </trkpt>
      <trkpt lat="44.56346" lon="-0.22578">
        <ele>16.97265625</ele>
        <time>2021-05-05T07:12:56Z</time>
      </trkpt>
      <trkpt lat="44.56336" lon="-0.22599">
        <ele>17.30859375</ele>
        <time>2021-05-05T07:13:05Z</time>
      </trkpt>
      <trkpt lat="44.56324" lon="-0.22624">
        <ele>16.40625</ele>
        <time>2021-05-05T07:13:13Z</time>
      </trkpt>
      <trkpt lat="44.56315" lon="-0.22642">
        <ele>15.546875</ele>
        <time>2021-05-05T07:13:23Z</time>
      </trkpt>
      <trkpt lat="44.56306" lon="-0.22659">
        <ele>14.46484375</ele>
        <time>2021-05-05T07:13:31Z</time>
      </trkpt>
      <trkpt lat="44.56297" lon="-0.22678">
        <ele>13.1328125</ele>
        <time>2021-05-05T07:13:39Z</time>
      </trkpt>
      <trkpt lat="44.5629" lon="-0.22695">
        <ele>12.4375</ele>
        <time>2021-05-05T07:13:47Z</time>
      </trkpt>
      <trkpt lat="44.56282" lon="-0.22719">
        <ele>11.8671875</ele>
        <time>2021-05-05T07:13:55Z</time>
      </trkpt>
      <trkpt lat="44.56273" lon="-0.22731">
        <ele>11.2265625</ele>
        <time>2021-05-05T07:14:03Z</time>
      </trkpt>
      <trkpt lat="44.56265" lon="-0.22742">
        <ele>10.65625</ele>
        <time>2021-05-05T07:14:14Z</time>
      </trkpt>
      <trkpt lat="44.56253" lon="-0.22748">
        <ele>9.625</ele>
        <time>2021-05-05T07:14:25Z</time>
      </trkpt>
      <trkpt lat="44.56242" lon="-0.22744">
        <ele>8.5390625</ele>
        <time>2021-05-05T07:14:35Z</time>
      </trkpt>
      <trkpt lat="44.56241" lon="-0.22753">
        <ele>8.6796875</ele>
        <time>2021-05-05T07:14:44Z</time>
      </trkpt>
      <trkpt lat="44.56236" lon="-0.22781">
        <ele>8.98828125</ele>
        <time>2021-05-05T07:14:51Z</time>
      </trkpt>
      <trkpt lat="44.56232" lon="-0.22808">
        <ele>9.0625</ele>
        <time>2021-05-05T07:14:59Z</time>
      </trkpt>
      <trkpt lat="44.56231" lon="-0.22839">
        <ele>9.8203125</ele>
        <time>2021-05-05T07:15:07Z</time>
      </trkpt>
      <trkpt lat="44.56229" lon="-0.22865">
        <ele>10.640625</ele>
        <time>2021-05-05T07:15:15Z</time>
      </trkpt>
      <trkpt lat="44.56226" lon="-0.22897">
        <ele>11.13671875</ele>
        <time>2021-05-05T07:15:23Z</time>
      </trkpt>
      <trkpt lat="44.56223" lon="-0.22918">
        <ele>11.26953125</ele>
        <time>2021-05-05T07:15:31Z</time>
      </trkpt>
      <trkpt lat="44.5622" lon="-0.22942">
        <ele>11.3828125</ele>
        <time>2021-05-05T07:15:39Z</time>
      </trkpt>
      <trkpt lat="44.56217" lon="-0.22957">
        <ele>11.37109375</ele>
        <time>2021-05-05T07:15:51Z</time>
      </trkpt>
      <trkpt lat="44.56213" lon="-0.22968">
        <ele>11.1875</ele>
        <time>2021-05-05T07:16:15Z</time>
      </trkpt>
      <trkpt lat="44.56209" lon="-0.22983">
        <ele>11.15234375</ele>
        <time>2021-05-05T07:16:24Z</time>
      </trkpt>
      <trkpt lat="44.56206" lon="-0.22998">
        <ele>11.03515625</ele>
        <time>2021-05-05T07:16:32Z</time>
      </trkpt>
      <trkpt lat="44.56205" lon="-0.23011">
        <ele>10.98046875</ele>
        <time>2021-05-05T07:16:41Z</time>
      </trkpt>
      <trkpt lat="44.56202" lon="-0.23027">
        <ele>10.91796875</ele>
        <time>2021-05-05T07:16:51Z</time>
      </trkpt>
      <trkpt lat="44.562" lon="-0.23041">
        <ele>10.88671875</ele>
        <time>2021-05-05T07:17:00Z</time>
      </trkpt>
      <trkpt lat="44.56197" lon="-0.23057">
        <ele>10.8203125</ele>
        <time>2021-05-05T07:17:08Z</time>
      </trkpt>
      <trkpt lat="44.56195" lon="-0.23072">
        <ele>10.859375</ele>
        <time>2021-05-05T07:17:16Z</time>
      </trkpt>
      <trkpt lat="44.56191" lon="-0.23088">
        <ele>10.84375</ele>
        <time>2021-05-05T07:17:24Z</time>
      </trkpt>
      <trkpt lat="44.56189" lon="-0.23103">
        <ele>10.7734375</ele>
        <time>2021-05-05T07:17:32Z</time>
      </trkpt>
      <trkpt lat="44.56187" lon="-0.23118">
        <ele>10.64453125</ele>
        <time>2021-05-05T07:17:41Z</time>
      </trkpt>
      <trkpt lat="44.56185" lon="-0.23133">
        <ele>10.4609375</ele>
        <time>2021-05-05T07:17:51Z</time>
      </trkpt>
      <trkpt lat="44.56181" lon="-0.23151">
        <ele>10.265625</ele>
        <time>2021-05-05T07:18:00Z</time>
      </trkpt>
      <trkpt lat="44.56179" lon="-0.23164">
        <ele>10.17578125</ele>
        <time>2021-05-05T07:18:08Z</time>
      </trkpt>
      <trkpt lat="44.56179" lon="-0.23179">
        <ele>10.1875</ele>
        <time>2021-05-05T07:18:18Z</time>
      </trkpt>
      <trkpt lat="44.56176" lon="-0.23195">
        <ele>10.078125</ele>
        <time>2021-05-05T07:18:35Z</time>
      </trkpt>
      <trkpt lat="44.56176" lon="-0.23211">
        <ele>10.09375</ele>
        <time>2021-05-05T07:18:44Z</time>
      </trkpt>
      <trkpt lat="44.56173" lon="-0.23223">
        <ele>9.9921875</ele>
        <time>2021-05-05T07:18:54Z</time>
      </trkpt>
      <trkpt lat="44.5617" lon="-0.23239">
        <ele>9.94140625</ele>
        <time>2021-05-05T07:19:03Z</time>
      </trkpt>
      <trkpt lat="44.56168" lon="-0.23254">
        <ele>9.8984375</ele>
        <time>2021-05-05T07:19:13Z</time>
      </trkpt>
      <trkpt lat="44.56165" lon="-0.2327">
        <ele>9.81640625</ele>
        <time>2021-05-05T07:19:22Z</time>
      </trkpt>
      <trkpt lat="44.5616" lon="-0.23286">
        <ele>9.64453125</ele>
        <time>2021-05-05T07:19:31Z</time>
      </trkpt>
      <trkpt lat="44.56157" lon="-0.23303">
        <ele>9.47265625</ele>
        <time>2021-05-05T07:19:40Z</time>
      </trkpt>
      <trkpt lat="44.56153" lon="-0.23316">
        <ele>9.26171875</ele>
        <time>2021-05-05T07:19:47Z</time>
      </trkpt>
      <trkpt lat="44.56147" lon="-0.23333">
        <ele>8.89453125</ele>
        <time>2021-05-05T07:19:56Z</time>
      </trkpt>
      <trkpt lat="44.56141" lon="-0.23346">
        <ele>8.6328125</ele>
        <time>2021-05-05T07:20:04Z</time>
      </trkpt>
      <trkpt lat="44.56136" lon="-0.23362">
        <ele>8.3984375</ele>
        <time>2021-05-05T07:20:13Z</time>
      </trkpt>
      <trkpt lat="44.56131" lon="-0.23375">
        <ele>8.22265625</ele>
        <time>2021-05-05T07:20:21Z</time>
      </trkpt>
      <trkpt lat="44.56128" lon="-0.2339">
        <ele>7.94140625</ele>
        <time>2021-05-05T07:20:29Z</time>
      </trkpt>
      <trkpt lat="44.56122" lon="-0.23403">
        <ele>7.59765625</ele>
        <time>2021-05-05T07:20:37Z</time>
      </trkpt>
      <trkpt lat="44.56118" lon="-0.23418">
        <ele>7.21875</ele>
        <time>2021-05-05T07:20:45Z</time>
      </trkpt>
      <trkpt lat="44.56114" lon="-0.23431">
        <ele>7</ele>
        <time>2021-05-05T07:20:53Z</time>
      </trkpt>
      <trkpt lat="44.5611" lon="-0.23447">
        <ele>6.95703125</ele>
        <time>2021-05-05T07:21:01Z</time>
      </trkpt>
      <trkpt lat="44.56105" lon="-0.2346">
        <ele>6.875</ele>
        <time>2021-05-05T07:21:09Z</time>
      </trkpt>
      <trkpt lat="44.56101" lon="-0.23474">
        <ele>6.7578125</ele>
        <time>2021-05-05T07:21:18Z</time>
      </trkpt>
      <trkpt lat="44.56096" lon="-0.23485">
        <ele>6.6015625</ele>
        <time>2021-05-05T07:21:25Z</time>
      </trkpt>
      <trkpt lat="44.5609" lon="-0.23499">
        <ele>6.49609375</ele>
        <time>2021-05-05T07:21:34Z</time>
      </trkpt>
      <trkpt lat="44.56085" lon="-0.23513">
        <ele>6.3984375</ele>
        <time>2021-05-05T07:21:42Z</time>
      </trkpt>
      <trkpt lat="44.5608" lon="-0.23525">
        <ele>6.3203125</ele>
        <time>2021-05-05T07:21:49Z</time>
      </trkpt>
      <trkpt lat="44.56074" lon="-0.23538">
        <ele>6.203125</ele>
        <time>2021-05-05T07:21:58Z</time>
      </trkpt>
      <trkpt lat="44.56069" lon="-0.23552">
        <ele>5.9296875</ele>
        <time>2021-05-05T07:22:07Z</time>
      </trkpt>
      <trkpt lat="44.56065" lon="-0.23566">
        <ele>5.609375</ele>
        <time>2021-05-05T07:22:15Z</time>
      </trkpt>
      <trkpt lat="44.56062" lon="-0.23579">
        <ele>5.3359375</ele>
        <time>2021-05-05T07:22:24Z</time>
      </trkpt>
      <trkpt lat="44.56057" lon="-0.23591">
        <ele>5.20703125</ele>
        <time>2021-05-05T07:22:31Z</time>
      </trkpt>
      <trkpt lat="44.56052" lon="-0.23603">
        <ele>5.28515625</ele>
        <time>2021-05-05T07:22:39Z</time>
      </trkpt>
      <trkpt lat="44.56045" lon="-0.23616">
        <ele>5.54296875</ele>
        <time>2021-05-05T07:22:47Z</time>
      </trkpt>
      <trkpt lat="44.56038" lon="-0.23625">
        <ele>5.7265625</ele>
        <time>2021-05-05T07:22:58Z</time>
      </trkpt>
      <trkpt lat="44.56027" lon="-0.23634">
        <ele>5.8828125</ele>
        <time>2021-05-05T07:23:09Z</time>
      </trkpt>
      <trkpt lat="44.56017" lon="-0.23644">
        <ele>5.97265625</ele>
        <time>2021-05-05T07:23:19Z</time>
      </trkpt>
      <trkpt lat="44.5601" lon="-0.23659">
        <ele>6</ele>
        <time>2021-05-05T07:23:27Z</time>
      </trkpt>
      <trkpt lat="44.56005" lon="-0.23672">
        <ele>6</ele>
        <time>2021-05-05T07:23:35Z</time>
      </trkpt>
      <trkpt lat="44.55999" lon="-0.23685">
        <ele>6</ele>
        <time>2021-05-05T07:23:43Z</time>
      </trkpt>
      <trkpt lat="44.55993" lon="-0.23698">
        <ele>6</ele>
        <time>2021-05-05T07:23:52Z</time>
      </trkpt>
      <trkpt lat="44.55987" lon="-0.23713">
        <ele>6.0546875</ele>
        <time>2021-05-05T07:24:00Z</time>
      </trkpt>
      <trkpt lat="44.55982" lon="-0.23729">
        <ele>6.20703125</ele>
        <time>2021-05-05T07:24:09Z</time>
      </trkpt>
      <trkpt lat="44.55976" lon="-0.2374">
        <ele>6.25390625</ele>
        <time>2021-05-05T07:24:17Z</time>
      </trkpt>
      <trkpt lat="44.55971" lon="-0.23754">
        <ele>6.29296875</ele>
        <time>2021-05-05T07:24:26Z</time>
      </trkpt>
      <trkpt lat="44.55966" lon="-0.23767">
        <ele>6.265625</ele>
        <time>2021-05-05T07:24:35Z</time>
      </trkpt>
      <trkpt lat="44.55963" lon="-0.23783">
        <ele>6.203125</ele>
        <time>2021-05-05T07:24:44Z</time>
      </trkpt>
      <trkpt lat="44.5596" lon="-0.23797">
        <ele>6.1484375</ele>
        <time>2021-05-05T07:24:53Z</time>
      </trkpt>
      <trkpt lat="44.55957" lon="-0.23813">
        <ele>6.1015625</ele>
        <time>2021-05-05T07:25:02Z</time>
      </trkpt>
      <trkpt lat="44.55954" lon="-0.23827">
        <ele>6.04296875</ele>
        <time>2021-05-05T07:25:11Z</time>
      </trkpt>
      <trkpt lat="44.55952" lon="-0.23845">
        <ele>6.0078125</ele>
        <time>2021-05-05T07:25:22Z</time>
      </trkpt>
      <trkpt lat="44.55948" lon="-0.23863">
        <ele>5.94140625</ele>
        <time>2021-05-05T07:25:30Z</time>
      </trkpt>
      <trkpt lat="44.55945" lon="-0.2388">
        <ele>5.87890625</ele>
        <time>2021-05-05T07:25:39Z</time>
      </trkpt>
      <trkpt lat="44.55943" lon="-0.23895">
        <ele>5.84375</ele>
        <time>2021-05-05T07:25:47Z</time>
      </trkpt>
      <trkpt lat="44.55941" lon="-0.23908">
        <ele>5.80078125</ele>
        <time>2021-05-05T07:25:54Z</time>
      </trkpt>
      <trkpt lat="44.55939" lon="-0.23922">
        <ele>5.765625</ele>
        <time>2021-05-05T07:26:02Z</time>
      </trkpt>
      <trkpt lat="44.55937" lon="-0.23936">
        <ele>5.734375</ele>
        <time>2021-05-05T07:26:09Z</time>
      </trkpt>
      <trkpt lat="44.55933" lon="-0.2395">
        <ele>5.66796875</ele>
        <time>2021-05-05T07:26:16Z</time>
      </trkpt>
      <trkpt lat="44.55931" lon="-0.23965">
        <ele>5.625</ele>
        <time>2021-05-05T07:26:25Z</time>
      </trkpt>
      <trkpt lat="44.5593" lon="-0.23978">
        <ele>5.6015625</ele>
        <time>2021-05-05T07:26:32Z</time>
      </trkpt>
      <trkpt lat="44.55927" lon="-0.23992">
        <ele>5.5625</ele>
        <time>2021-05-05T07:26:39Z</time>
      </trkpt>
      <trkpt lat="44.55926" lon="-0.24005">
        <ele>5.53515625</ele>
        <time>2021-05-05T07:26:47Z</time>
      </trkpt>
      <trkpt lat="44.55923" lon="-0.24018">
        <ele>5.4921875</ele>
        <time>2021-05-05T07:26:56Z</time>
      </trkpt>
      <trkpt lat="44.55923" lon="-0.24033">
        <ele>5.4765625</ele>
        <time>2021-05-05T07:27:05Z</time>
      </trkpt>
      <trkpt lat="44.55921" lon="-0.24047">
        <ele>5.5</ele>
        <time>2021-05-05T07:27:13Z</time>
      </trkpt>
      <trkpt lat="44.55916" lon="-0.2406">
        <ele>5.578125</ele>
        <time>2021-05-05T07:27:22Z</time>
      </trkpt>
      <trkpt lat="44.55912" lon="-0.24076">
        <ele>5.734375</ele>
        <time>2021-05-05T07:27:31Z</time>
      </trkpt>
      <trkpt lat="44.55907" lon="-0.24093">
        <ele>5.9453125</ele>
        <time>2021-05-05T07:27:38Z</time>
      </trkpt>
      <trkpt lat="44.55904" lon="-0.24106">
        <ele>6</ele>
        <time>2021-05-05T07:27:45Z</time>
      </trkpt>
      <trkpt lat="44.559" lon="-0.24118">
        <ele>6</ele>
        <time>2021-05-05T07:27:52Z</time>
      </trkpt>
      <trkpt lat="44.55898" lon="-0.24131">
        <ele>6</ele>
        <time>2021-05-05T07:28:00Z</time>
      </trkpt>
      <trkpt lat="44.55896" lon="-0.24146">
        <ele>5.9921875</ele>
        <time>2021-05-05T07:28:08Z</time>
      </trkpt>
      <trkpt lat="44.55894" lon="-0.2416">
        <ele>5.95703125</ele>
        <time>2021-05-05T07:28:16Z</time>
      </trkpt>
      <trkpt lat="44.5589" lon="-0.24173">
        <ele>5.890625</ele>
        <time>2021-05-05T07:28:24Z</time>
      </trkpt>
      <trkpt lat="44.55887" lon="-0.24188">
        <ele>5.8359375</ele>
        <time>2021-05-05T07:28:31Z</time>
      </trkpt>
      <trkpt lat="44.55886" lon="-0.24202">
        <ele>5.82421875</ele>
        <time>2021-05-05T07:28:38Z</time>
      </trkpt>
      <trkpt lat="44.55884" lon="-0.24217">
        <ele>5.77734375</ele>
        <time>2021-05-05T07:28:46Z</time>
      </trkpt>
      <trkpt lat="44.5588" lon="-0.2423">
        <ele>5.70703125</ele>
        <time>2021-05-05T07:28:53Z</time>
      </trkpt>
      <trkpt lat="44.55878" lon="-0.24244">
        <ele>5.6796875</ele>
        <time>2021-05-05T07:29:01Z</time>
      </trkpt>
      <trkpt lat="44.55877" lon="-0.24257">
        <ele>5.6640625</ele>
        <time>2021-05-05T07:29:08Z</time>
      </trkpt>
      <trkpt lat="44.55875" lon="-0.24273">
        <ele>5.61328125</ele>
        <time>2021-05-05T07:29:16Z</time>
      </trkpt>
      <trkpt lat="44.55872" lon="-0.24286">
        <ele>5.5703125</ele>
        <time>2021-05-05T07:29:23Z</time>
      </trkpt>
      <trkpt lat="44.55871" lon="-0.24299">
        <ele>5.55078125</ele>
        <time>2021-05-05T07:29:30Z</time>
      </trkpt>
      <trkpt lat="44.55869" lon="-0.24313">
        <ele>5.51171875</ele>
        <time>2021-05-05T07:29:37Z</time>
      </trkpt>
      <trkpt lat="44.55866" lon="-0.24326">
        <ele>5.4609375</ele>
        <time>2021-05-05T07:29:44Z</time>
      </trkpt>
      <trkpt lat="44.55865" lon="-0.24341">
        <ele>5.4453125</ele>
        <time>2021-05-05T07:29:53Z</time>
      </trkpt>
      <trkpt lat="44.55865" lon="-0.24355">
        <ele>5.4453125</ele>
        <time>2021-05-05T07:30:01Z</time>
      </trkpt>
      <trkpt lat="44.55861" lon="-0.24367">
        <ele>5.3671875</ele>
        <time>2021-05-05T07:30:09Z</time>
      </trkpt>
      <trkpt lat="44.55859" lon="-0.2438">
        <ele>5.33203125</ele>
        <time>2021-05-05T07:30:20Z</time>
      </trkpt>
      <trkpt lat="44.55856" lon="-0.24394">
        <ele>5.28515625</ele>
        <time>2021-05-05T07:30:28Z</time>
      </trkpt>
      <trkpt lat="44.55855" lon="-0.24408">
        <ele>5.265625</ele>
        <time>2021-05-05T07:30:35Z</time>
      </trkpt>
      <trkpt lat="44.55855" lon="-0.24423">
        <ele>5.2578125</ele>
        <time>2021-05-05T07:30:43Z</time>
      </trkpt>
      <trkpt lat="44.55854" lon="-0.24437">
        <ele>5.23046875</ele>
        <time>2021-05-05T07:30:51Z</time>
      </trkpt>
      <trkpt lat="44.55852" lon="-0.24451">
        <ele>5.20703125</ele>
        <time>2021-05-05T07:30:58Z</time>
      </trkpt>
      <trkpt lat="44.55851" lon="-0.24465">
        <ele>5.1875</ele>
        <time>2021-05-05T07:31:06Z</time>
      </trkpt>
      <trkpt lat="44.5585" lon="-0.24479">
        <ele>5.1640625</ele>
        <time>2021-05-05T07:31:13Z</time>
      </trkpt>
      <trkpt lat="44.55849" lon="-0.24493">
        <ele>5.14453125</ele>
        <time>2021-05-05T07:31:21Z</time>
      </trkpt>
      <trkpt lat="44.55848" lon="-0.24508">
        <ele>5.12890625</ele>
        <time>2021-05-05T07:31:30Z</time>
      </trkpt>
      <trkpt lat="44.55847" lon="-0.24523">
        <ele>5.1171875</ele>
        <time>2021-05-05T07:31:38Z</time>
      </trkpt>
      <trkpt lat="44.55845" lon="-0.24535">
        <ele>5.0859375</ele>
        <time>2021-05-05T07:31:47Z</time>
      </trkpt>
      <trkpt lat="44.55846" lon="-0.24546">
        <ele>5.09765625</ele>
        <time>2021-05-05T07:32:05Z</time>
      </trkpt>
      <trkpt lat="44.55844" lon="-0.24559">
        <ele>5.0625</ele>
        <time>2021-05-05T07:32:13Z</time>
      </trkpt>
      <trkpt lat="44.55843" lon="-0.24573">
        <ele>5.05078125</ele>
        <time>2021-05-05T07:32:21Z</time>
      </trkpt>
      <trkpt lat="44.55843" lon="-0.24587">
        <ele>5.04296875</ele>
        <time>2021-05-05T07:32:29Z</time>
      </trkpt>
      <trkpt lat="44.55842" lon="-0.246">
        <ele>5.02734375</ele>
        <time>2021-05-05T07:32:36Z</time>
      </trkpt>
      <trkpt lat="44.55841" lon="-0.24614">
        <ele>5.015625</ele>
        <time>2021-05-05T07:32:44Z</time>
      </trkpt>
      <trkpt lat="44.55842" lon="-0.24629">
        <ele>5.04296875</ele>
        <time>2021-05-05T07:32:53Z</time>
      </trkpt>
      <trkpt lat="44.55842" lon="-0.24642">
        <ele>5.05078125</ele>
        <time>2021-05-05T07:33:00Z</time>
      </trkpt>
      <trkpt lat="44.55842" lon="-0.24656">
        <ele>5.0546875</ele>
        <time>2021-05-05T07:33:08Z</time>
      </trkpt>
      <trkpt lat="44.55843" lon="-0.24669">
        <ele>5.0703125</ele>
        <time>2021-05-05T07:33:16Z</time>
      </trkpt>
      <trkpt lat="44.55842" lon="-0.24683">
        <ele>5.03515625</ele>
        <time>2021-05-05T07:33:23Z</time>
      </trkpt>
      <trkpt lat="44.55841" lon="-0.24697">
        <ele>5.015625</ele>
        <time>2021-05-05T07:33:32Z</time>
      </trkpt>
      <trkpt lat="44.55842" lon="-0.24712">
        <ele>5.0625</ele>
        <time>2021-05-05T07:33:41Z</time>
      </trkpt>
      <trkpt lat="44.55844" lon="-0.24729">
        <ele>5.109375</ele>
        <time>2021-05-05T07:33:50Z</time>
      </trkpt>
      <trkpt lat="44.55845" lon="-0.24743">
        <ele>5.15625</ele>
        <time>2021-05-05T07:34:00Z</time>
      </trkpt>
      <trkpt lat="44.55847" lon="-0.24761">
        <ele>5.21875</ele>
        <time>2021-05-05T07:34:10Z</time>
      </trkpt>
      <trkpt lat="44.55853" lon="-0.24777">
        <ele>5.4296875</ele>
        <time>2021-05-05T07:34:23Z</time>
      </trkpt>
      <trkpt lat="44.55855" lon="-0.24794">
        <ele>5.51171875</ele>
        <time>2021-05-05T07:34:38Z</time>
      </trkpt>
      <trkpt lat="44.55859" lon="-0.24808">
        <ele>5.64453125</ele>
        <time>2021-05-05T07:34:47Z</time>
      </trkpt>
      <trkpt lat="44.55862" lon="-0.2482">
        <ele>5.77734375</ele>
        <time>2021-05-05T07:34:57Z</time>
      </trkpt>
      <trkpt lat="44.55866" lon="-0.24833">
        <ele>5.90234375</ele>
        <time>2021-05-05T07:35:06Z</time>
      </trkpt>
      <trkpt lat="44.55873" lon="-0.24844">
        <ele>6.1640625</ele>
        <time>2021-05-05T07:35:16Z</time>
      </trkpt>
      <trkpt lat="44.55881" lon="-0.24857">
        <ele>6.4609375</ele>
        <time>2021-05-05T07:35:25Z</time>
      </trkpt>
      <trkpt lat="44.55888" lon="-0.24866">
        <ele>6.6953125</ele>
        <time>2021-05-05T07:35:32Z</time>
      </trkpt>
      <trkpt lat="44.55893" lon="-0.24877">
        <ele>6.8046875</ele>
        <time>2021-05-05T07:35:40Z</time>
      </trkpt>
      <trkpt lat="44.55901" lon="-0.24894">
        <ele>6.8046875</ele>
        <time>2021-05-05T07:35:53Z</time>
      </trkpt>
      <trkpt lat="44.55907" lon="-0.24909">
        <ele>6.75390625</ele>
        <time>2021-05-05T07:36:02Z</time>
      </trkpt>
      <trkpt lat="44.55915" lon="-0.24924">
        <ele>6.76171875</ele>
        <time>2021-05-05T07:36:11Z</time>
      </trkpt>
      <trkpt lat="44.55921" lon="-0.24938">
        <ele>6.75</ele>
        <time>2021-05-05T07:36:20Z</time>
      </trkpt>
      <trkpt lat="44.55927" lon="-0.24951">
        <ele>6.734375</ele>
        <time>2021-05-05T07:36:28Z</time>
      </trkpt>
      <trkpt lat="44.55935" lon="-0.24961">
        <ele>6.82421875</ele>
        <time>2021-05-05T07:36:36Z</time>
      </trkpt>
      <trkpt lat="44.55942" lon="-0.24971">
        <ele>6.90625</ele>
        <time>2021-05-05T07:36:44Z</time>
      </trkpt>
      <trkpt lat="44.55948" lon="-0.24983">
        <ele>6.9140625</ele>
        <time>2021-05-05T07:36:51Z</time>
      </trkpt>
      <trkpt lat="44.55952" lon="-0.24996">
        <ele>6.81640625</ele>
        <time>2021-05-05T07:37:00Z</time>
      </trkpt>
      <trkpt lat="44.55957" lon="-0.25009">
        <ele>6.69921875</ele>
        <time>2021-05-05T07:37:07Z</time>
      </trkpt>
      <trkpt lat="44.55964" lon="-0.25022">
        <ele>6.71484375</ele>
        <time>2021-05-05T07:37:15Z</time>
      </trkpt>
      <trkpt lat="44.55969" lon="-0.25032">
        <ele>6.72265625</ele>
        <time>2021-05-05T07:37:22Z</time>
      </trkpt>
      <trkpt lat="44.55972" lon="-0.25044">
        <ele>6.62890625</ele>
        <time>2021-05-05T07:37:30Z</time>
      </trkpt>
      <trkpt lat="44.55978" lon="-0.25056">
        <ele>6.53125</ele>
        <time>2021-05-05T07:37:38Z</time>
      </trkpt>
      <trkpt lat="44.55983" lon="-0.25069">
        <ele>6.33984375</ele>
        <time>2021-05-05T07:37:47Z</time>
      </trkpt>
      <trkpt lat="44.5599" lon="-0.25087">
        <ele>5.95703125</ele>
        <time>2021-05-05T07:37:57Z</time>
      </trkpt>
      <trkpt lat="44.55997" lon="-0.25102">
        <ele>5.8046875</ele>
        <time>2021-05-05T07:38:06Z</time>
      </trkpt>
      <trkpt lat="44.56005" lon="-0.25114">
        <ele>5.9375</ele>
        <time>2021-05-05T07:38:15Z</time>
      </trkpt>
      <trkpt lat="44.56013" lon="-0.25126">
        <ele>6.1015625</ele>
        <time>2021-05-05T07:38:23Z</time>
      </trkpt>
      <trkpt lat="44.56023" lon="-0.25136">
        <ele>6.27734375</ele>
        <time>2021-05-05T07:38:33Z</time>
      </trkpt>
      <trkpt lat="44.56032" lon="-0.25148">
        <ele>6.4375</ele>
        <time>2021-05-05T07:38:42Z</time>
      </trkpt>
      <trkpt lat="44.56041" lon="-0.25159">
        <ele>6.484375</ele>
        <time>2021-05-05T07:38:51Z</time>
      </trkpt>
      <trkpt lat="44.5605" lon="-0.25168">
        <ele>6.46484375</ele>
        <time>2021-05-05T07:39:00Z</time>
      </trkpt>
      <trkpt lat="44.56058" lon="-0.25179">
        <ele>6.4140625</ele>
        <time>2021-05-05T07:39:08Z</time>
      </trkpt>
      <trkpt lat="44.56066" lon="-0.25191">
        <ele>6.29296875</ele>
        <time>2021-05-05T07:39:15Z</time>
      </trkpt>
      <trkpt lat="44.56074" lon="-0.25202">
        <ele>6.09375</ele>
        <time>2021-05-05T07:39:23Z</time>
      </trkpt>
      <trkpt lat="44.56081" lon="-0.25211">
        <ele>5.94921875</ele>
        <time>2021-05-05T07:39:30Z</time>
      </trkpt>
      <trkpt lat="44.56089" lon="-0.2522">
        <ele>5.87109375</ele>
        <time>2021-05-05T07:39:39Z</time>
      </trkpt>
      <trkpt lat="44.56095" lon="-0.2523">
        <ele>5.828125</ele>
        <time>2021-05-05T07:39:47Z</time>
      </trkpt>
      <trkpt lat="44.56103" lon="-0.25241">
        <ele>5.828125</ele>
        <time>2021-05-05T07:39:55Z</time>
      </trkpt>
      <trkpt lat="44.56111" lon="-0.25251">
        <ele>5.890625</ele>
        <time>2021-05-05T07:40:02Z</time>
      </trkpt>
      <trkpt lat="44.56119" lon="-0.25258">
        <ele>6</ele>
        <time>2021-05-05T07:40:09Z</time>
      </trkpt>
      <trkpt lat="44.56126" lon="-0.25266">
        <ele>5.9375</ele>
        <time>2021-05-05T07:40:17Z</time>
      </trkpt>
      <trkpt lat="44.56133" lon="-0.25277">
        <ele>5.80859375</ele>
        <time>2021-05-05T07:40:24Z</time>
      </trkpt>
      <trkpt lat="44.56141" lon="-0.25285">
        <ele>5.7578125</ele>
        <time>2021-05-05T07:40:31Z</time>
      </trkpt>
      <trkpt lat="44.56147" lon="-0.25295">
        <ele>5.72265625</ele>
        <time>2021-05-05T07:40:38Z</time>
      </trkpt>
      <trkpt lat="44.56154" lon="-0.25304">
        <ele>5.7265625</ele>
        <time>2021-05-05T07:40:45Z</time>
      </trkpt>
      <trkpt lat="44.5616" lon="-0.25314">
        <ele>5.7734375</ele>
        <time>2021-05-05T07:40:53Z</time>
      </trkpt>
      <trkpt lat="44.56167" lon="-0.25324">
        <ele>5.76953125</ele>
        <time>2021-05-05T07:41:01Z</time>
      </trkpt>
      <trkpt lat="44.56174" lon="-0.25335">
        <ele>5.6875</ele>
        <time>2021-05-05T07:41:09Z</time>
      </trkpt>
      <trkpt lat="44.56184" lon="-0.25347">
        <ele>5.57421875</ele>
        <time>2021-05-05T07:41:18Z</time>
      </trkpt>
      <trkpt lat="44.56191" lon="-0.25356">
        <ele>5.51953125</ele>
        <time>2021-05-05T07:41:26Z</time>
      </trkpt>
      <trkpt lat="44.56199" lon="-0.25367">
        <ele>5.515625</ele>
        <time>2021-05-05T07:41:35Z</time>
      </trkpt>
      <trkpt lat="44.56208" lon="-0.25376">
        <ele>5.609375</ele>
        <time>2021-05-05T07:41:44Z</time>
      </trkpt>
      <trkpt lat="44.56217" lon="-0.25383">
        <ele>5.76953125</ele>
        <time>2021-05-05T07:41:51Z</time>
      </trkpt>
      <trkpt lat="44.56226" lon="-0.2539">
        <ele>5.9375</ele>
        <time>2021-05-05T07:41:58Z</time>
      </trkpt>
      <trkpt lat="44.56234" lon="-0.25398">
        <ele>6</ele>
        <time>2021-05-05T07:42:05Z</time>
      </trkpt>
      <trkpt lat="44.56243" lon="-0.25405">
        <ele>6</ele>
        <time>2021-05-05T07:42:14Z</time>
      </trkpt>
      <trkpt lat="44.56253" lon="-0.25415">
        <ele>6</ele>
        <time>2021-05-05T07:42:23Z</time>
      </trkpt>
      <trkpt lat="44.56263" lon="-0.25424">
        <ele>6</ele>
        <time>2021-05-05T07:42:31Z</time>
      </trkpt>
      <trkpt lat="44.5627" lon="-0.25436">
        <ele>5.875</ele>
        <time>2021-05-05T07:42:40Z</time>
      </trkpt>
      <trkpt lat="44.56278" lon="-0.25446">
        <ele>5.69921875</ele>
        <time>2021-05-05T07:42:49Z</time>
      </trkpt>
      <trkpt lat="44.56287" lon="-0.25457">
        <ele>5.53515625</ele>
        <time>2021-05-05T07:42:58Z</time>
      </trkpt>
      <trkpt lat="44.56294" lon="-0.25468">
        <ele>5.4609375</ele>
        <time>2021-05-05T07:43:14Z</time>
      </trkpt>
      <trkpt lat="44.56303" lon="-0.25473">
        <ele>5.53515625</ele>
        <time>2021-05-05T07:43:24Z</time>
      </trkpt>
      <trkpt lat="44.56314" lon="-0.25478">
        <ele>5.6328125</ele>
        <time>2021-05-05T07:43:35Z</time>
      </trkpt>
      <trkpt lat="44.56324" lon="-0.25484">
        <ele>5.7265625</ele>
        <time>2021-05-05T07:43:43Z</time>
      </trkpt>
      <trkpt lat="44.56332" lon="-0.25489">
        <ele>5.7578125</ele>
        <time>2021-05-05T07:43:51Z</time>
      </trkpt>
      <trkpt lat="44.56339" lon="-0.25499">
        <ele>5.69921875</ele>
        <time>2021-05-05T07:43:59Z</time>
      </trkpt>
      <trkpt lat="44.56347" lon="-0.25508">
        <ele>5.703125</ele>
        <time>2021-05-05T07:44:07Z</time>
      </trkpt>
      <trkpt lat="44.56355" lon="-0.25517">
        <ele>5.6796875</ele>
        <time>2021-05-05T07:44:14Z</time>
      </trkpt>
      <trkpt lat="44.56364" lon="-0.25528">
        <ele>5.640625</ele>
        <time>2021-05-05T07:44:22Z</time>
      </trkpt>
      <trkpt lat="44.56371" lon="-0.25536">
        <ele>5.609375</ele>
        <time>2021-05-05T07:44:30Z</time>
      </trkpt>
      <trkpt lat="44.56378" lon="-0.25542">
        <ele>5.671875</ele>
        <time>2021-05-05T07:44:41Z</time>
      </trkpt>
      <trkpt lat="44.56386" lon="-0.2555">
        <ele>5.82421875</ele>
        <time>2021-05-05T07:44:49Z</time>
      </trkpt>
      <trkpt lat="44.56394" lon="-0.25558">
        <ele>5.96484375</ele>
        <time>2021-05-05T07:44:58Z</time>
      </trkpt>
      <trkpt lat="44.56403" lon="-0.25565">
        <ele>6.0703125</ele>
        <time>2021-05-05T07:45:06Z</time>
      </trkpt>
      <trkpt lat="44.5641" lon="-0.25575">
        <ele>6.09375</ele>
        <time>2021-05-05T07:45:14Z</time>
      </trkpt>
      <trkpt lat="44.56418" lon="-0.25586">
        <ele>6.06640625</ele>
        <time>2021-05-05T07:45:22Z</time>
      </trkpt>
      <trkpt lat="44.56427" lon="-0.25597">
        <ele>5.97265625</ele>
        <time>2021-05-05T07:45:32Z</time>
      </trkpt>
      <trkpt lat="44.56437" lon="-0.25606">
        <ele>5.80859375</ele>
        <time>2021-05-05T07:45:39Z</time>
      </trkpt>
      <trkpt lat="44.56445" lon="-0.25616">
        <ele>5.640625</ele>
        <time>2021-05-05T07:45:47Z</time>
      </trkpt>
      <trkpt lat="44.56455" lon="-0.25625">
        <ele>5.51953125</ele>
        <time>2021-05-05T07:45:55Z</time>
      </trkpt>
      <trkpt lat="44.56463" lon="-0.25633">
        <ele>5.53515625</ele>
        <time>2021-05-05T07:46:04Z</time>
      </trkpt>
      <trkpt lat="44.56469" lon="-0.25642">
        <ele>5.4765625</ele>
        <time>2021-05-05T07:46:12Z</time>
      </trkpt>
      <trkpt lat="44.56477" lon="-0.2565">
        <ele>5.47265625</ele>
        <time>2021-05-05T07:46:20Z</time>
      </trkpt>
      <trkpt lat="44.56485" lon="-0.25659">
        <ele>5.61328125</ele>
        <time>2021-05-05T07:46:28Z</time>
      </trkpt>
      <trkpt lat="44.56494" lon="-0.25666">
        <ele>5.765625</ele>
        <time>2021-05-05T07:46:35Z</time>
      </trkpt>
      <trkpt lat="44.56502" lon="-0.25676">
        <ele>5.91015625</ele>
        <time>2021-05-05T07:46:43Z</time>
      </trkpt>
      <trkpt lat="44.56511" lon="-0.25684">
        <ele>6.02734375</ele>
        <time>2021-05-05T07:46:51Z</time>
      </trkpt>
      <trkpt lat="44.56519" lon="-0.25695">
        <ele>6.04296875</ele>
        <time>2021-05-05T07:47:00Z</time>
      </trkpt>
      <trkpt lat="44.56527" lon="-0.25703">
        <ele>6.01953125</ele>
        <time>2021-05-05T07:47:08Z</time>
      </trkpt>
      <trkpt lat="44.56534" lon="-0.25713">
        <ele>5.94140625</ele>
        <time>2021-05-05T07:47:16Z</time>
      </trkpt>
      <trkpt lat="44.56542" lon="-0.25723">
        <ele>5.89453125</ele>
        <time>2021-05-05T07:47:29Z</time>
      </trkpt>
      <trkpt lat="44.56551" lon="-0.25729">
        <ele>5.91796875</ele>
        <time>2021-05-05T07:48:00Z</time>
      </trkpt>
      <trkpt lat="44.56558" lon="-0.25733">
        <ele>5.96484375</ele>
        <time>2021-05-05T07:49:20Z</time>
      </trkpt>
      <trkpt lat="44.56567" lon="-0.25741">
        <ele>6.03125</ele>
        <time>2021-05-05T07:49:26Z</time>
      </trkpt>
      <trkpt lat="44.56575" lon="-0.25752">
        <ele>6.04296875</ele>
        <time>2021-05-05T07:49:34Z</time>
      </trkpt>
      <trkpt lat="44.56585" lon="-0.2576">
        <ele>6.01171875</ele>
        <time>2021-05-05T07:49:42Z</time>
      </trkpt>
      <trkpt lat="44.56592" lon="-0.2577">
        <ele>5.86328125</ele>
        <time>2021-05-05T07:49:50Z</time>
      </trkpt>
      <trkpt lat="44.566" lon="-0.25776">
        <ele>5.75</ele>
        <time>2021-05-05T07:49:57Z</time>
      </trkpt>
      <trkpt lat="44.56608" lon="-0.25785">
        <ele>5.59375</ele>
        <time>2021-05-05T07:50:05Z</time>
      </trkpt>
      <trkpt lat="44.56615" lon="-0.25794">
        <ele>5.421875</ele>
        <time>2021-05-05T07:50:13Z</time>
      </trkpt>
      <trkpt lat="44.56624" lon="-0.25801">
        <ele>5.46875</ele>
        <time>2021-05-05T07:50:20Z</time>
      </trkpt>
      <trkpt lat="44.5663" lon="-0.2581">
        <ele>5.5546875</ele>
        <time>2021-05-05T07:50:28Z</time>
      </trkpt>
      <trkpt lat="44.56637" lon="-0.2582">
        <ele>5.671875</ele>
        <time>2021-05-05T07:50:36Z</time>
      </trkpt>
      <trkpt lat="44.56645" lon="-0.25828">
        <ele>5.87109375</ele>
        <time>2021-05-05T07:50:43Z</time>
      </trkpt>
      <trkpt lat="44.56653" lon="-0.25837">
        <ele>6.0390625</ele>
        <time>2021-05-05T07:50:51Z</time>
      </trkpt>
      <trkpt lat="44.56662" lon="-0.25846">
        <ele>6.171875</ele>
        <time>2021-05-05T07:50:59Z</time>
      </trkpt>
      <trkpt lat="44.56669" lon="-0.25856">
        <ele>6.2109375</ele>
        <time>2021-05-05T07:51:07Z</time>
      </trkpt>
      <trkpt lat="44.56677" lon="-0.25865">
        <ele>6.19140625</ele>
        <time>2021-05-05T07:51:14Z</time>
      </trkpt>
      <trkpt lat="44.56684" lon="-0.25873">
        <ele>6.1953125</ele>
        <time>2021-05-05T07:51:21Z</time>
      </trkpt>
      <trkpt lat="44.56691" lon="-0.2588">
        <ele>6.19921875</ele>
        <time>2021-05-05T07:51:28Z</time>
      </trkpt>
      <trkpt lat="44.56698" lon="-0.25886">
        <ele>6.19140625</ele>
        <time>2021-05-05T07:52:18Z</time>
      </trkpt>
      <trkpt lat="44.56706" lon="-0.25897">
        <ele>6.1484375</ele>
        <time>2021-05-05T07:52:32Z</time>
      </trkpt>
      <trkpt lat="44.56714" lon="-0.25908">
        <ele>6.10546875</ele>
        <time>2021-05-05T07:52:43Z</time>
      </trkpt>
      <trkpt lat="44.56722" lon="-0.25919">
        <ele>6.0390625</ele>
        <time>2021-05-05T07:52:52Z</time>
      </trkpt>
      <trkpt lat="44.56731" lon="-0.25929">
        <ele>6.03125</ele>
        <time>2021-05-05T07:53:01Z</time>
      </trkpt>
      <trkpt lat="44.56739" lon="-0.2594">
        <ele>6.18359375</ele>
        <time>2021-05-05T07:53:10Z</time>
      </trkpt>
      <trkpt lat="44.5675" lon="-0.25954">
        <ele>6.3828125</ele>
        <time>2021-05-05T07:53:22Z</time>
      </trkpt>
      <trkpt lat="44.5676" lon="-0.25966">
        <ele>6.55078125</ele>
        <time>2021-05-05T07:53:32Z</time>
      </trkpt>
      <trkpt lat="44.56771" lon="-0.2598">
        <ele>6.75390625</ele>
        <time>2021-05-05T07:53:42Z</time>
      </trkpt>
      <trkpt lat="44.5678" lon="-0.25992">
        <ele>6.77734375</ele>
        <time>2021-05-05T07:53:51Z</time>
      </trkpt>
      <trkpt lat="44.56788" lon="-0.26005">
        <ele>6.62890625</ele>
        <time>2021-05-05T07:53:59Z</time>
      </trkpt>
      <trkpt lat="44.56795" lon="-0.26016">
        <ele>6.421875</ele>
        <time>2021-05-05T07:54:08Z</time>
      </trkpt>
      <trkpt lat="44.56804" lon="-0.26028">
        <ele>6.2109375</ele>
        <time>2021-05-05T07:54:18Z</time>
      </trkpt>
      <trkpt lat="44.56812" lon="-0.2604">
        <ele>6.00390625</ele>
        <time>2021-05-05T07:54:30Z</time>
      </trkpt>
      <trkpt lat="44.56819" lon="-0.26052">
        <ele>5.9140625</ele>
        <time>2021-05-05T07:54:50Z</time>
      </trkpt>
      <trkpt lat="44.56828" lon="-0.26063">
        <ele>5.9140625</ele>
        <time>2021-05-05T07:54:59Z</time>
      </trkpt>
      <trkpt lat="44.56837" lon="-0.26073">
        <ele>5.9609375</ele>
        <time>2021-05-05T07:55:07Z</time>
      </trkpt>
      <trkpt lat="44.56845" lon="-0.26083">
        <ele>6.08984375</ele>
        <time>2021-05-05T07:55:15Z</time>
      </trkpt>
      <trkpt lat="44.56853" lon="-0.26092">
        <ele>6.2265625</ele>
        <time>2021-05-05T07:55:24Z</time>
      </trkpt>
      <trkpt lat="44.56861" lon="-0.26099">
        <ele>6.30078125</ele>
        <time>2021-05-05T07:55:34Z</time>
      </trkpt>
      <trkpt lat="44.56867" lon="-0.26095">
        <ele>6.484375</ele>
        <time>2021-05-05T07:55:59Z</time>
      </trkpt>
      <trkpt lat="44.56874" lon="-0.26086">
        <ele>6.62109375</ele>
        <time>2021-05-05T07:56:07Z</time>
      </trkpt>
      <trkpt lat="44.56881" lon="-0.26075">
        <ele>6.7421875</ele>
        <time>2021-05-05T07:56:15Z</time>
      </trkpt>
      <trkpt lat="44.56887" lon="-0.26064">
        <ele>6.84765625</ele>
        <time>2021-05-05T07:56:23Z</time>
      </trkpt>
      <trkpt lat="44.56893" lon="-0.26053">
        <ele>6.9453125</ele>
        <time>2021-05-05T07:56:30Z</time>
      </trkpt>
      <trkpt lat="44.56897" lon="-0.26042">
        <ele>7.02734375</ele>
        <time>2021-05-05T07:56:37Z</time>
      </trkpt>
      <trkpt lat="44.56902" lon="-0.26031">
        <ele>7.1171875</ele>
        <time>2021-05-05T07:56:44Z</time>
      </trkpt>
      <trkpt lat="44.56908" lon="-0.26022">
        <ele>7.22265625</ele>
        <time>2021-05-05T07:56:51Z</time>
      </trkpt>
      <trkpt lat="44.56913" lon="-0.26011">
        <ele>7.3125</ele>
        <time>2021-05-05T07:56:58Z</time>
      </trkpt>
      <trkpt lat="44.56918" lon="-0.26">
        <ele>7.41015625</ele>
        <time>2021-05-05T07:57:05Z</time>
      </trkpt>
      <trkpt lat="44.56925" lon="-0.2599">
        <ele>7.52734375</ele>
        <time>2021-05-05T07:57:12Z</time>
      </trkpt>
      <trkpt lat="44.56929" lon="-0.25979">
        <ele>7.69921875</ele>
        <time>2021-05-05T07:57:19Z</time>
      </trkpt>
      <trkpt lat="44.56935" lon="-0.25968">
        <ele>8</ele>
        <time>2021-05-05T07:57:26Z</time>
      </trkpt>
      <trkpt lat="44.56941" lon="-0.25958">
        <ele>8.29296875</ele>
        <time>2021-05-05T07:57:33Z</time>
      </trkpt>
      <trkpt lat="44.56946" lon="-0.25946">
        <ele>8.59375</ele>
        <time>2021-05-05T07:57:40Z</time>
      </trkpt>
      <trkpt lat="44.56952" lon="-0.25934">
        <ele>8.8984375</ele>
        <time>2021-05-05T07:57:48Z</time>
      </trkpt>
      <trkpt lat="44.56958" lon="-0.25924">
        <ele>9.0078125</ele>
        <time>2021-05-05T07:57:55Z</time>
      </trkpt>
      <trkpt lat="44.56963" lon="-0.25914">
        <ele>9.05859375</ele>
        <time>2021-05-05T07:58:02Z</time>
      </trkpt>
      <trkpt lat="44.56968" lon="-0.25904">
        <ele>9.140625</ele>
        <time>2021-05-05T07:58:09Z</time>
      </trkpt>
      <trkpt lat="44.56974" lon="-0.25892">
        <ele>9.26953125</ele>
        <time>2021-05-05T07:58:17Z</time>
      </trkpt>
      <trkpt lat="44.56981" lon="-0.25882">
        <ele>9.44921875</ele>
        <time>2021-05-05T07:58:25Z</time>
      </trkpt>
      <trkpt lat="44.56987" lon="-0.25872">
        <ele>9.64453125</ele>
        <time>2021-05-05T07:58:32Z</time>
      </trkpt>
      <trkpt lat="44.56992" lon="-0.2586">
        <ele>9.734375</ele>
        <time>2021-05-05T07:58:39Z</time>
      </trkpt>
      <trkpt lat="44.56998" lon="-0.2585">
        <ele>9.84765625</ele>
        <time>2021-05-05T07:58:47Z</time>
      </trkpt>
      <trkpt lat="44.57004" lon="-0.25837">
        <ele>9.9609375</ele>
        <time>2021-05-05T07:58:55Z</time>
      </trkpt>
      <trkpt lat="44.5701" lon="-0.25827">
        <ele>10.05078125</ele>
        <time>2021-05-05T07:59:02Z</time>
      </trkpt>
      <trkpt lat="44.57015" lon="-0.25815">
        <ele>10.1953125</ele>
        <time>2021-05-05T07:59:09Z</time>
      </trkpt>
      <trkpt lat="44.57022" lon="-0.25805">
        <ele>10.5</ele>
        <time>2021-05-05T07:59:16Z</time>
      </trkpt>
      <trkpt lat="44.57028" lon="-0.25794">
        <ele>10.80859375</ele>
        <time>2021-05-05T07:59:24Z</time>
      </trkpt>
      <trkpt lat="44.57033" lon="-0.25784">
        <ele>11.08984375</ele>
        <time>2021-05-05T07:59:31Z</time>
      </trkpt>
      <trkpt lat="44.57039" lon="-0.25773">
        <ele>11.37890625</ele>
        <time>2021-05-05T07:59:38Z</time>
      </trkpt>
      <trkpt lat="44.57047" lon="-0.25765">
        <ele>11.66015625</ele>
        <time>2021-05-05T07:59:47Z</time>
      </trkpt>
      <trkpt lat="44.57055" lon="-0.25764">
        <ele>11.8359375</ele>
        <time>2021-05-05T07:59:56Z</time>
      </trkpt>
      <trkpt lat="44.57062" lon="-0.25773">
        <ele>11.80078125</ele>
        <time>2021-05-05T08:00:04Z</time>
      </trkpt>
      <trkpt lat="44.57068" lon="-0.25783">
        <ele>11.65234375</ele>
        <time>2021-05-05T08:00:13Z</time>
      </trkpt>
      <trkpt lat="44.57074" lon="-0.25782">
        <ele>11.71875</ele>
        <time>2021-05-05T08:00:26Z</time>
      </trkpt>
      <trkpt lat="44.5708" lon="-0.25773">
        <ele>11.87109375</ele>
        <time>2021-05-05T08:00:34Z</time>
      </trkpt>
      <trkpt lat="44.57087" lon="-0.25763">
        <ele>11.99609375</ele>
        <time>2021-05-05T08:00:42Z</time>
      </trkpt>
      <trkpt lat="44.57093" lon="-0.25751">
        <ele>12</ele>
        <time>2021-05-05T08:00:50Z</time>
      </trkpt>
      <trkpt lat="44.571" lon="-0.25741">
        <ele>12</ele>
        <time>2021-05-05T08:00:57Z</time>
      </trkpt>
      <trkpt lat="44.57106" lon="-0.25731">
        <ele>12</ele>
        <time>2021-05-05T08:01:04Z</time>
      </trkpt>
      <trkpt lat="44.57112" lon="-0.2572">
        <ele>12</ele>
        <time>2021-05-05T08:01:11Z</time>
      </trkpt>
      <trkpt lat="44.57119" lon="-0.25709">
        <ele>12.0234375</ele>
        <time>2021-05-05T08:01:19Z</time>
      </trkpt>
      <trkpt lat="44.57125" lon="-0.25699">
        <ele>12.2578125</ele>
        <time>2021-05-05T08:01:26Z</time>
      </trkpt>
      <trkpt lat="44.57132" lon="-0.25688">
        <ele>12.50390625</ele>
        <time>2021-05-05T08:01:33Z</time>
      </trkpt>
      <trkpt lat="44.57139" lon="-0.25677">
        <ele>12.7109375</ele>
        <time>2021-05-05T08:01:41Z</time>
      </trkpt>
      <trkpt lat="44.57146" lon="-0.25668">
        <ele>12.84375</ele>
        <time>2021-05-05T08:01:48Z</time>
      </trkpt>
      <trkpt lat="44.57152" lon="-0.25658">
        <ele>12.94921875</ele>
        <time>2021-05-05T08:01:55Z</time>
      </trkpt>
      <trkpt lat="44.57158" lon="-0.25649">
        <ele>13.04296875</ele>
        <time>2021-05-05T08:02:02Z</time>
      </trkpt>
      <trkpt lat="44.57165" lon="-0.2564">
        <ele>13.1953125</ele>
        <time>2021-05-05T08:02:09Z</time>
      </trkpt>
      <trkpt lat="44.57171" lon="-0.2563">
        <ele>13.38671875</ele>
        <time>2021-05-05T08:02:16Z</time>
      </trkpt>
      <trkpt lat="44.57177" lon="-0.25619">
        <ele>13.57421875</ele>
        <time>2021-05-05T08:02:24Z</time>
      </trkpt>
      <trkpt lat="44.57183" lon="-0.25609">
        <ele>13.76171875</ele>
        <time>2021-05-05T08:02:32Z</time>
      </trkpt>
      <trkpt lat="44.57188" lon="-0.25598">
        <ele>13.953125</ele>
        <time>2021-05-05T08:02:39Z</time>
      </trkpt>
      <trkpt lat="44.57195" lon="-0.25588">
        <ele>14.05078125</ele>
        <time>2021-05-05T08:02:48Z</time>
      </trkpt>
      <trkpt lat="44.57204" lon="-0.25582">
        <ele>14.13671875</ele>
        <time>2021-05-05T08:02:57Z</time>
      </trkpt>
      <trkpt lat="44.57213" lon="-0.25584">
        <ele>14.14453125</ele>
        <time>2021-05-05T08:03:11Z</time>
      </trkpt>
      <trkpt lat="44.57222" lon="-0.2559">
        <ele>14.09375</ele>
        <time>2021-05-05T08:03:19Z</time>
      </trkpt>
      <trkpt lat="44.57231" lon="-0.25594">
        <ele>14.0703125</ele>
        <time>2021-05-05T08:03:54Z</time>
      </trkpt>
      <trkpt lat="44.5724" lon="-0.25598">
        <ele>14.16015625</ele>
        <time>2021-05-05T08:04:02Z</time>
      </trkpt>
      <trkpt lat="44.5725" lon="-0.25603">
        <ele>14.2421875</ele>
        <time>2021-05-05T08:04:11Z</time>
      </trkpt>
      <trkpt lat="44.5726" lon="-0.25609">
        <ele>14.3203125</ele>
        <time>2021-05-05T08:04:19Z</time>
      </trkpt>
      <trkpt lat="44.57271" lon="-0.25616">
        <ele>14.3984375</ele>
        <time>2021-05-05T08:04:27Z</time>
      </trkpt>
      <trkpt lat="44.5728" lon="-0.25621">
        <ele>14.46484375</ele>
        <time>2021-05-05T08:04:34Z</time>
      </trkpt>
      <trkpt lat="44.57289" lon="-0.25629">
        <ele>14.578125</ele>
        <time>2021-05-05T08:04:43Z</time>
      </trkpt>
      <trkpt lat="44.57298" lon="-0.25635">
        <ele>14.78515625</ele>
        <time>2021-05-05T08:04:50Z</time>
      </trkpt>
      <trkpt lat="44.57307" lon="-0.25642">
        <ele>14.984375</ele>
        <time>2021-05-05T08:04:58Z</time>
      </trkpt>
      <trkpt lat="44.57317" lon="-0.2565">
        <ele>15.21484375</ele>
        <time>2021-05-05T08:05:06Z</time>
      </trkpt>
      <trkpt lat="44.57325" lon="-0.25659">
        <ele>15.359375</ele>
        <time>2021-05-05T08:05:14Z</time>
      </trkpt>
      <trkpt lat="44.57334" lon="-0.25661">
        <ele>15.6484375</ele>
        <time>2021-05-05T08:05:23Z</time>
      </trkpt>
      <trkpt lat="44.5734" lon="-0.25649">
        <ele>16.05859375</ele>
        <time>2021-05-05T08:05:31Z</time>
      </trkpt>
      <trkpt lat="44.57348" lon="-0.25637">
        <ele>16.515625</ele>
        <time>2021-05-05T08:05:39Z</time>
      </trkpt>
      <trkpt lat="44.57357" lon="-0.25629">
        <ele>16.89453125</ele>
        <time>2021-05-05T08:05:46Z</time>
      </trkpt>
      <trkpt lat="44.57364" lon="-0.25619">
        <ele>17.19140625</ele>
        <time>2021-05-05T08:05:53Z</time>
      </trkpt>
      <trkpt lat="44.57371" lon="-0.25611">
        <ele>17.4453125</ele>
        <time>2021-05-05T08:06:00Z</time>
      </trkpt>
      <trkpt lat="44.57379" lon="-0.25602">
        <ele>17.67578125</ele>
        <time>2021-05-05T08:06:08Z</time>
      </trkpt>
      <trkpt lat="44.57387" lon="-0.25592">
        <ele>17.84375</ele>
        <time>2021-05-05T08:06:16Z</time>
      </trkpt>
      <trkpt lat="44.57395" lon="-0.25581">
        <ele>17.98828125</ele>
        <time>2021-05-05T08:06:24Z</time>
      </trkpt>
      <trkpt lat="44.57402" lon="-0.25572">
        <ele>18.12109375</ele>
        <time>2021-05-05T08:06:32Z</time>
      </trkpt>
      <trkpt lat="44.57409" lon="-0.25561">
        <ele>18.2421875</ele>
        <time>2021-05-05T08:06:40Z</time>
      </trkpt>
      <trkpt lat="44.57417" lon="-0.25552">
        <ele>18.390625</ele>
        <time>2021-05-05T08:06:48Z</time>
      </trkpt>
      <trkpt lat="44.57425" lon="-0.25541">
        <ele>18.53125</ele>
        <time>2021-05-05T08:06:56Z</time>
      </trkpt>
      <trkpt lat="44.57434" lon="-0.25532">
        <ele>18.5625</ele>
        <time>2021-05-05T08:07:04Z</time>
      </trkpt>
      <trkpt lat="44.57441" lon="-0.25522">
        <ele>18.5078125</ele>
        <time>2021-05-05T08:07:11Z</time>
      </trkpt>
      <trkpt lat="44.57449" lon="-0.25514">
        <ele>18.5078125</ele>
        <time>2021-05-05T08:07:18Z</time>
      </trkpt>
      <trkpt lat="44.57457" lon="-0.25504">
        <ele>18.50390625</ele>
        <time>2021-05-05T08:07:26Z</time>
      </trkpt>
      <trkpt lat="44.57466" lon="-0.25497">
        <ele>18.64453125</ele>
        <time>2021-05-05T08:07:34Z</time>
      </trkpt>
      <trkpt lat="44.57475" lon="-0.2549">
        <ele>18.8828125</ele>
        <time>2021-05-05T08:07:41Z</time>
      </trkpt>
      <trkpt lat="44.57484" lon="-0.25483">
        <ele>19.18359375</ele>
        <time>2021-05-05T08:07:48Z</time>
      </trkpt>
      <trkpt lat="44.57491" lon="-0.25475">
        <ele>19.44140625</ele>
        <time>2021-05-05T08:07:56Z</time>
      </trkpt>
      <trkpt lat="44.57498" lon="-0.25465">
        <ele>19.6875</ele>
        <time>2021-05-05T08:08:04Z</time>
      </trkpt>
      <trkpt lat="44.57505" lon="-0.25455">
        <ele>19.9375</ele>
        <time>2021-05-05T08:08:15Z</time>
      </trkpt>
      <trkpt lat="44.57512" lon="-0.25449">
        <ele>20.109375</ele>
        <time>2021-05-05T08:08:23Z</time>
      </trkpt>
      <trkpt lat="44.5752" lon="-0.2544">
        <ele>20.25390625</ele>
        <time>2021-05-05T08:08:31Z</time>
      </trkpt>
      <trkpt lat="44.57528" lon="-0.25413">
        <ele>20.5</ele>
        <time>2021-05-05T08:08:47Z</time>
      </trkpt>
      <trkpt lat="44.57531" lon="-0.25402">
        <ele>20.6640625</ele>
        <time>2021-05-05T08:08:53Z</time>
      </trkpt>
      <trkpt lat="44.57536" lon="-0.2539">
        <ele>20.90625</ele>
        <time>2021-05-05T08:09:01Z</time>
      </trkpt>
      <trkpt lat="44.5754" lon="-0.25377">
        <ele>21.1640625</ele>
        <time>2021-05-05T08:09:08Z</time>
      </trkpt>
      <trkpt lat="44.57548" lon="-0.25369">
        <ele>21.4921875</ele>
        <time>2021-05-05T08:09:15Z</time>
      </trkpt>
      <trkpt lat="44.57556" lon="-0.2536">
        <ele>21.7890625</ele>
        <time>2021-05-05T08:09:23Z</time>
      </trkpt>
      <trkpt lat="44.57565" lon="-0.25351">
        <ele>22.1015625</ele>
        <time>2021-05-05T08:09:30Z</time>
      </trkpt>
      <trkpt lat="44.57571" lon="-0.25341">
        <ele>22.37109375</ele>
        <time>2021-05-05T08:09:38Z</time>
      </trkpt>
      <trkpt lat="44.57581" lon="-0.25334">
        <ele>22.8515625</ele>
        <time>2021-05-05T08:09:46Z</time>
      </trkpt>
      <trkpt lat="44.57589" lon="-0.25326">
        <ele>23.3125</ele>
        <time>2021-05-05T08:09:52Z</time>
      </trkpt>
      <trkpt lat="44.57596" lon="-0.25317">
        <ele>23.87890625</ele>
        <time>2021-05-05T08:09:59Z</time>
      </trkpt>
      <trkpt lat="44.57605" lon="-0.2531">
        <ele>24.51171875</ele>
        <time>2021-05-05T08:10:06Z</time>
      </trkpt>
      <trkpt lat="44.57613" lon="-0.25301">
        <ele>25.09765625</ele>
        <time>2021-05-05T08:10:14Z</time>
      </trkpt>
      <trkpt lat="44.57623" lon="-0.25297">
        <ele>25.5390625</ele>
        <time>2021-05-05T08:10:23Z</time>
      </trkpt>
      <trkpt lat="44.57634" lon="-0.25295">
        <ele>25.890625</ele>
        <time>2021-05-05T08:10:30Z</time>
      </trkpt>
      <trkpt lat="44.57643" lon="-0.25293">
        <ele>26.171875</ele>
        <time>2021-05-05T08:10:38Z</time>
      </trkpt>
      <trkpt lat="44.57653" lon="-0.25289">
        <ele>26.46875</ele>
        <time>2021-05-05T08:10:45Z</time>
      </trkpt>
      <trkpt lat="44.57662" lon="-0.25288">
        <ele>26.72265625</ele>
        <time>2021-05-05T08:10:51Z</time>
      </trkpt>
      <trkpt lat="44.57672" lon="-0.25284">
        <ele>26.96875</ele>
        <time>2021-05-05T08:10:57Z</time>
      </trkpt>
      <trkpt lat="44.57679" lon="-0.25278">
        <ele>27.19921875</ele>
        <time>2021-05-05T08:11:05Z</time>
      </trkpt>
      <trkpt lat="44.5769" lon="-0.25278">
        <ele>27.52734375</ele>
        <time>2021-05-05T08:11:13Z</time>
      </trkpt>
      <trkpt lat="44.57703" lon="-0.25276">
        <ele>27.9453125</ele>
        <time>2021-05-05T08:11:23Z</time>
      </trkpt>
      <trkpt lat="44.57714" lon="-0.25277">
        <ele>28.27734375</ele>
        <time>2021-05-05T08:11:31Z</time>
      </trkpt>
      <trkpt lat="44.57725" lon="-0.25282">
        <ele>28.55078125</ele>
        <time>2021-05-05T08:11:41Z</time>
      </trkpt>
      <trkpt lat="44.57736" lon="-0.25284">
        <ele>28.87890625</ele>
        <time>2021-05-05T08:11:48Z</time>
      </trkpt>
      <trkpt lat="44.57746" lon="-0.25284">
        <ele>29.2421875</ele>
        <time>2021-05-05T08:11:55Z</time>
      </trkpt>
      <trkpt lat="44.57755" lon="-0.25286">
        <ele>29.53515625</ele>
        <time>2021-05-05T08:12:02Z</time>
      </trkpt>
      <trkpt lat="44.57764" lon="-0.25283">
        <ele>29.921875</ele>
        <time>2021-05-05T08:12:09Z</time>
      </trkpt>
      <trkpt lat="44.57774" lon="-0.25283">
        <ele>30.26953125</ele>
        <time>2021-05-05T08:12:18Z</time>
      </trkpt>
      <trkpt lat="44.57782" lon="-0.25279">
        <ele>30.6171875</ele>
        <time>2021-05-05T08:12:25Z</time>
      </trkpt>
      <trkpt lat="44.57791" lon="-0.25277">
        <ele>30.875</ele>
        <time>2021-05-05T08:12:34Z</time>
      </trkpt>
      <trkpt lat="44.57803" lon="-0.25278">
        <ele>31.0625</ele>
        <time>2021-05-05T08:12:42Z</time>
      </trkpt>
      <trkpt lat="44.57812" lon="-0.25267">
        <ele>31.4140625</ele>
        <time>2021-05-05T08:22:31Z</time>
      </trkpt>
      <trkpt lat="44.5782" lon="-0.25259">
        <ele>31.6640625</ele>
        <time>2021-05-05T08:22:38Z</time>
      </trkpt>
      <trkpt lat="44.57828" lon="-0.25252">
        <ele>31.82421875</ele>
        <time>2021-05-05T08:22:45Z</time>
      </trkpt>
      <trkpt lat="44.57835" lon="-0.25245">
        <ele>31.9453125</ele>
        <time>2021-05-05T08:22:52Z</time>
      </trkpt>
      <trkpt lat="44.57843" lon="-0.25239">
        <ele>32.13671875</ele>
        <time>2021-05-05T08:22:59Z</time>
      </trkpt>
      <trkpt lat="44.5785" lon="-0.25231">
        <ele>32.38671875</ele>
        <time>2021-05-05T08:23:06Z</time>
      </trkpt>
      <trkpt lat="44.57858" lon="-0.25223">
        <ele>32.65625</ele>
        <time>2021-05-05T08:23:13Z</time>
      </trkpt>
      <trkpt lat="44.57865" lon="-0.25216">
        <ele>32.93359375</ele>
        <time>2021-05-05T08:23:21Z</time>
      </trkpt>
      <trkpt lat="44.57874" lon="-0.25207">
        <ele>33.23046875</ele>
        <time>2021-05-05T08:23:29Z</time>
      </trkpt>
      <trkpt lat="44.57881" lon="-0.25199">
        <ele>33.546875</ele>
        <time>2021-05-05T08:23:42Z</time>
      </trkpt>
      <trkpt lat="44.5789" lon="-0.25192">
        <ele>33.84765625</ele>
        <time>2021-05-05T08:23:50Z</time>
      </trkpt>
      <trkpt lat="44.57899" lon="-0.25183">
        <ele>34.09765625</ele>
        <time>2021-05-05T08:23:58Z</time>
      </trkpt>
      <trkpt lat="44.57907" lon="-0.25174">
        <ele>34.35546875</ele>
        <time>2021-05-05T08:24:06Z</time>
      </trkpt>
      <trkpt lat="44.57916" lon="-0.25167">
        <ele>34.65625</ele>
        <time>2021-05-05T08:24:14Z</time>
      </trkpt>
      <trkpt lat="44.57925" lon="-0.2516">
        <ele>34.984375</ele>
        <time>2021-05-05T08:24:21Z</time>
      </trkpt>
      <trkpt lat="44.57933" lon="-0.2515">
        <ele>35.3828125</ele>
        <time>2021-05-05T08:24:30Z</time>
      </trkpt>
      <trkpt lat="44.5794" lon="-0.25141">
        <ele>35.66796875</ele>
        <time>2021-05-05T08:24:37Z</time>
      </trkpt>
      <trkpt lat="44.57943" lon="-0.25126">
        <ele>35.7890625</ele>
        <time>2021-05-05T08:24:46Z</time>
      </trkpt>
      <trkpt lat="44.57939" lon="-0.25114">
        <ele>35.7265625</ele>
        <time>2021-05-05T08:24:54Z</time>
      </trkpt>
      <trkpt lat="44.57934" lon="-0.25101">
        <ele>35.671875</ele>
        <time>2021-05-05T08:25:02Z</time>
      </trkpt>
      <trkpt lat="44.57927" lon="-0.25089">
        <ele>35.7109375</ele>
        <time>2021-05-05T08:25:10Z</time>
      </trkpt>
      <trkpt lat="44.57921" lon="-0.25078">
        <ele>35.78515625</ele>
        <time>2021-05-05T08:25:17Z</time>
      </trkpt>
      <trkpt lat="44.57922" lon="-0.25066">
        <ele>36.0234375</ele>
        <time>2021-05-05T08:25:26Z</time>
      </trkpt>
      <trkpt lat="44.57932" lon="-0.25067">
        <ele>36.17578125</ele>
        <time>2021-05-05T08:25:36Z</time>
      </trkpt>
      <trkpt lat="44.57941" lon="-0.2507">
        <ele>36.29296875</ele>
        <time>2021-05-05T08:25:43Z</time>
      </trkpt>
      <trkpt lat="44.57951" lon="-0.25075">
        <ele>36.3828125</ele>
        <time>2021-05-05T08:25:52Z</time>
      </trkpt>
      <trkpt lat="44.5796" lon="-0.25086">
        <ele>36.68359375</ele>
        <time>2021-05-05T08:26:00Z</time>
      </trkpt>
      <trkpt lat="44.57966" lon="-0.25097">
        <ele>36.80859375</ele>
        <time>2021-05-05T08:26:07Z</time>
      </trkpt>
      <trkpt lat="44.57971" lon="-0.25108">
        <ele>37.0078125</ele>
        <time>2021-05-05T08:26:15Z</time>
      </trkpt>
      <trkpt lat="44.57976" lon="-0.25119">
        <ele>37.171875</ele>
        <time>2021-05-05T08:26:22Z</time>
      </trkpt>
      <trkpt lat="44.57983" lon="-0.25127">
        <ele>37.4453125</ele>
        <time>2021-05-05T08:26:30Z</time>
      </trkpt>
      <trkpt lat="44.57994" lon="-0.25125">
        <ele>37.93359375</ele>
        <time>2021-05-05T08:26:38Z</time>
      </trkpt>
      <trkpt lat="44.58003" lon="-0.25123">
        <ele>38.375</ele>
        <time>2021-05-05T08:26:45Z</time>
      </trkpt>
      <trkpt lat="44.58012" lon="-0.25123">
        <ele>38.78515625</ele>
        <time>2021-05-05T08:26:52Z</time>
      </trkpt>
      <trkpt lat="44.58019" lon="-0.25132">
        <ele>38.90625</ele>
        <time>2021-05-05T08:27:00Z</time>
      </trkpt>
      <trkpt lat="44.58026" lon="-0.25142">
        <ele>38.9296875</ele>
        <time>2021-05-05T08:27:08Z</time>
      </trkpt>
      <trkpt lat="44.58035" lon="-0.25141">
        <ele>39.34765625</ele>
        <time>2021-05-05T08:27:16Z</time>
      </trkpt>
      <trkpt lat="44.58043" lon="-0.25133">
        <ele>39.89453125</ele>
        <time>2021-05-05T08:27:25Z</time>
      </trkpt>
      <trkpt lat="44.58052" lon="-0.25126">
        <ele>40.46484375</ele>
        <time>2021-05-05T08:27:33Z</time>
      </trkpt>
      <trkpt lat="44.58059" lon="-0.25119">
        <ele>41.046875</ele>
        <time>2021-05-05T08:27:40Z</time>
      </trkpt>
      <trkpt lat="44.58067" lon="-0.2511">
        <ele>41.67578125</ele>
        <time>2021-05-05T08:27:48Z</time>
      </trkpt>
      <trkpt lat="44.58075" lon="-0.25103">
        <ele>42.234375</ele>
        <time>2021-05-05T08:27:56Z</time>
      </trkpt>
      <trkpt lat="44.58084" lon="-0.25096">
        <ele>42.7734375</ele>
        <time>2021-05-05T08:28:04Z</time>
      </trkpt>
      <trkpt lat="44.58091" lon="-0.25089">
        <ele>43.2578125</ele>
        <time>2021-05-05T08:28:11Z</time>
      </trkpt>
      <trkpt lat="44.58099" lon="-0.25085">
        <ele>43.67578125</ele>
        <time>2021-05-05T08:28:33Z</time>
      </trkpt>
      <trkpt lat="44.58107" lon="-0.25076">
        <ele>44.296875</ele>
        <time>2021-05-05T08:28:41Z</time>
      </trkpt>
      <trkpt lat="44.58115" lon="-0.25068">
        <ele>44.90625</ele>
        <time>2021-05-05T08:28:49Z</time>
      </trkpt>
      <trkpt lat="44.58123" lon="-0.25062">
        <ele>45.546875</ele>
        <time>2021-05-05T08:28:56Z</time>
      </trkpt>
      <trkpt lat="44.58127" lon="-0.25054">
        <ele>46.078125</ele>
        <time>2021-05-05T08:29:10Z</time>
      </trkpt>
      <trkpt lat="44.58122" lon="-0.25042">
        <ele>46.23046875</ele>
        <time>2021-05-05T08:29:18Z</time>
      </trkpt>
      <trkpt lat="44.5812" lon="-0.25029">
        <ele>46.53515625</ele>
        <time>2021-05-05T08:29:25Z</time>
      </trkpt>
      <trkpt lat="44.58116" lon="-0.25017">
        <ele>46.796875</ele>
        <time>2021-05-05T08:29:33Z</time>
      </trkpt>
      <trkpt lat="44.58114" lon="-0.25004">
        <ele>47.12109375</ele>
        <time>2021-05-05T08:29:41Z</time>
      </trkpt>
      <trkpt lat="44.5811" lon="-0.24992">
        <ele>47.3671875</ele>
        <time>2021-05-05T08:29:49Z</time>
      </trkpt>
      <trkpt lat="44.58106" lon="-0.2498">
        <ele>47.625</ele>
        <time>2021-05-05T08:29:56Z</time>
      </trkpt>
      <trkpt lat="44.58102" lon="-0.24968">
        <ele>47.99609375</ele>
        <time>2021-05-05T08:30:03Z</time>
      </trkpt>
      <trkpt lat="44.58098" lon="-0.24956">
        <ele>48.3203125</ele>
        <time>2021-05-05T08:30:10Z</time>
      </trkpt>
      <trkpt lat="44.58094" lon="-0.24943">
        <ele>48.671875</ele>
        <time>2021-05-05T08:30:18Z</time>
      </trkpt>
      <trkpt lat="44.5809" lon="-0.2493">
        <ele>49.00390625</ele>
        <time>2021-05-05T08:30:26Z</time>
      </trkpt>
      <trkpt lat="44.58085" lon="-0.2492">
        <ele>49.109375</ele>
        <time>2021-05-05T08:30:44Z</time>
      </trkpt>
      <trkpt lat="44.58082" lon="-0.24908">
        <ele>49.34375</ele>
        <time>2021-05-05T08:30:54Z</time>
      </trkpt>
      <trkpt lat="44.58078" lon="-0.24894">
        <ele>49.640625</ele>
        <time>2021-05-05T08:31:02Z</time>
      </trkpt>
      <trkpt lat="44.58074" lon="-0.24882">
        <ele>49.79296875</ele>
        <time>2021-05-05T08:31:09Z</time>
      </trkpt>
      <trkpt lat="44.5807" lon="-0.24868">
        <ele>49.94921875</ele>
        <time>2021-05-05T08:31:17Z</time>
      </trkpt>
      <trkpt lat="44.5807" lon="-0.24855">
        <ele>50.4296875</ele>
        <time>2021-05-05T08:31:25Z</time>
      </trkpt>
      <trkpt lat="44.58077" lon="-0.24846">
        <ele>51.5078125</ele>
        <time>2021-05-05T08:31:33Z</time>
      </trkpt>
      <trkpt lat="44.58083" lon="-0.24837">
        <ele>52.5234375</ele>
        <time>2021-05-05T08:31:43Z</time>
      </trkpt>
      <trkpt lat="44.58091" lon="-0.24831">
        <ele>53.59375</ele>
        <time>2021-05-05T08:31:54Z</time>
      </trkpt>
      <trkpt lat="44.58097" lon="-0.24825">
        <ele>54.5703125</ele>
        <time>2021-05-05T08:32:14Z</time>
      </trkpt>
      <trkpt lat="44.58106" lon="-0.24817">
        <ele>55.921875</ele>
        <time>2021-05-05T08:32:24Z</time>
      </trkpt>
      <trkpt lat="44.58107" lon="-0.24807">
        <ele>56.54296875</ele>
        <time>2021-05-05T08:32:35Z</time>
      </trkpt>
      <trkpt lat="44.58105" lon="-0.24794">
        <ele>56.984375</ele>
        <time>2021-05-05T08:32:43Z</time>
      </trkpt>
      <trkpt lat="44.58101" lon="-0.2478">
        <ele>57.328125</ele>
        <time>2021-05-05T08:32:51Z</time>
      </trkpt>
      <trkpt lat="44.58095" lon="-0.24766">
        <ele>57.44140625</ele>
        <time>2021-05-05T08:32:59Z</time>
      </trkpt>
      <trkpt lat="44.58092" lon="-0.24755">
        <ele>57.7109375</ele>
        <time>2021-05-05T08:33:06Z</time>
      </trkpt>
      <trkpt lat="44.58089" lon="-0.24743">
        <ele>57.8359375</ele>
        <time>2021-05-05T08:33:14Z</time>
      </trkpt>
      <trkpt lat="44.58086" lon="-0.24731">
        <ele>58.00390625</ele>
        <time>2021-05-05T08:33:22Z</time>
      </trkpt>
      <trkpt lat="44.58081" lon="-0.24718">
        <ele>58.0390625</ele>
        <time>2021-05-05T08:33:30Z</time>
      </trkpt>
      <trkpt lat="44.58077" lon="-0.24705">
        <ele>57.96484375</ele>
        <time>2021-05-05T08:33:38Z</time>
      </trkpt>
      <trkpt lat="44.58073" lon="-0.24693">
        <ele>57.75390625</ele>
        <time>2021-05-05T08:33:45Z</time>
      </trkpt>
      <trkpt lat="44.58067" lon="-0.24681">
        <ele>57.26953125</ele>
        <time>2021-05-05T08:33:53Z</time>
      </trkpt>
      <trkpt lat="44.58062" lon="-0.24668">
        <ele>56.7421875</ele>
        <time>2021-05-05T08:34:01Z</time>
      </trkpt>
      <trkpt lat="44.58057" lon="-0.24656">
        <ele>56.52734375</ele>
        <time>2021-05-05T08:34:08Z</time>
      </trkpt>
      <trkpt lat="44.58053" lon="-0.24643">
        <ele>56.7109375</ele>
        <time>2021-05-05T08:34:16Z</time>
      </trkpt>
      <trkpt lat="44.58048" lon="-0.24632">
        <ele>56.78125</ele>
        <time>2021-05-05T08:34:23Z</time>
      </trkpt>
      <trkpt lat="44.58044" lon="-0.2462">
        <ele>56.9296875</ele>
        <time>2021-05-05T08:34:30Z</time>
      </trkpt>
      <trkpt lat="44.58039" lon="-0.24609">
        <ele>57.00390625</ele>
        <time>2021-05-05T08:34:37Z</time>
      </trkpt>
      <trkpt lat="44.58034" lon="-0.24597">
        <ele>57.0234375</ele>
        <time>2021-05-05T08:34:45Z</time>
      </trkpt>
      <trkpt lat="44.58031" lon="-0.24584">
        <ele>57.26953125</ele>
        <time>2021-05-05T08:34:53Z</time>
      </trkpt>
      <trkpt lat="44.58026" lon="-0.24572">
        <ele>57.33203125</ele>
        <time>2021-05-05T08:35:01Z</time>
      </trkpt>
      <trkpt lat="44.5802" lon="-0.24563">
        <ele>57.1328125</ele>
        <time>2021-05-05T08:35:09Z</time>
      </trkpt>
      <trkpt lat="44.58014" lon="-0.24552">
        <ele>57.08984375</ele>
        <time>2021-05-05T08:35:17Z</time>
      </trkpt>
      <trkpt lat="44.58009" lon="-0.24541">
        <ele>57.22265625</ele>
        <time>2021-05-05T08:35:23Z</time>
      </trkpt>
      <trkpt lat="44.58004" lon="-0.2453">
        <ele>57.1875</ele>
        <time>2021-05-05T08:35:31Z</time>
      </trkpt>
      <trkpt lat="44.57999" lon="-0.2452">
        <ele>57.15234375</ele>
        <time>2021-05-05T08:35:43Z</time>
      </trkpt>
      <trkpt lat="44.57993" lon="-0.24508">
        <ele>57.0390625</ele>
        <time>2021-05-05T08:35:51Z</time>
      </trkpt>
      <trkpt lat="44.57988" lon="-0.24498">
        <ele>56.8828125</ele>
        <time>2021-05-05T08:35:59Z</time>
      </trkpt>
      <trkpt lat="44.57989" lon="-0.24485">
        <ele>57.4765625</ele>
        <time>2021-05-05T08:36:08Z</time>
      </trkpt>
      <trkpt lat="44.57998" lon="-0.24478">
        <ele>58.66796875</ele>
        <time>2021-05-05T08:36:17Z</time>
      </trkpt>
      <trkpt lat="44.58005" lon="-0.24472">
        <ele>59.62109375</ele>
        <time>2021-05-05T08:36:30Z</time>
      </trkpt>
      <trkpt lat="44.58014" lon="-0.24466">
        <ele>60.87109375</ele>
        <time>2021-05-05T08:36:51Z</time>
      </trkpt>
      <trkpt lat="44.58022" lon="-0.24459">
        <ele>61.97265625</ele>
        <time>2021-05-05T08:36:59Z</time>
      </trkpt>
      <trkpt lat="44.5803" lon="-0.24452">
        <ele>63.13671875</ele>
        <time>2021-05-05T08:37:08Z</time>
      </trkpt>
      <trkpt lat="44.58039" lon="-0.24445">
        <ele>64.28125</ele>
        <time>2021-05-05T08:37:17Z</time>
      </trkpt>
      <trkpt lat="44.58047" lon="-0.24438">
        <ele>65.34375</ele>
        <time>2021-05-05T08:37:25Z</time>
      </trkpt>
      <trkpt lat="44.58055" lon="-0.24432">
        <ele>66.28125</ele>
        <time>2021-05-05T08:37:33Z</time>
      </trkpt>
      <trkpt lat="44.58059" lon="-0.24421">
        <ele>67.07421875</ele>
        <time>2021-05-05T08:37:41Z</time>
      </trkpt>
      <trkpt lat="44.58061" lon="-0.24409">
        <ele>67.6953125</ele>
        <time>2021-05-05T08:37:50Z</time>
      </trkpt>
      <trkpt lat="44.5806" lon="-0.24394">
        <ele>68.140625</ele>
        <time>2021-05-05T08:38:00Z</time>
      </trkpt>
      <trkpt lat="44.5806" lon="-0.2438">
        <ele>68.59375</ele>
        <time>2021-05-05T08:38:09Z</time>
      </trkpt>
      <trkpt lat="44.5806" lon="-0.24365">
        <ele>69.21484375</ele>
        <time>2021-05-05T08:38:17Z</time>
      </trkpt>
      <trkpt lat="44.58061" lon="-0.24351">
        <ele>69.7734375</ele>
        <time>2021-05-05T08:38:25Z</time>
      </trkpt>
      <trkpt lat="44.58061" lon="-0.24337">
        <ele>70.24609375</ele>
        <time>2021-05-05T08:38:33Z</time>
      </trkpt>
      <trkpt lat="44.58059" lon="-0.24323">
        <ele>70.62890625</ele>
        <time>2021-05-05T08:38:41Z</time>
      </trkpt>
      <trkpt lat="44.58056" lon="-0.24309">
        <ele>70.65625</ele>
        <time>2021-05-05T08:38:50Z</time>
      </trkpt>
      <trkpt lat="44.5805" lon="-0.24297">
        <ele>70.4296875</ele>
        <time>2021-05-05T08:38:58Z</time>
      </trkpt>
      <trkpt lat="44.58045" lon="-0.24285">
        <ele>70.265625</ele>
        <time>2021-05-05T08:39:06Z</time>
      </trkpt>
      <trkpt lat="44.5804" lon="-0.24272">
        <ele>70.2109375</ele>
        <time>2021-05-05T08:39:14Z</time>
      </trkpt>
      <trkpt lat="44.58035" lon="-0.24259">
        <ele>70.1953125</ele>
        <time>2021-05-05T08:39:22Z</time>
      </trkpt>
      <trkpt lat="44.58031" lon="-0.24247">
        <ele>70.23046875</ele>
        <time>2021-05-05T08:39:30Z</time>
      </trkpt>
      <trkpt lat="44.58027" lon="-0.24234">
        <ele>70.37890625</ele>
        <time>2021-05-05T08:39:38Z</time>
      </trkpt>
      <trkpt lat="44.58023" lon="-0.24222">
        <ele>70.45703125</ele>
        <time>2021-05-05T08:39:46Z</time>
      </trkpt>
      <trkpt lat="44.58016" lon="-0.2421">
        <ele>70.4453125</ele>
        <time>2021-05-05T08:39:54Z</time>
      </trkpt>
      <trkpt lat="44.58011" lon="-0.24198">
        <ele>70.5546875</ele>
        <time>2021-05-05T08:40:02Z</time>
      </trkpt>
      <trkpt lat="44.58004" lon="-0.24187">
        <ele>70.5859375</ele>
        <time>2021-05-05T08:40:10Z</time>
      </trkpt>
      <trkpt lat="44.57997" lon="-0.24175">
        <ele>70.53515625</ele>
        <time>2021-05-05T08:40:18Z</time>
      </trkpt>
      <trkpt lat="44.57992" lon="-0.24166">
        <ele>70.47265625</ele>
        <time>2021-05-05T08:40:25Z</time>
      </trkpt>
      <trkpt lat="44.57986" lon="-0.24153">
        <ele>70.515625</ele>
        <time>2021-05-05T08:40:33Z</time>
      </trkpt>
      <trkpt lat="44.57981" lon="-0.24141">
        <ele>70.59375</ele>
        <time>2021-05-05T08:40:41Z</time>
      </trkpt>
      <trkpt lat="44.57975" lon="-0.24129">
        <ele>70.6171875</ele>
        <time>2021-05-05T08:40:49Z</time>
      </trkpt>
      <trkpt lat="44.5797" lon="-0.24117">
        <ele>70.6953125</ele>
        <time>2021-05-05T08:40:57Z</time>
      </trkpt>
      <trkpt lat="44.57965" lon="-0.24103">
        <ele>70.82421875</ele>
        <time>2021-05-05T08:41:06Z</time>
      </trkpt>
      <trkpt lat="44.57963" lon="-0.24088">
        <ele>71.26953125</ele>
        <time>2021-05-05T08:41:15Z</time>
      </trkpt>
      <trkpt lat="44.57962" lon="-0.24072">
        <ele>71.9375</ele>
        <time>2021-05-05T08:41:24Z</time>
      </trkpt>
      <trkpt lat="44.57958" lon="-0.24059">
        <ele>72.40234375</ele>
        <time>2021-05-05T08:41:32Z</time>
      </trkpt>
      <trkpt lat="44.57955" lon="-0.24044">
        <ele>72.98046875</ele>
        <time>2021-05-05T08:41:40Z</time>
      </trkpt>
      <trkpt lat="44.57951" lon="-0.24032">
        <ele>73.16796875</ele>
        <time>2021-05-05T08:41:48Z</time>
      </trkpt>
      <trkpt lat="44.57947" lon="-0.24022">
        <ele>73.02734375</ele>
        <time>2021-05-05T08:42:02Z</time>
      </trkpt>
      <trkpt lat="44.57952" lon="-0.24009">
        <ele>73.59375</ele>
        <time>2021-05-05T08:42:32Z</time>
      </trkpt>
      <trkpt lat="44.57954" lon="-0.23998">
        <ele>73.79296875</ele>
        <time>2021-05-05T08:43:42Z</time>
      </trkpt>
      <trkpt lat="44.5794" lon="-0.23977">
        <ele>73.109375</ele>
        <time>2021-05-05T08:44:03Z</time>
      </trkpt>
      <trkpt lat="44.57928" lon="-0.2396">
        <ele>72.17578125</ele>
        <time>2021-05-05T08:44:16Z</time>
      </trkpt>
      <trkpt lat="44.57922" lon="-0.23944">
        <ele>71.82421875</ele>
        <time>2021-05-05T08:44:28Z</time>
      </trkpt>
      <trkpt lat="44.57919" lon="-0.23932">
        <ele>71.73046875</ele>
        <time>2021-05-05T08:44:47Z</time>
      </trkpt>
      <trkpt lat="44.57924" lon="-0.23932">
        <ele>72.046875</ele>
        <time>2021-05-05T08:45:05Z</time>
      </trkpt>
      <trkpt lat="44.57933" lon="-0.23927">
        <ele>72.6875</ele>
        <time>2021-05-05T08:45:15Z</time>
      </trkpt>
      <trkpt lat="44.57944" lon="-0.23921">
        <ele>73.38671875</ele>
        <time>2021-05-05T08:45:26Z</time>
      </trkpt>
      <trkpt lat="44.57955" lon="-0.23916">
        <ele>73.6640625</ele>
        <time>2021-05-05T08:45:35Z</time>
      </trkpt>
      <trkpt lat="44.57966" lon="-0.23914">
        <ele>73.36328125</ele>
        <time>2021-05-05T08:45:47Z</time>
      </trkpt>
      <trkpt lat="44.57971" lon="-0.23928">
        <ele>73.578125</ele>
        <time>2021-05-05T08:45:56Z</time>
      </trkpt>
      <trkpt lat="44.57976" lon="-0.23941">
        <ele>73.63671875</ele>
        <time>2021-05-05T08:46:05Z</time>
      </trkpt>
      <trkpt lat="44.57978" lon="-0.23954">
        <ele>73.72265625</ele>
        <time>2021-05-05T08:46:14Z</time>
      </trkpt>
      <trkpt lat="44.57986" lon="-0.23957">
        <ele>73.671875</ele>
        <time>2021-05-05T08:46:24Z</time>
      </trkpt>
      <trkpt lat="44.57998" lon="-0.23956">
        <ele>73.5390625</ele>
        <time>2021-05-05T08:46:32Z</time>
      </trkpt>
      <trkpt lat="44.58007" lon="-0.23953">
        <ele>73.3515625</ele>
        <time>2021-05-05T08:46:40Z</time>
      </trkpt>
      <trkpt lat="44.58016" lon="-0.23952">
        <ele>72.64453125</ele>
        <time>2021-05-05T08:46:49Z</time>
      </trkpt>
      <trkpt lat="44.58019" lon="-0.23947">
        <ele>72.36328125</ele>
        <time>2021-05-05T08:47:08Z</time>
      </trkpt>
      <trkpt lat="44.58017" lon="-0.23933">
        <ele>72.2421875</ele>
        <time>2021-05-05T08:47:17Z</time>
      </trkpt>
      <trkpt lat="44.58019" lon="-0.23918">
        <ele>71.64453125</ele>
        <time>2021-05-05T08:47:25Z</time>
      </trkpt>
      <trkpt lat="44.58017" lon="-0.23903">
        <ele>71.23046875</ele>
        <time>2021-05-05T08:47:34Z</time>
      </trkpt>
      <trkpt lat="44.58012" lon="-0.23888">
        <ele>71.0234375</ele>
        <time>2021-05-05T08:47:44Z</time>
      </trkpt>
      <trkpt lat="44.58008" lon="-0.23875">
        <ele>70.890625</ele>
        <time>2021-05-05T08:47:54Z</time>
      </trkpt>
      <trkpt lat="44.58003" lon="-0.23862">
        <ele>70.69140625</ele>
        <time>2021-05-05T08:48:03Z</time>
      </trkpt>
      <trkpt lat="44.57996" lon="-0.23852">
        <ele>70.63671875</ele>
        <time>2021-05-05T08:48:11Z</time>
      </trkpt>
      <trkpt lat="44.57987" lon="-0.23842">
        <ele>70.703125</ele>
        <time>2021-05-05T08:48:19Z</time>
      </trkpt>
      <trkpt lat="44.57983" lon="-0.2383">
        <ele>70.59375</ele>
        <time>2021-05-05T08:48:28Z</time>
      </trkpt>
      <trkpt lat="44.57978" lon="-0.23817">
        <ele>70.5</ele>
        <time>2021-05-05T08:48:37Z</time>
      </trkpt>
      <trkpt lat="44.57976" lon="-0.23804">
        <ele>70.59375</ele>
        <time>2021-05-05T08:48:55Z</time>
      </trkpt>
      <trkpt lat="44.57968" lon="-0.23799">
        <ele>71.0703125</ele>
        <time>2021-05-05T08:49:06Z</time>
      </trkpt>
      <trkpt lat="44.57959" lon="-0.23794">
        <ele>71.55078125</ele>
        <time>2021-05-05T08:49:14Z</time>
      </trkpt>
      <trkpt lat="44.57949" lon="-0.23788">
        <ele>71.98828125</ele>
        <time>2021-05-05T08:49:22Z</time>
      </trkpt>
      <trkpt lat="44.57948" lon="-0.23775">
        <ele>71.98828125</ele>
        <time>2021-05-05T08:49:35Z</time>
      </trkpt>
      <trkpt lat="44.57954" lon="-0.23765">
        <ele>71.828125</ele>
        <time>2021-05-05T08:49:51Z</time>
      </trkpt>
      <trkpt lat="44.57959" lon="-0.23755">
        <ele>71.4921875</ele>
        <time>2021-05-05T08:50:08Z</time>
      </trkpt>
      <trkpt lat="44.57968" lon="-0.23749">
        <ele>70.96484375</ele>
        <time>2021-05-05T08:50:22Z</time>
      </trkpt>
      <trkpt lat="44.57978" lon="-0.23742">
        <ele>70.34765625</ele>
        <time>2021-05-05T08:50:34Z</time>
      </trkpt>
      <trkpt lat="44.57987" lon="-0.23736">
        <ele>69.7109375</ele>
        <time>2021-05-05T08:50:42Z</time>
      </trkpt>
      <trkpt lat="44.57995" lon="-0.23729">
        <ele>69.08984375</ele>
        <time>2021-05-05T08:50:50Z</time>
      </trkpt>
      <trkpt lat="44.58005" lon="-0.23723">
        <ele>68.36328125</ele>
        <time>2021-05-05T08:50:59Z</time>
      </trkpt>
      <trkpt lat="44.58014" lon="-0.23717">
        <ele>67.48828125</ele>
        <time>2021-05-05T08:51:07Z</time>
      </trkpt>
      <trkpt lat="44.58022" lon="-0.2371">
        <ele>66.59765625</ele>
        <time>2021-05-05T08:51:16Z</time>
      </trkpt>
      <trkpt lat="44.58031" lon="-0.23704">
        <ele>65.74609375</ele>
        <time>2021-05-05T08:51:24Z</time>
      </trkpt>
      <trkpt lat="44.5804" lon="-0.23697">
        <ele>64.859375</ele>
        <time>2021-05-05T08:51:32Z</time>
      </trkpt>
      <trkpt lat="44.58047" lon="-0.23691">
        <ele>64.03515625</ele>
        <time>2021-05-05T08:51:40Z</time>
      </trkpt>
      <trkpt lat="44.58057" lon="-0.23685">
        <ele>63.0703125</ele>
        <time>2021-05-05T08:51:48Z</time>
      </trkpt>
      <trkpt lat="44.58066" lon="-0.23678">
        <ele>62.10546875</ele>
        <time>2021-05-05T08:51:56Z</time>
      </trkpt>
      <trkpt lat="44.58074" lon="-0.23671">
        <ele>61.36328125</ele>
        <time>2021-05-05T08:52:04Z</time>
      </trkpt>
      <trkpt lat="44.58082" lon="-0.23665">
        <ele>60.64453125</ele>
        <time>2021-05-05T08:52:12Z</time>
      </trkpt>
      <trkpt lat="44.58091" lon="-0.23658">
        <ele>59.9140625</ele>
        <time>2021-05-05T08:52:20Z</time>
      </trkpt>
      <trkpt lat="44.581" lon="-0.23653">
        <ele>59.19921875</ele>
        <time>2021-05-05T08:52:28Z</time>
      </trkpt>
      <trkpt lat="44.58108" lon="-0.23645">
        <ele>58.734375</ele>
        <time>2021-05-05T08:52:36Z</time>
      </trkpt>
      <trkpt lat="44.58117" lon="-0.23637">
        <ele>58.2890625</ele>
        <time>2021-05-05T08:52:44Z</time>
      </trkpt>
      <trkpt lat="44.58125" lon="-0.23631">
        <ele>58.34765625</ele>
        <time>2021-05-05T08:52:51Z</time>
      </trkpt>
      <trkpt lat="44.58134" lon="-0.23624">
        <ele>58.51953125</ele>
        <time>2021-05-05T08:52:59Z</time>
      </trkpt>
      <trkpt lat="44.58141" lon="-0.23615">
        <ele>58.80078125</ele>
        <time>2021-05-05T08:53:08Z</time>
      </trkpt>
      <trkpt lat="44.58138" lon="-0.23603">
        <ele>59.1640625</ele>
        <time>2021-05-05T08:53:18Z</time>
      </trkpt>
      <trkpt lat="44.58132" lon="-0.2359">
        <ele>59.6640625</ele>
        <time>2021-05-05T08:53:27Z</time>
      </trkpt>
      <trkpt lat="44.58127" lon="-0.23578">
        <ele>60.2734375</ele>
        <time>2021-05-05T08:53:36Z</time>
      </trkpt>
      <trkpt lat="44.58122" lon="-0.23567">
        <ele>60.7578125</ele>
        <time>2021-05-05T08:53:44Z</time>
      </trkpt>
      <trkpt lat="44.58116" lon="-0.23556">
        <ele>61.21484375</ele>
        <time>2021-05-05T08:53:52Z</time>
      </trkpt>
      <trkpt lat="44.58111" lon="-0.23544">
        <ele>61.98046875</ele>
        <time>2021-05-05T08:53:59Z</time>
      </trkpt>
      <trkpt lat="44.58106" lon="-0.23533">
        <ele>62.59765625</ele>
        <time>2021-05-05T08:54:06Z</time>
      </trkpt>
      <trkpt lat="44.58101" lon="-0.23522">
        <ele>63.125</ele>
        <time>2021-05-05T08:54:14Z</time>
      </trkpt>
      <trkpt lat="44.58095" lon="-0.23511">
        <ele>63.59375</ele>
        <time>2021-05-05T08:54:22Z</time>
      </trkpt>
      <trkpt lat="44.58089" lon="-0.23499">
        <ele>64.0078125</ele>
        <time>2021-05-05T08:54:30Z</time>
      </trkpt>
      <trkpt lat="44.58083" lon="-0.2349">
        <ele>64.26171875</ele>
        <time>2021-05-05T08:54:37Z</time>
      </trkpt>
      <trkpt lat="44.58078" lon="-0.23479">
        <ele>64.55078125</ele>
        <time>2021-05-05T08:54:44Z</time>
      </trkpt>
      <trkpt lat="44.58072" lon="-0.23471">
        <ele>64.75390625</ele>
        <time>2021-05-05T08:54:51Z</time>
      </trkpt>
      <trkpt lat="44.58066" lon="-0.23463">
        <ele>64.91796875</ele>
        <time>2021-05-05T08:54:58Z</time>
      </trkpt>
      <trkpt lat="44.58059" lon="-0.23453">
        <ele>65.296875</ele>
        <time>2021-05-05T08:55:07Z</time>
      </trkpt>
      <trkpt lat="44.58051" lon="-0.23445">
        <ele>65.921875</ele>
        <time>2021-05-05T08:55:16Z</time>
      </trkpt>
      <trkpt lat="44.58045" lon="-0.23437">
        <ele>66.4453125</ele>
        <time>2021-05-05T08:55:24Z</time>
      </trkpt>
      <trkpt lat="44.58037" lon="-0.23428">
        <ele>66.9453125</ele>
        <time>2021-05-05T08:55:31Z</time>
      </trkpt>
      <trkpt lat="44.5803" lon="-0.2342">
        <ele>67.41796875</ele>
        <time>2021-05-05T08:55:39Z</time>
      </trkpt>
      <trkpt lat="44.58024" lon="-0.2341">
        <ele>67.81640625</ele>
        <time>2021-05-05T08:55:47Z</time>
      </trkpt>
      <trkpt lat="44.58019" lon="-0.23401">
        <ele>68.16796875</ele>
        <time>2021-05-05T08:55:55Z</time>
      </trkpt>
      <trkpt lat="44.58015" lon="-0.2339">
        <ele>68.5234375</ele>
        <time>2021-05-05T08:56:02Z</time>
      </trkpt>
      <trkpt lat="44.58011" lon="-0.23378">
        <ele>68.84765625</ele>
        <time>2021-05-05T08:56:10Z</time>
      </trkpt>
      <trkpt lat="44.58007" lon="-0.23367">
        <ele>69.1328125</ele>
        <time>2021-05-05T08:56:19Z</time>
      </trkpt>
      <trkpt lat="44.58005" lon="-0.23354">
        <ele>69.46875</ele>
        <time>2021-05-05T08:56:28Z</time>
      </trkpt>
      <trkpt lat="44.58002" lon="-0.2334">
        <ele>70.0234375</ele>
        <time>2021-05-05T08:56:37Z</time>
      </trkpt>
      <trkpt lat="44.57998" lon="-0.23327">
        <ele>70.5546875</ele>
        <time>2021-05-05T08:56:46Z</time>
      </trkpt>
      <trkpt lat="44.57995" lon="-0.23315">
        <ele>71.10546875</ele>
        <time>2021-05-05T08:56:54Z</time>
      </trkpt>
      <trkpt lat="44.57992" lon="-0.233">
        <ele>71.7421875</ele>
        <time>2021-05-05T08:57:03Z</time>
      </trkpt>
      <trkpt lat="44.57989" lon="-0.23286">
        <ele>72.37890625</ele>
        <time>2021-05-05T08:57:12Z</time>
      </trkpt>
      <trkpt lat="44.57986" lon="-0.23271">
        <ele>72.91015625</ele>
        <time>2021-05-05T08:57:20Z</time>
      </trkpt>
      <trkpt lat="44.57982" lon="-0.23258">
        <ele>73.46875</ele>
        <time>2021-05-05T08:57:28Z</time>
      </trkpt>
      <trkpt lat="44.57978" lon="-0.23246">
        <ele>73.98828125</ele>
        <time>2021-05-05T08:57:37Z</time>
      </trkpt>
      <trkpt lat="44.57975" lon="-0.23234">
        <ele>74.390625</ele>
        <time>2021-05-05T08:57:49Z</time>
      </trkpt>
      <trkpt lat="44.57972" lon="-0.23221">
        <ele>74.7421875</ele>
        <time>2021-05-05T08:58:09Z</time>
      </trkpt>
      <trkpt lat="44.57969" lon="-0.23207">
        <ele>75.015625</ele>
        <time>2021-05-05T08:58:29Z</time>
      </trkpt>
      <trkpt lat="44.57966" lon="-0.23194">
        <ele>75.3125</ele>
        <time>2021-05-05T08:58:38Z</time>
      </trkpt>
      <trkpt lat="44.57963" lon="-0.23181">
        <ele>75.58984375</ele>
        <time>2021-05-05T08:58:46Z</time>
      </trkpt>
      <trkpt lat="44.57959" lon="-0.23168">
        <ele>75.8359375</ele>
        <time>2021-05-05T08:58:54Z</time>
      </trkpt>
      <trkpt lat="44.57957" lon="-0.23153">
        <ele>76.10546875</ele>
        <time>2021-05-05T08:59:03Z</time>
      </trkpt>
      <trkpt lat="44.57962" lon="-0.2314">
        <ele>76.921875</ele>
        <time>2021-05-05T08:59:11Z</time>
      </trkpt>
      <trkpt lat="44.5797" lon="-0.23133">
        <ele>77.515625</ele>
        <time>2021-05-05T08:59:19Z</time>
      </trkpt>
      <trkpt lat="44.57979" lon="-0.23128">
        <ele>78.0859375</ele>
        <time>2021-05-05T08:59:28Z</time>
      </trkpt>
      <trkpt lat="44.57989" lon="-0.23124">
        <ele>78.609375</ele>
        <time>2021-05-05T08:59:36Z</time>
      </trkpt>
      <trkpt lat="44.57997" lon="-0.23122">
        <ele>78.98046875</ele>
        <time>2021-05-05T08:59:43Z</time>
      </trkpt>
      <trkpt lat="44.58005" lon="-0.23114">
        <ele>79.76953125</ele>
        <time>2021-05-05T08:59:52Z</time>
      </trkpt>
      <trkpt lat="44.58015" lon="-0.23107">
        <ele>80.8984375</ele>
        <time>2021-05-05T09:00:01Z</time>
      </trkpt>
      <trkpt lat="44.58024" lon="-0.23104">
        <ele>81.7890625</ele>
        <time>2021-05-05T09:00:09Z</time>
      </trkpt>
      <trkpt lat="44.58034" lon="-0.23101">
        <ele>82.7578125</ele>
        <time>2021-05-05T09:00:18Z</time>
      </trkpt>
      <trkpt lat="44.58044" lon="-0.23097">
        <ele>83.75390625</ele>
        <time>2021-05-05T09:00:27Z</time>
      </trkpt>
      <trkpt lat="44.58053" lon="-0.23095">
        <ele>84.55859375</ele>
        <time>2021-05-05T09:00:35Z</time>
      </trkpt>
      <trkpt lat="44.58063" lon="-0.23092">
        <ele>85.5859375</ele>
        <time>2021-05-05T09:00:44Z</time>
      </trkpt>
      <trkpt lat="44.58072" lon="-0.23092">
        <ele>86.73828125</ele>
        <time>2021-05-05T09:00:52Z</time>
      </trkpt>
      <trkpt lat="44.58081" lon="-0.23086">
        <ele>88.12109375</ele>
        <time>2021-05-05T09:01:00Z</time>
      </trkpt>
      <trkpt lat="44.58087" lon="-0.23087">
        <ele>88.80078125</ele>
        <time>2021-05-05T09:01:17Z</time>
      </trkpt>
      <trkpt lat="44.58092" lon="-0.23085">
        <ele>89.5078125</ele>
        <time>2021-05-05T09:01:25Z</time>
      </trkpt>
      <trkpt lat="44.58101" lon="-0.23083">
        <ele>90.640625</ele>
        <time>2021-05-05T09:01:33Z</time>
      </trkpt>
      <trkpt lat="44.58112" lon="-0.2308">
        <ele>92.0546875</ele>
        <time>2021-05-05T09:01:40Z</time>
      </trkpt>
      <trkpt lat="44.58118" lon="-0.23078">
        <ele>92.77734375</ele>
        <time>2021-05-05T09:01:48Z</time>
      </trkpt>
      <trkpt lat="44.58128" lon="-0.23075">
        <ele>93.484375</ele>
        <time>2021-05-05T09:01:56Z</time>
      </trkpt>
      <trkpt lat="44.58137" lon="-0.23071">
        <ele>94.203125</ele>
        <time>2021-05-05T09:02:07Z</time>
      </trkpt>
      <trkpt lat="44.58149" lon="-0.23066">
        <ele>95.1171875</ele>
        <time>2021-05-05T09:02:16Z</time>
      </trkpt>
      <trkpt lat="44.58158" lon="-0.23061">
        <ele>95.73828125</ele>
        <time>2021-05-05T09:02:24Z</time>
      </trkpt>
      <trkpt lat="44.58168" lon="-0.23056">
        <ele>96.48828125</ele>
        <time>2021-05-05T09:02:32Z</time>
      </trkpt>
      <trkpt lat="44.58176" lon="-0.23052">
        <ele>96.5</ele>
        <time>2021-05-05T09:02:40Z</time>
      </trkpt>
      <trkpt lat="44.58184" lon="-0.23047">
        <ele>95.73046875</ele>
        <time>2021-05-05T09:02:48Z</time>
      </trkpt>
      <trkpt lat="44.58192" lon="-0.23042">
        <ele>94.875</ele>
        <time>2021-05-05T09:02:56Z</time>
      </trkpt>
      <trkpt lat="44.582" lon="-0.23038">
        <ele>94.16015625</ele>
        <time>2021-05-05T09:03:05Z</time>
      </trkpt>
      <trkpt lat="44.58208" lon="-0.23035">
        <ele>93.33984375</ele>
        <time>2021-05-05T09:03:16Z</time>
      </trkpt>
      <trkpt lat="44.58218" lon="-0.2303">
        <ele>92.33203125</ele>
        <time>2021-05-05T09:03:29Z</time>
      </trkpt>
      <trkpt lat="44.58225" lon="-0.23021">
        <ele>91.70703125</ele>
        <time>2021-05-05T09:03:40Z</time>
      </trkpt>
      <trkpt lat="44.58234" lon="-0.23015">
        <ele>90.296875</ele>
        <time>2021-05-05T09:03:52Z</time>
      </trkpt>
      <trkpt lat="44.58243" lon="-0.23009">
        <ele>88.59375</ele>
        <time>2021-05-05T09:04:02Z</time>
      </trkpt>
      <trkpt lat="44.58251" lon="-0.23">
        <ele>87.18359375</ele>
        <time>2021-05-05T09:04:12Z</time>
      </trkpt>
      <trkpt lat="44.58257" lon="-0.22988">
        <ele>86.2578125</ele>
        <time>2021-05-05T09:04:21Z</time>
      </trkpt>
      <trkpt lat="44.58262" lon="-0.22976">
        <ele>85.34765625</ele>
        <time>2021-05-05T09:04:30Z</time>
      </trkpt>
      <trkpt lat="44.58269" lon="-0.22966">
        <ele>84.1171875</ele>
        <time>2021-05-05T09:04:38Z</time>
      </trkpt>
      <trkpt lat="44.58276" lon="-0.22956">
        <ele>83.046875</ele>
        <time>2021-05-05T09:04:45Z</time>
      </trkpt>
      <trkpt lat="44.58282" lon="-0.22946">
        <ele>81.94140625</ele>
        <time>2021-05-05T09:04:53Z</time>
      </trkpt>
      <trkpt lat="44.58288" lon="-0.22936">
        <ele>81.02734375</ele>
        <time>2021-05-05T09:05:01Z</time>
      </trkpt>
      <trkpt lat="44.58295" lon="-0.22925">
        <ele>79.82421875</ele>
        <time>2021-05-05T09:05:09Z</time>
      </trkpt>
      <trkpt lat="44.58301" lon="-0.22915">
        <ele>78.55859375</ele>
        <time>2021-05-05T09:05:17Z</time>
      </trkpt>
      <trkpt lat="44.58308" lon="-0.22906">
        <ele>77.3515625</ele>
        <time>2021-05-05T09:05:25Z</time>
      </trkpt>
      <trkpt lat="44.58311" lon="-0.22894">
        <ele>76.734375</ele>
        <time>2021-05-05T09:06:27Z</time>
      </trkpt>
      <trkpt lat="44.58317" lon="-0.22882">
        <ele>75.796875</ele>
        <time>2021-05-05T09:06:37Z</time>
      </trkpt>
      <trkpt lat="44.58322" lon="-0.2287">
        <ele>74.875</ele>
        <time>2021-05-05T09:06:46Z</time>
      </trkpt>
      <trkpt lat="44.58328" lon="-0.22858">
        <ele>73.640625</ele>
        <time>2021-05-05T09:06:55Z</time>
      </trkpt>
      <trkpt lat="44.58334" lon="-0.22848">
        <ele>72.5078125</ele>
        <time>2021-05-05T09:07:03Z</time>
      </trkpt>
      <trkpt lat="44.5834" lon="-0.22835">
        <ele>71.54296875</ele>
        <time>2021-05-05T09:07:12Z</time>
      </trkpt>
      <trkpt lat="44.58345" lon="-0.22823">
        <ele>70.734375</ele>
        <time>2021-05-05T09:07:21Z</time>
      </trkpt>
      <trkpt lat="44.58349" lon="-0.22812">
        <ele>69.4609375</ele>
        <time>2021-05-05T09:07:29Z</time>
      </trkpt>
      <trkpt lat="44.58351" lon="-0.22798">
        <ele>67.97265625</ele>
        <time>2021-05-05T09:07:42Z</time>
      </trkpt>
      <trkpt lat="44.58355" lon="-0.22786">
        <ele>66.39453125</ele>
        <time>2021-05-05T09:07:50Z</time>
      </trkpt>
      <trkpt lat="44.58356" lon="-0.22772">
        <ele>64.8984375</ele>
        <time>2021-05-05T09:07:59Z</time>
      </trkpt>
      <trkpt lat="44.5836" lon="-0.22759">
        <ele>63.37890625</ele>
        <time>2021-05-05T09:08:08Z</time>
      </trkpt>
      <trkpt lat="44.58367" lon="-0.22751">
        <ele>62.0859375</ele>
        <time>2021-05-05T09:08:16Z</time>
      </trkpt>
      <trkpt lat="44.58375" lon="-0.22744">
        <ele>60.76953125</ele>
        <time>2021-05-05T09:08:26Z</time>
      </trkpt>
      <trkpt lat="44.58383" lon="-0.22736">
        <ele>59.32421875</ele>
        <time>2021-05-05T09:08:35Z</time>
      </trkpt>
      <trkpt lat="44.58393" lon="-0.22728">
        <ele>57.54296875</ele>
        <time>2021-05-05T09:08:44Z</time>
      </trkpt>
      <trkpt lat="44.58403" lon="-0.22719">
        <ele>56.16015625</ele>
        <time>2021-05-05T09:08:53Z</time>
      </trkpt>
      <trkpt lat="44.58412" lon="-0.22713">
        <ele>55.015625</ele>
        <time>2021-05-05T09:09:01Z</time>
      </trkpt>
      <trkpt lat="44.58422" lon="-0.22706">
        <ele>54.0234375</ele>
        <time>2021-05-05T09:09:10Z</time>
      </trkpt>
      <trkpt lat="44.58431" lon="-0.22703">
        <ele>53.69921875</ele>
        <time>2021-05-05T09:09:17Z</time>
      </trkpt>
      <trkpt lat="44.5844" lon="-0.22699">
        <ele>53.375</ele>
        <time>2021-05-05T09:09:25Z</time>
      </trkpt>
      <trkpt lat="44.58449" lon="-0.22695">
        <ele>53.03515625</ele>
        <time>2021-05-05T09:09:33Z</time>
      </trkpt>
      <trkpt lat="44.5846" lon="-0.22693">
        <ele>52.3125</ele>
        <time>2021-05-05T09:09:41Z</time>
      </trkpt>
      <trkpt lat="44.58469" lon="-0.22689">
        <ele>51.6484375</ele>
        <time>2021-05-05T09:09:49Z</time>
      </trkpt>
      <trkpt lat="44.58479" lon="-0.22685">
        <ele>50.93359375</ele>
        <time>2021-05-05T09:09:58Z</time>
      </trkpt>
      <trkpt lat="44.58489" lon="-0.22682">
        <ele>50.2109375</ele>
        <time>2021-05-05T09:10:06Z</time>
      </trkpt>
      <trkpt lat="44.58502" lon="-0.22681">
        <ele>49.2890625</ele>
        <time>2021-05-05T09:10:18Z</time>
      </trkpt>
      <trkpt lat="44.58517" lon="-0.22678">
        <ele>48.484375</ele>
        <time>2021-05-05T09:10:30Z</time>
      </trkpt>
      <trkpt lat="44.58528" lon="-0.22678">
        <ele>47.99609375</ele>
        <time>2021-05-05T09:10:39Z</time>
      </trkpt>
      <trkpt lat="44.58538" lon="-0.22677">
        <ele>47.5625</ele>
        <time>2021-05-05T09:10:48Z</time>
      </trkpt>
      <trkpt lat="44.58548" lon="-0.22676">
        <ele>47.140625</ele>
        <time>2021-05-05T09:10:57Z</time>
      </trkpt>
      <trkpt lat="44.58558" lon="-0.22678">
        <ele>46.68359375</ele>
        <time>2021-05-05T09:11:05Z</time>
      </trkpt>
      <trkpt lat="44.58568" lon="-0.22686">
        <ele>46.7265625</ele>
        <time>2021-05-05T09:11:15Z</time>
      </trkpt>
      <trkpt lat="44.58575" lon="-0.22699">
        <ele>46.75</ele>
        <time>2021-05-05T09:11:25Z</time>
      </trkpt>
      <trkpt lat="44.58583" lon="-0.22709">
        <ele>46.8046875</ele>
        <time>2021-05-05T09:11:36Z</time>
      </trkpt>
      <trkpt lat="44.58595" lon="-0.22704">
        <ele>47.390625</ele>
        <time>2021-05-05T09:11:50Z</time>
      </trkpt>
      <trkpt lat="44.58608" lon="-0.22703">
        <ele>47.91796875</ele>
        <time>2021-05-05T09:11:59Z</time>
      </trkpt>
      <trkpt lat="44.58619" lon="-0.22703">
        <ele>48.5234375</ele>
        <time>2021-05-05T09:12:07Z</time>
      </trkpt>
      <trkpt lat="44.58629" lon="-0.22704">
        <ele>49.3515625</ele>
        <time>2021-05-05T09:12:16Z</time>
      </trkpt>
      <trkpt lat="44.58625" lon="-0.22713">
        <ele>48.58984375</ele>
        <time>2021-05-05T09:12:25Z</time>
      </trkpt>
      <trkpt lat="44.58616" lon="-0.22717">
        <ele>47.6640625</ele>
        <time>2021-05-05T09:12:34Z</time>
      </trkpt>
      <trkpt lat="44.58605" lon="-0.22721">
        <ele>47.359375</ele>
        <time>2021-05-05T09:12:43Z</time>
      </trkpt>
      <trkpt lat="44.58604" lon="-0.22736">
        <ele>47.1171875</ele>
        <time>2021-05-05T09:12:53Z</time>
      </trkpt>
      <trkpt lat="44.58609" lon="-0.22751">
        <ele>46.7265625</ele>
        <time>2021-05-05T09:13:04Z</time>
      </trkpt>
      <trkpt lat="44.58618" lon="-0.22766">
        <ele>46.05078125</ele>
        <time>2021-05-05T09:13:18Z</time>
      </trkpt>
      <trkpt lat="44.58623" lon="-0.22781">
        <ele>46.12890625</ele>
        <time>2021-05-05T09:13:29Z</time>
      </trkpt>
      <trkpt lat="44.58627" lon="-0.22798">
        <ele>45.96875</ele>
        <time>2021-05-05T09:13:45Z</time>
      </trkpt>
      <trkpt lat="44.58633" lon="-0.2281">
        <ele>45.921875</ele>
        <time>2021-05-05T09:13:55Z</time>
      </trkpt>
      <trkpt lat="44.58638" lon="-0.22823">
        <ele>45.65234375</ele>
        <time>2021-05-05T09:14:06Z</time>
      </trkpt>
      <trkpt lat="44.58645" lon="-0.22837">
        <ele>45.39453125</ele>
        <time>2021-05-05T09:14:16Z</time>
      </trkpt>
      <trkpt lat="44.5865" lon="-0.2285">
        <ele>44.97265625</ele>
        <time>2021-05-05T09:14:26Z</time>
      </trkpt>
      <trkpt lat="44.58656" lon="-0.22864">
        <ele>44.484375</ele>
        <time>2021-05-05T09:14:35Z</time>
      </trkpt>
      <trkpt lat="44.58662" lon="-0.22881">
        <ele>43.7890625</ele>
        <time>2021-05-05T09:14:45Z</time>
      </trkpt>
      <trkpt lat="44.58668" lon="-0.22895">
        <ele>43.26953125</ele>
        <time>2021-05-05T09:14:55Z</time>
      </trkpt>
      <trkpt lat="44.58674" lon="-0.22909">
        <ele>42.84765625</ele>
        <time>2021-05-05T09:15:05Z</time>
      </trkpt>
      <trkpt lat="44.5868" lon="-0.22923">
        <ele>42.453125</ele>
        <time>2021-05-05T09:15:16Z</time>
      </trkpt>
      <trkpt lat="44.5869" lon="-0.22937">
        <ele>42.328125</ele>
        <time>2021-05-05T09:15:25Z</time>
      </trkpt>
      <trkpt lat="44.58701" lon="-0.22941">
        <ele>42.4140625</ele>
        <time>2021-05-05T09:15:34Z</time>
      </trkpt>
      <trkpt lat="44.58712" lon="-0.22945">
        <ele>42.40625</ele>
        <time>2021-05-05T09:15:42Z</time>
      </trkpt>
      <trkpt lat="44.58722" lon="-0.22949">
        <ele>42.32421875</ele>
        <time>2021-05-05T09:15:52Z</time>
      </trkpt>
      <trkpt lat="44.58732" lon="-0.22956">
        <ele>42.31640625</ele>
        <time>2021-05-05T09:16:04Z</time>
      </trkpt>
      <trkpt lat="44.58745" lon="-0.2296">
        <ele>42.81640625</ele>
        <time>2021-05-05T09:16:13Z</time>
      </trkpt>
      <trkpt lat="44.58753" lon="-0.22968">
        <ele>42.84765625</ele>
        <time>2021-05-05T09:16:38Z</time>
      </trkpt>
      <trkpt lat="44.58762" lon="-0.22979">
        <ele>42.6015625</ele>
        <time>2021-05-05T09:16:49Z</time>
      </trkpt>
      <trkpt lat="44.58771" lon="-0.22992">
        <ele>42.43359375</ele>
        <time>2021-05-05T09:17:01Z</time>
      </trkpt>
      <trkpt lat="44.5878" lon="-0.23001">
        <ele>42.37890625</ele>
        <time>2021-05-05T09:17:10Z</time>
      </trkpt>
      <trkpt lat="44.58789" lon="-0.23012">
        <ele>42.3359375</ele>
        <time>2021-05-05T09:17:20Z</time>
      </trkpt>
      <trkpt lat="44.58798" lon="-0.23023">
        <ele>42.20703125</ele>
        <time>2021-05-05T09:17:29Z</time>
      </trkpt>
      <trkpt lat="44.58807" lon="-0.23032">
        <ele>41.9765625</ele>
        <time>2021-05-05T09:17:38Z</time>
      </trkpt>
      <trkpt lat="44.58817" lon="-0.23034">
        <ele>42.125</ele>
        <time>2021-05-05T09:17:47Z</time>
      </trkpt>
      <trkpt lat="44.58826" lon="-0.23027">
        <ele>42.89453125</ele>
        <time>2021-05-05T09:17:55Z</time>
      </trkpt>
      <trkpt lat="44.58835" lon="-0.23017">
        <ele>44.0859375</ele>
        <time>2021-05-05T09:18:05Z</time>
      </trkpt>
      <trkpt lat="44.58845" lon="-0.23005">
        <ele>45.6171875</ele>
        <time>2021-05-05T09:18:19Z</time>
      </trkpt>
      <trkpt lat="44.58855" lon="-0.22995">
        <ele>46.99609375</ele>
        <time>2021-05-05T09:18:31Z</time>
      </trkpt>
      <trkpt lat="44.58864" lon="-0.22984">
        <ele>48.5546875</ele>
        <time>2021-05-05T09:18:43Z</time>
      </trkpt>
      <trkpt lat="44.58872" lon="-0.22974">
        <ele>49.88671875</ele>
        <time>2021-05-05T09:18:52Z</time>
      </trkpt>
      <trkpt lat="44.58882" lon="-0.22967">
        <ele>51.08984375</ele>
        <time>2021-05-05T09:19:02Z</time>
      </trkpt>
      <trkpt lat="44.58891" lon="-0.22958">
        <ele>52.375</ele>
        <time>2021-05-05T09:19:13Z</time>
      </trkpt>
      <trkpt lat="44.589" lon="-0.22949">
        <ele>53.3515625</ele>
        <time>2021-05-05T09:19:25Z</time>
      </trkpt>
      <trkpt lat="44.58909" lon="-0.22943">
        <ele>53.8984375</ele>
        <time>2021-05-05T09:19:37Z</time>
      </trkpt>
      <trkpt lat="44.58917" lon="-0.22945">
        <ele>53.78515625</ele>
        <time>2021-05-05T09:20:09Z</time>
      </trkpt>
      <trkpt lat="44.58923" lon="-0.22956">
        <ele>52.9296875</ele>
        <time>2021-05-05T09:20:19Z</time>
      </trkpt>
      <trkpt lat="44.58928" lon="-0.22969">
        <ele>51.98828125</ele>
        <time>2021-05-05T09:20:29Z</time>
      </trkpt>
      <trkpt lat="44.58934" lon="-0.22981">
        <ele>51.0859375</ele>
        <time>2021-05-05T09:20:42Z</time>
      </trkpt>
      <trkpt lat="44.58941" lon="-0.22999">
        <ele>50.046875</ele>
        <time>2021-05-05T09:20:53Z</time>
      </trkpt>
      <trkpt lat="44.58948" lon="-0.23014">
        <ele>49.39453125</ele>
        <time>2021-05-05T09:21:02Z</time>
      </trkpt>
      <trkpt lat="44.58954" lon="-0.23028">
        <ele>48.61328125</ele>
        <time>2021-05-05T09:21:11Z</time>
      </trkpt>
      <trkpt lat="44.58959" lon="-0.23038">
        <ele>47.82421875</ele>
        <time>2021-05-05T09:21:19Z</time>
      </trkpt>
      <trkpt lat="44.58966" lon="-0.23049">
        <ele>46.828125</ele>
        <time>2021-05-05T09:21:28Z</time>
      </trkpt>
      <trkpt lat="44.58972" lon="-0.2306">
        <ele>45.82421875</ele>
        <time>2021-05-05T09:21:37Z</time>
      </trkpt>
      <trkpt lat="44.58979" lon="-0.23068">
        <ele>45.0390625</ele>
        <time>2021-05-05T09:21:46Z</time>
      </trkpt>
      <trkpt lat="44.58989" lon="-0.23063">
        <ele>45.22265625</ele>
        <time>2021-05-05T09:21:55Z</time>
      </trkpt>
      <trkpt lat="44.59001" lon="-0.23057">
        <ele>45.2578125</ele>
        <time>2021-05-05T09:22:07Z</time>
      </trkpt>
      <trkpt lat="44.59013" lon="-0.23053">
        <ele>45.15625</ele>
        <time>2021-05-05T09:22:17Z</time>
      </trkpt>
      <trkpt lat="44.59024" lon="-0.23048">
        <ele>45.01953125</ele>
        <time>2021-05-05T09:22:25Z</time>
      </trkpt>
      <trkpt lat="44.59034" lon="-0.23042">
        <ele>44.91796875</ele>
        <time>2021-05-05T09:22:34Z</time>
      </trkpt>
      <trkpt lat="44.59044" lon="-0.23038">
        <ele>44.765625</ele>
        <time>2021-05-05T09:22:43Z</time>
      </trkpt>
      <trkpt lat="44.59055" lon="-0.23033">
        <ele>44.66796875</ele>
        <time>2021-05-05T09:22:54Z</time>
      </trkpt>
      <trkpt lat="44.59058" lon="-0.23018">
        <ele>45.3984375</ele>
        <time>2021-05-05T09:23:04Z</time>
      </trkpt>
      <trkpt lat="44.59054" lon="-0.23005">
        <ele>46.22265625</ele>
        <time>2021-05-05T09:23:14Z</time>
      </trkpt>
      <trkpt lat="44.59051" lon="-0.22988">
        <ele>47.23046875</ele>
        <time>2021-05-05T09:23:24Z</time>
      </trkpt>
      <trkpt lat="44.59055" lon="-0.22981">
        <ele>47.4609375</ele>
        <time>2021-05-05T09:23:34Z</time>
      </trkpt>
      <trkpt lat="44.5906" lon="-0.22992">
        <ele>46.68359375</ele>
        <time>2021-05-05T09:23:46Z</time>
      </trkpt>
      <trkpt lat="44.59065" lon="-0.23007">
        <ele>45.87890625</ele>
        <time>2021-05-05T09:23:57Z</time>
      </trkpt>
      <trkpt lat="44.59068" lon="-0.23022">
        <ele>45.125</ele>
        <time>2021-05-05T09:24:06Z</time>
      </trkpt>
      <trkpt lat="44.59073" lon="-0.23036">
        <ele>44.484375</ele>
        <time>2021-05-05T09:24:15Z</time>
      </trkpt>
      <trkpt lat="44.59078" lon="-0.23049">
        <ele>44.046875</ele>
        <time>2021-05-05T09:24:25Z</time>
      </trkpt>
      <trkpt lat="44.59082" lon="-0.23066">
        <ele>43.49609375</ele>
        <time>2021-05-05T09:24:36Z</time>
      </trkpt>
      <trkpt lat="44.59084" lon="-0.23084">
        <ele>42.88671875</ele>
        <time>2021-05-05T09:24:46Z</time>
      </trkpt>
      <trkpt lat="44.59089" lon="-0.231">
        <ele>42.28515625</ele>
        <time>2021-05-05T09:24:57Z</time>
      </trkpt>
      <trkpt lat="44.59093" lon="-0.23119">
        <ele>40.83203125</ele>
        <time>2021-05-05T09:25:08Z</time>
      </trkpt>
      <trkpt lat="44.59096" lon="-0.23133">
        <ele>39.79296875</ele>
        <time>2021-05-05T09:25:18Z</time>
      </trkpt>
      <trkpt lat="44.59101" lon="-0.23148">
        <ele>38.74609375</ele>
        <time>2021-05-05T09:25:27Z</time>
      </trkpt>
      <trkpt lat="44.59104" lon="-0.23165">
        <ele>37.59765625</ele>
        <time>2021-05-05T09:25:37Z</time>
      </trkpt>
      <trkpt lat="44.59107" lon="-0.23185">
        <ele>36.1875</ele>
        <time>2021-05-05T09:25:49Z</time>
      </trkpt>
      <trkpt lat="44.59113" lon="-0.23192">
        <ele>35.9453125</ele>
        <time>2021-05-05T09:27:27Z</time>
      </trkpt>
      <trkpt lat="44.59123" lon="-0.23191">
        <ele>36.03515625</ele>
        <time>2021-05-05T09:27:38Z</time>
      </trkpt>
      <trkpt lat="44.59133" lon="-0.23188">
        <ele>35.87109375</ele>
        <time>2021-05-05T09:27:49Z</time>
      </trkpt>
      <trkpt lat="44.59145" lon="-0.23183">
        <ele>35.765625</ele>
        <time>2021-05-05T09:28:00Z</time>
      </trkpt>
      <trkpt lat="44.59157" lon="-0.23173">
        <ele>36.046875</ele>
        <time>2021-05-05T09:28:13Z</time>
      </trkpt>
      <trkpt lat="44.59165" lon="-0.23164">
        <ele>36.42578125</ele>
        <time>2021-05-05T09:28:22Z</time>
      </trkpt>
      <trkpt lat="44.59171" lon="-0.23153">
        <ele>37.02734375</ele>
        <time>2021-05-05T09:28:31Z</time>
      </trkpt>
      <trkpt lat="44.59179" lon="-0.23148">
        <ele>36.8359375</ele>
        <time>2021-05-05T09:29:03Z</time>
      </trkpt>
      <trkpt lat="44.59183" lon="-0.23134">
        <ele>37.62890625</ele>
        <time>2021-05-05T09:29:13Z</time>
      </trkpt>
      <trkpt lat="44.59189" lon="-0.23124">
        <ele>38.015625</ele>
        <time>2021-05-05T09:29:21Z</time>
      </trkpt>
      <trkpt lat="44.59195" lon="-0.23112">
        <ele>38.53125</ele>
        <time>2021-05-05T09:29:30Z</time>
      </trkpt>
      <trkpt lat="44.59195" lon="-0.23098">
        <ele>39.89453125</ele>
        <time>2021-05-05T09:29:39Z</time>
      </trkpt>
      <trkpt lat="44.59202" lon="-0.23091">
        <ele>39.578125</ele>
        <time>2021-05-05T09:29:48Z</time>
      </trkpt>
      <trkpt lat="44.59212" lon="-0.23085">
        <ele>38.984375</ele>
        <time>2021-05-05T09:29:58Z</time>
      </trkpt>
      <trkpt lat="44.5922" lon="-0.23079">
        <ele>38.640625</ele>
        <time>2021-05-05T09:30:06Z</time>
      </trkpt>
      <trkpt lat="44.5922" lon="-0.23066">
        <ele>39.265625</ele>
        <time>2021-05-05T09:30:14Z</time>
      </trkpt>
      <trkpt lat="44.59221" lon="-0.23052">
        <ele>39.93359375</ele>
        <time>2021-05-05T09:30:22Z</time>
      </trkpt>
      <trkpt lat="44.5922" lon="-0.23038">
        <ele>40.51953125</ele>
        <time>2021-05-05T09:30:31Z</time>
      </trkpt>
      <trkpt lat="44.5922" lon="-0.23024">
        <ele>40.51171875</ele>
        <time>2021-05-05T09:30:40Z</time>
      </trkpt>
      <trkpt lat="44.59224" lon="-0.23012">
        <ele>40.2734375</ele>
        <time>2021-05-05T09:30:49Z</time>
      </trkpt>
      <trkpt lat="44.59233" lon="-0.2301">
        <ele>39.734375</ele>
        <time>2021-05-05T09:30:57Z</time>
      </trkpt>
      <trkpt lat="44.59242" lon="-0.23009">
        <ele>39.26953125</ele>
        <time>2021-05-05T09:31:05Z</time>
      </trkpt>
      <trkpt lat="44.59251" lon="-0.23008">
        <ele>38.8203125</ele>
        <time>2021-05-05T09:31:13Z</time>
      </trkpt>
      <trkpt lat="44.59254" lon="-0.22995">
        <ele>38.90234375</ele>
        <time>2021-05-05T09:31:23Z</time>
      </trkpt>
      <trkpt lat="44.59253" lon="-0.22982">
        <ele>39.1640625</ele>
        <time>2021-05-05T09:31:31Z</time>
      </trkpt>
      <trkpt lat="44.59252" lon="-0.22968">
        <ele>39.578125</ele>
        <time>2021-05-05T09:31:39Z</time>
      </trkpt>
      <trkpt lat="44.59252" lon="-0.22954">
        <ele>39.94921875</ele>
        <time>2021-05-05T09:31:47Z</time>
      </trkpt>
      <trkpt lat="44.59252" lon="-0.22941">
        <ele>40.27734375</ele>
        <time>2021-05-05T09:31:55Z</time>
      </trkpt>
      <trkpt lat="44.59255" lon="-0.22928">
        <ele>40.58203125</ele>
        <time>2021-05-05T09:32:04Z</time>
      </trkpt>
      <trkpt lat="44.5926" lon="-0.22916">
        <ele>40.9296875</ele>
        <time>2021-05-05T09:32:12Z</time>
      </trkpt>
      <trkpt lat="44.59263" lon="-0.22904">
        <ele>41.30859375</ele>
        <time>2021-05-05T09:32:26Z</time>
      </trkpt>
      <trkpt lat="44.59268" lon="-0.22891">
        <ele>41.6875</ele>
        <time>2021-05-05T09:32:35Z</time>
      </trkpt>
      <trkpt lat="44.59274" lon="-0.2288">
        <ele>41.96484375</ele>
        <time>2021-05-05T09:32:44Z</time>
      </trkpt>
      <trkpt lat="44.59283" lon="-0.22874">
        <ele>42.0625</ele>
        <time>2021-05-05T09:32:52Z</time>
      </trkpt>
      <trkpt lat="44.59293" lon="-0.22871">
        <ele>42.0234375</ele>
        <time>2021-05-05T09:33:00Z</time>
      </trkpt>
      <trkpt lat="44.59304" lon="-0.22869">
        <ele>41.95703125</ele>
        <time>2021-05-05T09:33:08Z</time>
      </trkpt>
      <trkpt lat="44.59313" lon="-0.22867">
        <ele>41.8671875</ele>
        <time>2021-05-05T09:33:15Z</time>
      </trkpt>
      <trkpt lat="44.59323" lon="-0.22865">
        <ele>41.8046875</ele>
        <time>2021-05-05T09:33:23Z</time>
      </trkpt>
      <trkpt lat="44.59332" lon="-0.22863">
        <ele>41.78125</ele>
        <time>2021-05-05T09:33:30Z</time>
      </trkpt>
      <trkpt lat="44.59342" lon="-0.2286">
        <ele>41.82421875</ele>
        <time>2021-05-05T09:33:37Z</time>
      </trkpt>
      <trkpt lat="44.59351" lon="-0.22857">
        <ele>42.125</ele>
        <time>2021-05-05T09:33:44Z</time>
      </trkpt>
      <trkpt lat="44.59359" lon="-0.22852">
        <ele>42.4453125</ele>
        <time>2021-05-05T09:33:51Z</time>
      </trkpt>
      <trkpt lat="44.59369" lon="-0.22849">
        <ele>42.703125</ele>
        <time>2021-05-05T09:33:59Z</time>
      </trkpt>
      <trkpt lat="44.59378" lon="-0.22847">
        <ele>42.88671875</ele>
        <time>2021-05-05T09:34:06Z</time>
      </trkpt>
      <trkpt lat="44.59388" lon="-0.22844">
        <ele>43.0703125</ele>
        <time>2021-05-05T09:34:13Z</time>
      </trkpt>
      <trkpt lat="44.59398" lon="-0.22842">
        <ele>43.03515625</ele>
        <time>2021-05-05T09:34:21Z</time>
      </trkpt>
      <trkpt lat="44.59407" lon="-0.22841">
        <ele>42.67578125</ele>
        <time>2021-05-05T09:34:28Z</time>
      </trkpt>
      <trkpt lat="44.59417" lon="-0.2284">
        <ele>42.31640625</ele>
        <time>2021-05-05T09:34:35Z</time>
      </trkpt>
      <trkpt lat="44.59427" lon="-0.22842">
        <ele>41.875</ele>
        <time>2021-05-05T09:34:43Z</time>
      </trkpt>
      <trkpt lat="44.59437" lon="-0.22842">
        <ele>41.51171875</ele>
        <time>2021-05-05T09:34:50Z</time>
      </trkpt>
      <trkpt lat="44.59446" lon="-0.22843">
        <ele>41.125</ele>
        <time>2021-05-05T09:34:57Z</time>
      </trkpt>
      <trkpt lat="44.59457" lon="-0.22843">
        <ele>40.29296875</ele>
        <time>2021-05-05T09:35:05Z</time>
      </trkpt>
      <trkpt lat="44.59466" lon="-0.22844">
        <ele>39.3359375</ele>
        <time>2021-05-05T09:35:12Z</time>
      </trkpt>
      <trkpt lat="44.59476" lon="-0.22844">
        <ele>38.375</ele>
        <time>2021-05-05T09:35:20Z</time>
      </trkpt>
      <trkpt lat="44.59485" lon="-0.22841">
        <ele>37.43359375</ele>
        <time>2021-05-05T09:35:29Z</time>
      </trkpt>
      <trkpt lat="44.59493" lon="-0.22833">
        <ele>36.54296875</ele>
        <time>2021-05-05T09:35:38Z</time>
      </trkpt>
      <trkpt lat="44.59499" lon="-0.22821">
        <ele>35.6484375</ele>
        <time>2021-05-05T09:35:48Z</time>
      </trkpt>
      <trkpt lat="44.59503" lon="-0.22804">
        <ele>35.51171875</ele>
        <time>2021-05-05T09:35:59Z</time>
      </trkpt>
      <trkpt lat="44.59503" lon="-0.22785">
        <ele>35.7890625</ele>
        <time>2021-05-05T09:36:09Z</time>
      </trkpt>
      <trkpt lat="44.59503" lon="-0.2277">
        <ele>35.9921875</ele>
        <time>2021-05-05T09:36:18Z</time>
      </trkpt>
      <trkpt lat="44.59502" lon="-0.22753">
        <ele>36.6875</ele>
        <time>2021-05-05T09:36:27Z</time>
      </trkpt>
      <trkpt lat="44.59502" lon="-0.22737">
        <ele>37.53125</ele>
        <time>2021-05-05T09:36:36Z</time>
      </trkpt>
      <trkpt lat="44.59508" lon="-0.22728">
        <ele>38.17578125</ele>
        <time>2021-05-05T09:36:45Z</time>
      </trkpt>
      <trkpt lat="44.59512" lon="-0.22735">
        <ele>38.12890625</ele>
        <time>2021-05-05T09:36:59Z</time>
      </trkpt>
      <trkpt lat="44.59518" lon="-0.22748">
        <ele>38.0078125</ele>
        <time>2021-05-05T09:37:09Z</time>
      </trkpt>
      <trkpt lat="44.59524" lon="-0.22762">
        <ele>37.79296875</ele>
        <time>2021-05-05T09:37:19Z</time>
      </trkpt>
      <trkpt lat="44.59529" lon="-0.22773">
        <ele>37.921875</ele>
        <time>2021-05-05T09:37:27Z</time>
      </trkpt>
      <trkpt lat="44.59534" lon="-0.22786">
        <ele>38.04296875</ele>
        <time>2021-05-05T09:37:35Z</time>
      </trkpt>
      <trkpt lat="44.5954" lon="-0.22796">
        <ele>38.19140625</ele>
        <time>2021-05-05T09:37:43Z</time>
      </trkpt>
      <trkpt lat="44.59549" lon="-0.22806">
        <ele>38.57421875</ele>
        <time>2021-05-05T09:37:52Z</time>
      </trkpt>
      <trkpt lat="44.59558" lon="-0.22816">
        <ele>38.95703125</ele>
        <time>2021-05-05T09:38:01Z</time>
      </trkpt>
      <trkpt lat="44.59568" lon="-0.22821">
        <ele>39.46875</ele>
        <time>2021-05-05T09:38:09Z</time>
      </trkpt>
      <trkpt lat="44.59577" lon="-0.22828">
        <ele>39.93359375</ele>
        <time>2021-05-05T09:38:19Z</time>
      </trkpt>
      <trkpt lat="44.59587" lon="-0.22836">
        <ele>40.41796875</ele>
        <time>2021-05-05T09:38:29Z</time>
      </trkpt>
      <trkpt lat="44.59592" lon="-0.22849">
        <ele>40.52734375</ele>
        <time>2021-05-05T09:38:38Z</time>
      </trkpt>
      <trkpt lat="44.59597" lon="-0.22861">
        <ele>40.6171875</ele>
        <time>2021-05-05T09:38:48Z</time>
      </trkpt>
      <trkpt lat="44.59604" lon="-0.22874">
        <ele>40.9140625</ele>
        <time>2021-05-05T09:38:58Z</time>
      </trkpt>
      <trkpt lat="44.5961" lon="-0.2289">
        <ele>40.40625</ele>
        <time>2021-05-05T09:39:09Z</time>
      </trkpt>
      <trkpt lat="44.59617" lon="-0.22896">
        <ele>40.51953125</ele>
        <time>2021-05-05T09:39:46Z</time>
      </trkpt>
      <trkpt lat="44.59625" lon="-0.22902">
        <ele>40.2890625</ele>
        <time>2021-05-05T09:39:55Z</time>
      </trkpt>
      <trkpt lat="44.59635" lon="-0.22905">
        <ele>40.34375</ele>
        <time>2021-05-05T09:40:04Z</time>
      </trkpt>
      <trkpt lat="44.59644" lon="-0.22906">
        <ele>40.58984375</ele>
        <time>2021-05-05T09:40:13Z</time>
      </trkpt>
      <trkpt lat="44.59654" lon="-0.22907">
        <ele>40.76171875</ele>
        <time>2021-05-05T09:40:22Z</time>
      </trkpt>
      <trkpt lat="44.59664" lon="-0.22907">
        <ele>41.02734375</ele>
        <time>2021-05-05T09:40:39Z</time>
      </trkpt>
      <trkpt lat="44.59669" lon="-0.22899">
        <ele>41.62890625</ele>
        <time>2021-05-05T09:40:57Z</time>
      </trkpt>
      <trkpt lat="44.59678" lon="-0.22888">
        <ele>42.19921875</ele>
        <time>2021-05-05T09:41:06Z</time>
      </trkpt>
      <trkpt lat="44.59685" lon="-0.22877">
        <ele>42.62890625</ele>
        <time>2021-05-05T09:41:16Z</time>
      </trkpt>
      <trkpt lat="44.59689" lon="-0.22871">
        <ele>42.76171875</ele>
        <time>2021-05-05T09:41:28Z</time>
      </trkpt>
      <trkpt lat="44.59697" lon="-0.22867">
        <ele>42.6796875</ele>
        <time>2021-05-05T09:41:40Z</time>
      </trkpt>
      <trkpt lat="44.59705" lon="-0.22861">
        <ele>42.640625</ele>
        <time>2021-05-05T09:41:58Z</time>
      </trkpt>
      <trkpt lat="44.59713" lon="-0.22857">
        <ele>42.58984375</ele>
        <time>2021-05-05T09:42:09Z</time>
      </trkpt>
      <trkpt lat="44.59721" lon="-0.22851">
        <ele>42.5390625</ele>
        <time>2021-05-05T09:42:36Z</time>
      </trkpt>
      <trkpt lat="44.59729" lon="-0.22848">
        <ele>42.33203125</ele>
        <time>2021-05-05T09:42:48Z</time>
      </trkpt>
      <trkpt lat="44.59738" lon="-0.22843">
        <ele>41.77734375</ele>
        <time>2021-05-05T09:42:58Z</time>
      </trkpt>
      <trkpt lat="44.59747" lon="-0.22837">
        <ele>41.265625</ele>
        <time>2021-05-05T09:43:18Z</time>
      </trkpt>
      <trkpt lat="44.59754" lon="-0.22831">
        <ele>40.88671875</ele>
        <time>2021-05-05T09:43:28Z</time>
      </trkpt>
      <trkpt lat="44.59763" lon="-0.22827">
        <ele>40.27734375</ele>
        <time>2021-05-05T09:43:38Z</time>
      </trkpt>
      <trkpt lat="44.59771" lon="-0.22823">
        <ele>39.77734375</ele>
        <time>2021-05-05T09:43:48Z</time>
      </trkpt>
      <trkpt lat="44.59778" lon="-0.22818">
        <ele>39.3828125</ele>
        <time>2021-05-05T09:43:58Z</time>
      </trkpt>
      <trkpt lat="44.59787" lon="-0.22814">
        <ele>38.9609375</ele>
        <time>2021-05-05T09:44:08Z</time>
      </trkpt>
      <trkpt lat="44.59794" lon="-0.22809">
        <ele>38.80859375</ele>
        <time>2021-05-05T09:44:18Z</time>
      </trkpt>
      <trkpt lat="44.59801" lon="-0.22807">
        <ele>38.4609375</ele>
        <time>2021-05-05T09:50:16Z</time>
      </trkpt>
      <trkpt lat="44.59807" lon="-0.22815">
        <ele>37.8359375</ele>
        <time>2021-05-05T10:02:35Z</time>
      </trkpt>
      <trkpt lat="44.59813" lon="-0.22822">
        <ele>37.3125</ele>
        <time>2021-05-05T10:02:48Z</time>
      </trkpt>
      <trkpt lat="44.59819" lon="-0.22832">
        <ele>36.65625</ele>
        <time>2021-05-05T10:04:18Z</time>
      </trkpt>
      <trkpt lat="44.59826" lon="-0.2284">
        <ele>35.99609375</ele>
        <time>2021-05-05T10:04:38Z</time>
      </trkpt>
      <trkpt lat="44.59832" lon="-0.22844">
        <ele>35.47265625</ele>
        <time>2021-05-05T10:04:47Z</time>
      </trkpt>
      <trkpt lat="44.59839" lon="-0.22844">
        <ele>35.0625</ele>
        <time>2021-05-05T10:04:57Z</time>
      </trkpt>
      <trkpt lat="44.59848" lon="-0.22839">
        <ele>34.796875</ele>
        <time>2021-05-05T10:05:07Z</time>
      </trkpt>
      <trkpt lat="44.59855" lon="-0.22833">
        <ele>34.59765625</ele>
        <time>2021-05-05T10:05:17Z</time>
      </trkpt>
      <trkpt lat="44.59862" lon="-0.22828">
        <ele>34.40625</ele>
        <time>2021-05-05T10:05:27Z</time>
      </trkpt>
      <trkpt lat="44.59867" lon="-0.22826">
        <ele>34.1953125</ele>
        <time>2021-05-05T10:05:42Z</time>
      </trkpt>
      <trkpt lat="44.59877" lon="-0.22819">
        <ele>33.92578125</ele>
        <time>2021-05-05T10:05:53Z</time>
      </trkpt>
      <trkpt lat="44.59887" lon="-0.22811">
        <ele>33.6640625</ele>
        <time>2021-05-05T10:06:04Z</time>
      </trkpt>
      <trkpt lat="44.59898" lon="-0.22803">
        <ele>33.4140625</ele>
        <time>2021-05-05T10:06:14Z</time>
      </trkpt>
      <trkpt lat="44.5991" lon="-0.22794">
        <ele>33.35546875</ele>
        <time>2021-05-05T10:06:24Z</time>
      </trkpt>
      <trkpt lat="44.59917" lon="-0.22795">
        <ele>33.0546875</ele>
        <time>2021-05-05T10:06:36Z</time>
      </trkpt>
      <trkpt lat="44.5993" lon="-0.22795">
        <ele>32.57421875</ele>
        <time>2021-05-05T10:06:52Z</time>
      </trkpt>
      <trkpt lat="44.59939" lon="-0.22794">
        <ele>32.2890625</ele>
        <time>2021-05-05T10:07:03Z</time>
      </trkpt>
      <trkpt lat="44.59945" lon="-0.2278">
        <ele>32.5625</ele>
        <time>2021-05-05T10:07:16Z</time>
      </trkpt>
      <trkpt lat="44.59952" lon="-0.22766">
        <ele>32.87109375</ele>
        <time>2021-05-05T10:07:27Z</time>
      </trkpt>
      <trkpt lat="44.5996" lon="-0.22755">
        <ele>33.0703125</ele>
        <time>2021-05-05T10:07:37Z</time>
      </trkpt>
      <trkpt lat="44.5997" lon="-0.22742">
        <ele>33.12109375</ele>
        <time>2021-05-05T10:07:46Z</time>
      </trkpt>
      <trkpt lat="44.59977" lon="-0.2273">
        <ele>33.1171875</ele>
        <time>2021-05-05T10:07:55Z</time>
      </trkpt>
      <trkpt lat="44.59982" lon="-0.22718">
        <ele>33.0859375</ele>
        <time>2021-05-05T10:08:04Z</time>
      </trkpt>
      <trkpt lat="44.59988" lon="-0.22704">
        <ele>33.09765625</ele>
        <time>2021-05-05T10:08:14Z</time>
      </trkpt>
      <trkpt lat="44.59994" lon="-0.22691">
        <ele>33.21875</ele>
        <time>2021-05-05T10:08:22Z</time>
      </trkpt>
      <trkpt lat="44.6" lon="-0.2268">
        <ele>33.24609375</ele>
        <time>2021-05-05T10:08:31Z</time>
      </trkpt>
      <trkpt lat="44.60006" lon="-0.22668">
        <ele>33.44140625</ele>
        <time>2021-05-05T10:08:41Z</time>
      </trkpt>
      <trkpt lat="44.60012" lon="-0.22655">
        <ele>33.81640625</ele>
        <time>2021-05-05T10:08:53Z</time>
      </trkpt>
      <trkpt lat="44.60017" lon="-0.22643">
        <ele>33.921875</ele>
        <time>2021-05-05T10:09:19Z</time>
      </trkpt>
      <trkpt lat="44.60022" lon="-0.22631">
        <ele>33.97265625</ele>
        <time>2021-05-05T10:09:27Z</time>
      </trkpt>
      <trkpt lat="44.60026" lon="-0.22618">
        <ele>34.015625</ele>
        <time>2021-05-05T10:09:35Z</time>
      </trkpt>
      <trkpt lat="44.60028" lon="-0.22605">
        <ele>34.08203125</ele>
        <time>2021-05-05T10:09:43Z</time>
      </trkpt>
      <trkpt lat="44.60032" lon="-0.22592">
        <ele>34.23046875</ele>
        <time>2021-05-05T10:09:51Z</time>
      </trkpt>
      <trkpt lat="44.60034" lon="-0.22577">
        <ele>34.8671875</ele>
        <time>2021-05-05T10:10:00Z</time>
      </trkpt>
      <trkpt lat="44.60035" lon="-0.22564">
        <ele>35.38671875</ele>
        <time>2021-05-05T10:10:08Z</time>
      </trkpt>
      <trkpt lat="44.60036" lon="-0.22551">
        <ele>35.94140625</ele>
        <time>2021-05-05T10:10:18Z</time>
      </trkpt>
      <trkpt lat="44.60036" lon="-0.22534">
        <ele>37.00390625</ele>
        <time>2021-05-05T10:10:30Z</time>
      </trkpt>
      <trkpt lat="44.60032" lon="-0.22519">
        <ele>38.546875</ele>
        <time>2021-05-05T10:10:40Z</time>
      </trkpt>
      <trkpt lat="44.60029" lon="-0.22506">
        <ele>39.86328125</ele>
        <time>2021-05-05T10:10:50Z</time>
      </trkpt>
      <trkpt lat="44.60024" lon="-0.22493">
        <ele>41.3125</ele>
        <time>2021-05-05T10:11:00Z</time>
      </trkpt>
      <trkpt lat="44.60019" lon="-0.22481">
        <ele>42.61328125</ele>
        <time>2021-05-05T10:11:11Z</time>
      </trkpt>
      <trkpt lat="44.60011" lon="-0.22471">
        <ele>43.73046875</ele>
        <time>2021-05-05T10:11:26Z</time>
      </trkpt>
      <trkpt lat="44.60018" lon="-0.22463">
        <ele>43.91796875</ele>
        <time>2021-05-05T10:11:35Z</time>
      </trkpt>
      <trkpt lat="44.60026" lon="-0.2246">
        <ele>43.546875</ele>
        <time>2021-05-05T10:11:43Z</time>
      </trkpt>
      <trkpt lat="44.60033" lon="-0.22451">
        <ele>43.6796875</ele>
        <time>2021-05-05T10:12:22Z</time>
      </trkpt>
      <trkpt lat="44.60042" lon="-0.22443">
        <ele>43.58984375</ele>
        <time>2021-05-05T10:12:33Z</time>
      </trkpt>
      <trkpt lat="44.6005" lon="-0.22437">
        <ele>43.35546875</ele>
        <time>2021-05-05T10:12:43Z</time>
      </trkpt>
      <trkpt lat="44.60061" lon="-0.22436">
        <ele>42.68359375</ele>
        <time>2021-05-05T10:12:52Z</time>
      </trkpt>
      <trkpt lat="44.60071" lon="-0.22433">
        <ele>42.3046875</ele>
        <time>2021-05-05T10:13:00Z</time>
      </trkpt>
      <trkpt lat="44.6008" lon="-0.22433">
        <ele>41.81640625</ele>
        <time>2021-05-05T10:13:08Z</time>
      </trkpt>
      <trkpt lat="44.60089" lon="-0.22431">
        <ele>41.42578125</ele>
        <time>2021-05-05T10:13:16Z</time>
      </trkpt>
      <trkpt lat="44.60099" lon="-0.2243">
        <ele>40.890625</ele>
        <time>2021-05-05T10:13:24Z</time>
      </trkpt>
      <trkpt lat="44.6011" lon="-0.22427">
        <ele>40.25</ele>
        <time>2021-05-05T10:13:33Z</time>
      </trkpt>
      <trkpt lat="44.60119" lon="-0.22425">
        <ele>39.59375</ele>
        <time>2021-05-05T10:13:42Z</time>
      </trkpt>
      <trkpt lat="44.60128" lon="-0.22427">
        <ele>38.82421875</ele>
        <time>2021-05-05T10:13:51Z</time>
      </trkpt>
      <trkpt lat="44.60137" lon="-0.22432">
        <ele>38.03515625</ele>
        <time>2021-05-05T10:14:00Z</time>
      </trkpt>
      <trkpt lat="44.60148" lon="-0.22435">
        <ele>37.0390625</ele>
        <time>2021-05-05T10:14:09Z</time>
      </trkpt>
      <trkpt lat="44.60157" lon="-0.22438">
        <ele>36.1640625</ele>
        <time>2021-05-05T10:14:18Z</time>
      </trkpt>
      <trkpt lat="44.60167" lon="-0.22434">
        <ele>35.359375</ele>
        <time>2021-05-05T10:14:28Z</time>
      </trkpt>
      <trkpt lat="44.6017" lon="-0.22433">
        <ele>35.125</ele>
        <time>2021-05-05T10:44:40Z</time>
      </trkpt>
      <trkpt lat="44.60178" lon="-0.2244">
        <ele>34.74609375</ele>
        <time>2021-05-05T10:44:56Z</time>
      </trkpt>
      <trkpt lat="44.60188" lon="-0.22452">
        <ele>34.4140625</ele>
        <time>2021-05-05T10:45:12Z</time>
      </trkpt>
      <trkpt lat="44.60197" lon="-0.22458">
        <ele>34.08984375</ele>
        <time>2021-05-05T10:45:32Z</time>
      </trkpt>
      <trkpt lat="44.60199" lon="-0.22446">
        <ele>34.0078125</ele>
        <time>2021-05-05T10:45:48Z</time>
      </trkpt>
      <trkpt lat="44.60197" lon="-0.22427">
        <ele>34.09765625</ele>
        <time>2021-05-05T10:46:01Z</time>
      </trkpt>
      <trkpt lat="44.60196" lon="-0.22412">
        <ele>34.26171875</ele>
        <time>2021-05-05T10:46:10Z</time>
      </trkpt>
      <trkpt lat="44.60191" lon="-0.22399">
        <ele>34.49609375</ele>
        <time>2021-05-05T10:46:19Z</time>
      </trkpt>
      <trkpt lat="44.60187" lon="-0.22383">
        <ele>34.68359375</ele>
        <time>2021-05-05T10:46:28Z</time>
      </trkpt>
      <trkpt lat="44.60179" lon="-0.22368">
        <ele>34.98046875</ele>
        <time>2021-05-05T10:46:38Z</time>
      </trkpt>
      <trkpt lat="44.60174" lon="-0.22353">
        <ele>35.34765625</ele>
        <time>2021-05-05T10:46:49Z</time>
      </trkpt>
      <trkpt lat="44.60167" lon="-0.22334">
        <ele>35.88671875</ele>
        <time>2021-05-05T10:46:58Z</time>
      </trkpt>
      <trkpt lat="44.60163" lon="-0.22317">
        <ele>36.26953125</ele>
        <time>2021-05-05T10:47:07Z</time>
      </trkpt>
      <trkpt lat="44.60159" lon="-0.22304">
        <ele>36.94921875</ele>
        <time>2021-05-05T10:47:15Z</time>
      </trkpt>
      <trkpt lat="44.60154" lon="-0.2229">
        <ele>37.58203125</ele>
        <time>2021-05-05T10:47:25Z</time>
      </trkpt>
      <trkpt lat="44.60149" lon="-0.22276">
        <ele>38.12109375</ele>
        <time>2021-05-05T10:47:46Z</time>
      </trkpt>
      <trkpt lat="44.60143" lon="-0.22263">
        <ele>38.546875</ele>
        <time>2021-05-05T10:48:04Z</time>
      </trkpt>
      <trkpt lat="44.60136" lon="-0.22247">
        <ele>39.578125</ele>
        <time>2021-05-05T10:48:15Z</time>
      </trkpt>
      <trkpt lat="44.60131" lon="-0.22233">
        <ele>40.51171875</ele>
        <time>2021-05-05T10:48:24Z</time>
      </trkpt>
      <trkpt lat="44.60124" lon="-0.22222">
        <ele>41.1640625</ele>
        <time>2021-05-05T10:48:32Z</time>
      </trkpt>
      <trkpt lat="44.60119" lon="-0.22211">
        <ele>41.87890625</ele>
        <time>2021-05-05T10:48:40Z</time>
      </trkpt>
      <trkpt lat="44.60113" lon="-0.222">
        <ele>42.5</ele>
        <time>2021-05-05T10:48:49Z</time>
      </trkpt>
      <trkpt lat="44.6011" lon="-0.22188">
        <ele>43.1484375</ele>
        <time>2021-05-05T10:48:58Z</time>
      </trkpt>
      <trkpt lat="44.60109" lon="-0.22176">
        <ele>43.89453125</ele>
        <time>2021-05-05T10:49:08Z</time>
      </trkpt>
      <trkpt lat="44.60118" lon="-0.22186">
        <ele>43.65234375</ele>
        <time>2021-05-05T10:49:20Z</time>
      </trkpt>
      <trkpt lat="44.60123" lon="-0.22202">
        <ele>42.6171875</ele>
        <time>2021-05-05T10:49:30Z</time>
      </trkpt>
      <trkpt lat="44.6013" lon="-0.22214">
        <ele>41.86328125</ele>
        <time>2021-05-05T10:49:38Z</time>
      </trkpt>
      <trkpt lat="44.60138" lon="-0.22219">
        <ele>41.68359375</ele>
        <time>2021-05-05T10:49:46Z</time>
      </trkpt>
      <trkpt lat="44.60146" lon="-0.22216">
        <ele>42.04296875</ele>
        <time>2021-05-05T10:49:53Z</time>
      </trkpt>
      <trkpt lat="44.60154" lon="-0.2221">
        <ele>42.57421875</ele>
        <time>2021-05-05T10:50:01Z</time>
      </trkpt>
      <trkpt lat="44.60163" lon="-0.22205">
        <ele>43.12890625</ele>
        <time>2021-05-05T10:50:10Z</time>
      </trkpt>
      <trkpt lat="44.60173" lon="-0.22199">
        <ele>43.63671875</ele>
        <time>2021-05-05T10:50:20Z</time>
      </trkpt>
      <trkpt lat="44.60182" lon="-0.22192">
        <ele>43.671875</ele>
        <time>2021-05-05T10:50:29Z</time>
      </trkpt>
      <trkpt lat="44.60192" lon="-0.22187">
        <ele>43.51953125</ele>
        <time>2021-05-05T10:50:38Z</time>
      </trkpt>
      <trkpt lat="44.60202" lon="-0.22182">
        <ele>43.3046875</ele>
        <time>2021-05-05T10:50:49Z</time>
      </trkpt>
      <trkpt lat="44.60212" lon="-0.22177">
        <ele>43</ele>
        <time>2021-05-05T10:50:57Z</time>
      </trkpt>
      <trkpt lat="44.60223" lon="-0.22172">
        <ele>42.5859375</ele>
        <time>2021-05-05T10:51:07Z</time>
      </trkpt>
      <trkpt lat="44.60226" lon="-0.22159">
        <ele>42.8359375</ele>
        <time>2021-05-05T10:51:21Z</time>
      </trkpt>
      <trkpt lat="44.60225" lon="-0.22146">
        <ele>43.26171875</ele>
        <time>2021-05-05T10:51:29Z</time>
      </trkpt>
      <trkpt lat="44.60225" lon="-0.22133">
        <ele>43.48828125</ele>
        <time>2021-05-05T10:51:37Z</time>
      </trkpt>
      <trkpt lat="44.60224" lon="-0.22119">
        <ele>43.8515625</ele>
        <time>2021-05-05T10:51:45Z</time>
      </trkpt>
      <trkpt lat="44.60224" lon="-0.22106">
        <ele>44.18359375</ele>
        <time>2021-05-05T10:51:53Z</time>
      </trkpt>
      <trkpt lat="44.60224" lon="-0.22093">
        <ele>44.421875</ele>
        <time>2021-05-05T10:52:01Z</time>
      </trkpt>
      <trkpt lat="44.60226" lon="-0.22079">
        <ele>44.7578125</ele>
        <time>2021-05-05T10:52:09Z</time>
      </trkpt>
      <trkpt lat="44.60226" lon="-0.22066">
        <ele>45.2578125</ele>
        <time>2021-05-05T10:52:17Z</time>
      </trkpt>
      <trkpt lat="44.60225" lon="-0.22053">
        <ele>45.87890625</ele>
        <time>2021-05-05T10:52:25Z</time>
      </trkpt>
      <trkpt lat="44.60224" lon="-0.2204">
        <ele>46.44921875</ele>
        <time>2021-05-05T10:52:33Z</time>
      </trkpt>
      <trkpt lat="44.60224" lon="-0.22027">
        <ele>47.1796875</ele>
        <time>2021-05-05T10:52:40Z</time>
      </trkpt>
      <trkpt lat="44.60225" lon="-0.22015">
        <ele>47.765625</ele>
        <time>2021-05-05T10:52:47Z</time>
      </trkpt>
      <trkpt lat="44.60224" lon="-0.22001">
        <ele>48.56640625</ele>
        <time>2021-05-05T10:52:55Z</time>
      </trkpt>
      <trkpt lat="44.60223" lon="-0.21988">
        <ele>49.3984375</ele>
        <time>2021-05-05T10:53:03Z</time>
      </trkpt>
      <trkpt lat="44.60221" lon="-0.21975">
        <ele>50.61328125</ele>
        <time>2021-05-05T10:53:12Z</time>
      </trkpt>
      <trkpt lat="44.60218" lon="-0.21963">
        <ele>51.7734375</ele>
        <time>2021-05-05T10:53:20Z</time>
      </trkpt>
      <trkpt lat="44.60217" lon="-0.21949">
        <ele>52.87109375</ele>
        <time>2021-05-05T10:53:30Z</time>
      </trkpt>
      <trkpt lat="44.60214" lon="-0.21935">
        <ele>54.16015625</ele>
        <time>2021-05-05T10:53:40Z</time>
      </trkpt>
      <trkpt lat="44.60213" lon="-0.2192">
        <ele>55.6328125</ele>
        <time>2021-05-05T10:53:49Z</time>
      </trkpt>
      <trkpt lat="44.60213" lon="-0.21905">
        <ele>56.97265625</ele>
        <time>2021-05-05T10:53:59Z</time>
      </trkpt>
      <trkpt lat="44.60212" lon="-0.2189">
        <ele>58.421875</ele>
        <time>2021-05-05T10:54:09Z</time>
      </trkpt>
      <trkpt lat="44.60211" lon="-0.21877">
        <ele>59.6953125</ele>
        <time>2021-05-05T10:54:18Z</time>
      </trkpt>
      <trkpt lat="44.60215" lon="-0.21865">
        <ele>60.36328125</ele>
        <time>2021-05-05T10:54:28Z</time>
      </trkpt>
      <trkpt lat="44.60216" lon="-0.21859">
        <ele>60.72265625</ele>
        <time>2021-05-05T10:54:51Z</time>
      </trkpt>
      <trkpt lat="44.60217" lon="-0.21857">
        <ele>60.84375</ele>
        <time>2021-05-05T11:20:45Z</time>
      </trkpt>
      <trkpt lat="44.60217" lon="-0.21854">
        <ele>61</ele>
        <time>2021-05-05T11:22:06Z</time>
      </trkpt>
      <trkpt lat="44.60217" lon="-0.21841">
        <ele>61.88671875</ele>
        <time>2021-05-05T11:22:16Z</time>
      </trkpt>
      <trkpt lat="44.60215" lon="-0.21829">
        <ele>62.8359375</ele>
        <time>2021-05-05T11:22:26Z</time>
      </trkpt>
      <trkpt lat="44.60214" lon="-0.21816">
        <ele>63.62890625</ele>
        <time>2021-05-05T11:22:35Z</time>
      </trkpt>
      <trkpt lat="44.60211" lon="-0.21804">
        <ele>64.1328125</ele>
        <time>2021-05-05T11:22:44Z</time>
      </trkpt>
      <trkpt lat="44.60209" lon="-0.21792">
        <ele>64.63671875</ele>
        <time>2021-05-05T11:22:52Z</time>
      </trkpt>
      <trkpt lat="44.60207" lon="-0.21779">
        <ele>65.18359375</ele>
        <time>2021-05-05T11:23:01Z</time>
      </trkpt>
      <trkpt lat="44.60206" lon="-0.21767">
        <ele>65.65234375</ele>
        <time>2021-05-05T11:23:10Z</time>
      </trkpt>
      <trkpt lat="44.60205" lon="-0.21754">
        <ele>65.99609375</ele>
        <time>2021-05-05T11:23:19Z</time>
      </trkpt>
      <trkpt lat="44.60203" lon="-0.2174">
        <ele>66.30859375</ele>
        <time>2021-05-05T11:23:28Z</time>
      </trkpt>
      <trkpt lat="44.60202" lon="-0.21726">
        <ele>66.5703125</ele>
        <time>2021-05-05T11:23:37Z</time>
      </trkpt>
      <trkpt lat="44.60201" lon="-0.21712">
        <ele>66.87890625</ele>
        <time>2021-05-05T11:23:46Z</time>
      </trkpt>
      <trkpt lat="44.602" lon="-0.21699">
        <ele>67.05078125</ele>
        <time>2021-05-05T11:23:54Z</time>
      </trkpt>
      <trkpt lat="44.60199" lon="-0.21685">
        <ele>67.23828125</ele>
        <time>2021-05-05T11:24:03Z</time>
      </trkpt>
      <trkpt lat="44.60197" lon="-0.21672">
        <ele>67.4140625</ele>
        <time>2021-05-05T11:24:11Z</time>
      </trkpt>
      <trkpt lat="44.60197" lon="-0.2167">
        <ele>67.47265625</ele>
        <time>2021-05-05T11:24:40Z</time>
      </trkpt>
      <trkpt lat="44.6019" lon="-0.21678">
        <ele>67.72265625</ele>
        <time>2021-05-05T11:24:50Z</time>
      </trkpt>
      <trkpt lat="44.6018" lon="-0.2168">
        <ele>68.13671875</ele>
        <time>2021-05-05T11:24:59Z</time>
      </trkpt>
      <trkpt lat="44.6017" lon="-0.21684">
        <ele>68.41015625</ele>
        <time>2021-05-05T11:25:08Z</time>
      </trkpt>
      <trkpt lat="44.6016" lon="-0.21688">
        <ele>67.98828125</ele>
        <time>2021-05-05T11:25:16Z</time>
      </trkpt>
      <trkpt lat="44.60151" lon="-0.2169">
        <ele>67.61328125</ele>
        <time>2021-05-05T11:25:24Z</time>
      </trkpt>
      <trkpt lat="44.60142" lon="-0.21693">
        <ele>67.234375</ele>
        <time>2021-05-05T11:25:32Z</time>
      </trkpt>
      <trkpt lat="44.60132" lon="-0.21696">
        <ele>66.80859375</ele>
        <time>2021-05-05T11:25:41Z</time>
      </trkpt>
      <trkpt lat="44.60123" lon="-0.21699">
        <ele>66.421875</ele>
        <time>2021-05-05T11:25:49Z</time>
      </trkpt>
      <trkpt lat="44.60112" lon="-0.21701">
        <ele>65.85546875</ele>
        <time>2021-05-05T11:25:58Z</time>
      </trkpt>
      <trkpt lat="44.60101" lon="-0.21703">
        <ele>64.99609375</ele>
        <time>2021-05-05T11:26:07Z</time>
      </trkpt>
      <trkpt lat="44.60091" lon="-0.21706">
        <ele>64.2578125</ele>
        <time>2021-05-05T11:26:15Z</time>
      </trkpt>
      <trkpt lat="44.60081" lon="-0.21708">
        <ele>63.5078125</ele>
        <time>2021-05-05T11:26:25Z</time>
      </trkpt>
      <trkpt lat="44.60073" lon="-0.21697">
        <ele>62.9765625</ele>
        <time>2021-05-05T11:26:35Z</time>
      </trkpt>
      <trkpt lat="44.60071" lon="-0.21683">
        <ele>62.8984375</ele>
        <time>2021-05-05T11:26:45Z</time>
      </trkpt>
      <trkpt lat="44.6007" lon="-0.21669">
        <ele>62.8359375</ele>
        <time>2021-05-05T11:26:54Z</time>
      </trkpt>
      <trkpt lat="44.60069" lon="-0.21655">
        <ele>62.77734375</ele>
        <time>2021-05-05T11:27:03Z</time>
      </trkpt>
      <trkpt lat="44.60061" lon="-0.21649">
        <ele>62.08203125</ele>
        <time>2021-05-05T11:27:12Z</time>
      </trkpt>
      <trkpt lat="44.60052" lon="-0.2165">
        <ele>60.890625</ele>
        <time>2021-05-05T11:27:20Z</time>
      </trkpt>
      <trkpt lat="44.60042" lon="-0.21648">
        <ele>59.71875</ele>
        <time>2021-05-05T11:27:29Z</time>
      </trkpt>
      <trkpt lat="44.60043" lon="-0.21635">
        <ele>59.7265625</ele>
        <time>2021-05-05T11:27:38Z</time>
      </trkpt>
      <trkpt lat="44.60043" lon="-0.21622">
        <ele>59.62890625</ele>
        <time>2021-05-05T11:27:46Z</time>
      </trkpt>
      <trkpt lat="44.60045" lon="-0.21609">
        <ele>59.796875</ele>
        <time>2021-05-05T11:27:54Z</time>
      </trkpt>
      <trkpt lat="44.60046" lon="-0.21596">
        <ele>59.9296875</ele>
        <time>2021-05-05T11:28:02Z</time>
      </trkpt>
      <trkpt lat="44.60046" lon="-0.21582">
        <ele>60.0625</ele>
        <time>2021-05-05T11:28:11Z</time>
      </trkpt>
      <trkpt lat="44.60044" lon="-0.2157">
        <ele>59.80078125</ele>
        <time>2021-05-05T11:28:20Z</time>
      </trkpt>
      <trkpt lat="44.60045" lon="-0.21556">
        <ele>59.94921875</ele>
        <time>2021-05-05T11:28:29Z</time>
      </trkpt>
      <trkpt lat="44.60046" lon="-0.21542">
        <ele>60.19140625</ele>
        <time>2021-05-05T11:28:38Z</time>
      </trkpt>
      <trkpt lat="44.60048" lon="-0.2153">
        <ele>60.44140625</ele>
        <time>2021-05-05T11:28:46Z</time>
      </trkpt>
      <trkpt lat="44.60048" lon="-0.21517">
        <ele>60.578125</ele>
        <time>2021-05-05T11:28:54Z</time>
      </trkpt>
      <trkpt lat="44.60049" lon="-0.21503">
        <ele>60.75390625</ele>
        <time>2021-05-05T11:29:03Z</time>
      </trkpt>
      <trkpt lat="44.6005" lon="-0.2149">
        <ele>60.8359375</ele>
        <time>2021-05-05T11:29:11Z</time>
      </trkpt>
      <trkpt lat="44.6005" lon="-0.21477">
        <ele>60.87109375</ele>
        <time>2021-05-05T11:29:19Z</time>
      </trkpt>
      <trkpt lat="44.60053" lon="-0.21465">
        <ele>61.17578125</ele>
        <time>2021-05-05T11:29:26Z</time>
      </trkpt>
      <trkpt lat="44.60053" lon="-0.21452">
        <ele>61.23046875</ele>
        <time>2021-05-05T11:29:34Z</time>
      </trkpt>
      <trkpt lat="44.60055" lon="-0.21438">
        <ele>61.453125</ele>
        <time>2021-05-05T11:29:42Z</time>
      </trkpt>
      <trkpt lat="44.60056" lon="-0.21425">
        <ele>61.7734375</ele>
        <time>2021-05-05T11:29:49Z</time>
      </trkpt>
      <trkpt lat="44.60057" lon="-0.21411">
        <ele>62.33984375</ele>
        <time>2021-05-05T11:29:57Z</time>
      </trkpt>
      <trkpt lat="44.60058" lon="-0.21398">
        <ele>62.9609375</ele>
        <time>2021-05-05T11:30:05Z</time>
      </trkpt>
      <trkpt lat="44.60059" lon="-0.21385">
        <ele>63.4921875</ele>
        <time>2021-05-05T11:30:13Z</time>
      </trkpt>
      <trkpt lat="44.60061" lon="-0.21373">
        <ele>64.1875</ele>
        <time>2021-05-05T11:30:20Z</time>
      </trkpt>
      <trkpt lat="44.60063" lon="-0.21363">
        <ele>64.96875</ele>
        <time>2021-05-05T11:30:35Z</time>
      </trkpt>
      <trkpt lat="44.60063" lon="-0.21349">
        <ele>65.76953125</ele>
        <time>2021-05-05T11:30:45Z</time>
      </trkpt>
      <trkpt lat="44.60064" lon="-0.21335">
        <ele>66.68359375</ele>
        <time>2021-05-05T11:30:54Z</time>
      </trkpt>
      <trkpt lat="44.60066" lon="-0.21322">
        <ele>67.578125</ele>
        <time>2021-05-05T11:31:02Z</time>
      </trkpt>
      <trkpt lat="44.60065" lon="-0.21309">
        <ele>68.42578125</ele>
        <time>2021-05-05T11:31:12Z</time>
      </trkpt>
      <trkpt lat="44.60064" lon="-0.21294">
        <ele>69.44140625</ele>
        <time>2021-05-05T11:31:22Z</time>
      </trkpt>
      <trkpt lat="44.6006" lon="-0.21283">
        <ele>69.62109375</ele>
        <time>2021-05-05T11:31:31Z</time>
      </trkpt>
      <trkpt lat="44.60051" lon="-0.21284">
        <ele>68.37890625</ele>
        <time>2021-05-05T11:31:40Z</time>
      </trkpt>
      <trkpt lat="44.60041" lon="-0.21286">
        <ele>66.93359375</ele>
        <time>2021-05-05T11:31:49Z</time>
      </trkpt>
      <trkpt lat="44.60032" lon="-0.21289">
        <ele>65.55078125</ele>
        <time>2021-05-05T11:31:58Z</time>
      </trkpt>
      <trkpt lat="44.60022" lon="-0.21293">
        <ele>64.12109375</ele>
        <time>2021-05-05T11:32:08Z</time>
      </trkpt>
      <trkpt lat="44.60012" lon="-0.21295">
        <ele>62.83984375</ele>
        <time>2021-05-05T11:32:16Z</time>
      </trkpt>
      <trkpt lat="44.60003" lon="-0.21298">
        <ele>61.5625</ele>
        <time>2021-05-05T11:32:25Z</time>
      </trkpt>
      <trkpt lat="44.59993" lon="-0.213">
        <ele>60.34375</ele>
        <time>2021-05-05T11:32:33Z</time>
      </trkpt>
      <trkpt lat="44.59983" lon="-0.21304">
        <ele>59.109375</ele>
        <time>2021-05-05T11:32:42Z</time>
      </trkpt>
      <trkpt lat="44.59973" lon="-0.21307">
        <ele>57.85546875</ele>
        <time>2021-05-05T11:32:51Z</time>
      </trkpt>
      <trkpt lat="44.59963" lon="-0.21311">
        <ele>56.66015625</ele>
        <time>2021-05-05T11:32:59Z</time>
      </trkpt>
      <trkpt lat="44.59953" lon="-0.21314">
        <ele>55.54296875</ele>
        <time>2021-05-05T11:33:07Z</time>
      </trkpt>
      <trkpt lat="44.59943" lon="-0.21315">
        <ele>55.07421875</ele>
        <time>2021-05-05T11:33:15Z</time>
      </trkpt>
      <trkpt lat="44.59937" lon="-0.21307">
        <ele>55.1328125</ele>
        <time>2021-05-05T11:33:23Z</time>
      </trkpt>
      <trkpt lat="44.59935" lon="-0.21293">
        <ele>55.234375</ele>
        <time>2021-05-05T11:33:32Z</time>
      </trkpt>
      <trkpt lat="44.59933" lon="-0.21281">
        <ele>55.28515625</ele>
        <time>2021-05-05T11:33:40Z</time>
      </trkpt>
      <trkpt lat="44.59929" lon="-0.21267">
        <ele>55.25</ele>
        <time>2021-05-05T11:33:48Z</time>
      </trkpt>
      <trkpt lat="44.59927" lon="-0.21254">
        <ele>55.49609375</ele>
        <time>2021-05-05T11:33:56Z</time>
      </trkpt>
      <trkpt lat="44.59924" lon="-0.21241">
        <ele>55.7578125</ele>
        <time>2021-05-05T11:34:04Z</time>
      </trkpt>
      <trkpt lat="44.59921" lon="-0.21228">
        <ele>55.9921875</ele>
        <time>2021-05-05T11:34:13Z</time>
      </trkpt>
      <trkpt lat="44.59912" lon="-0.21223">
        <ele>55.625</ele>
        <time>2021-05-05T11:34:27Z</time>
      </trkpt>
      <trkpt lat="44.59902" lon="-0.21219">
        <ele>55.23046875</ele>
        <time>2021-05-05T11:34:38Z</time>
      </trkpt>
      <trkpt lat="44.59892" lon="-0.21219">
        <ele>54.96484375</ele>
        <time>2021-05-05T11:34:46Z</time>
      </trkpt>
      <trkpt lat="44.59883" lon="-0.21216">
        <ele>55.8671875</ele>
        <time>2021-05-05T11:34:55Z</time>
      </trkpt>
      <trkpt lat="44.59874" lon="-0.21212">
        <ele>56.73046875</ele>
        <time>2021-05-05T11:35:03Z</time>
      </trkpt>
      <trkpt lat="44.59867" lon="-0.21204">
        <ele>57.63671875</ele>
        <time>2021-05-05T11:35:12Z</time>
      </trkpt>
      <trkpt lat="44.59859" lon="-0.21196">
        <ele>58.58203125</ele>
        <time>2021-05-05T11:35:22Z</time>
      </trkpt>
      <trkpt lat="44.59854" lon="-0.21186">
        <ele>59.42578125</ele>
        <time>2021-05-05T11:35:31Z</time>
      </trkpt>
      <trkpt lat="44.59846" lon="-0.21176">
        <ele>60.484375</ele>
        <time>2021-05-05T11:35:41Z</time>
      </trkpt>
      <trkpt lat="44.59837" lon="-0.21168">
        <ele>61.70703125</ele>
        <time>2021-05-05T11:35:51Z</time>
      </trkpt>
      <trkpt lat="44.59829" lon="-0.2116">
        <ele>63.109375</ele>
        <time>2021-05-05T11:36:01Z</time>
      </trkpt>
      <trkpt lat="44.5982" lon="-0.21157">
        <ele>64.546875</ele>
        <time>2021-05-05T11:36:12Z</time>
      </trkpt>
      <trkpt lat="44.59811" lon="-0.21153">
        <ele>65.9140625</ele>
        <time>2021-05-05T11:36:22Z</time>
      </trkpt>
      <trkpt lat="44.59801" lon="-0.21147">
        <ele>67.3203125</ele>
        <time>2021-05-05T11:36:32Z</time>
      </trkpt>
      <trkpt lat="44.59791" lon="-0.21141">
        <ele>68.87109375</ele>
        <time>2021-05-05T11:36:41Z</time>
      </trkpt>
      <trkpt lat="44.59781" lon="-0.21139">
        <ele>70.20703125</ele>
        <time>2021-05-05T11:36:51Z</time>
      </trkpt>
      <trkpt lat="44.59771" lon="-0.21132">
        <ele>71.44921875</ele>
        <time>2021-05-05T11:37:02Z</time>
      </trkpt>
      <trkpt lat="44.59761" lon="-0.21127">
        <ele>72.68359375</ele>
        <time>2021-05-05T11:37:12Z</time>
      </trkpt>
      <trkpt lat="44.59752" lon="-0.21121">
        <ele>74.01171875</ele>
        <time>2021-05-05T11:37:23Z</time>
      </trkpt>
      <trkpt lat="44.59743" lon="-0.21116">
        <ele>75.25</ele>
        <time>2021-05-05T11:37:32Z</time>
      </trkpt>
      <trkpt lat="44.59734" lon="-0.2111">
        <ele>76.62890625</ele>
        <time>2021-05-05T11:37:41Z</time>
      </trkpt>
      <trkpt lat="44.59726" lon="-0.21105">
        <ele>77.91796875</ele>
        <time>2021-05-05T11:37:50Z</time>
      </trkpt>
      <trkpt lat="44.59718" lon="-0.21096">
        <ele>79.13671875</ele>
        <time>2021-05-05T11:37:58Z</time>
      </trkpt>
      <trkpt lat="44.59711" lon="-0.21088">
        <ele>80.0234375</ele>
        <time>2021-05-05T11:38:06Z</time>
      </trkpt>
      <trkpt lat="44.59707" lon="-0.21078">
        <ele>80.50390625</ele>
        <time>2021-05-05T11:38:15Z</time>
      </trkpt>
      <trkpt lat="44.59697" lon="-0.21075">
        <ele>81.79296875</ele>
        <time>2021-05-05T11:38:31Z</time>
      </trkpt>
      <trkpt lat="44.59689" lon="-0.21068">
        <ele>82.81640625</ele>
        <time>2021-05-05T11:38:47Z</time>
      </trkpt>
      <trkpt lat="44.5968" lon="-0.21061">
        <ele>83.91796875</ele>
        <time>2021-05-05T11:38:57Z</time>
      </trkpt>
      <trkpt lat="44.59671" lon="-0.21058">
        <ele>85.0625</ele>
        <time>2021-05-05T11:39:06Z</time>
      </trkpt>
      <trkpt lat="44.59661" lon="-0.21056">
        <ele>86.04296875</ele>
        <time>2021-05-05T11:39:16Z</time>
      </trkpt>
      <trkpt lat="44.59652" lon="-0.21058">
        <ele>86.9921875</ele>
        <time>2021-05-05T11:39:25Z</time>
      </trkpt>
      <trkpt lat="44.59642" lon="-0.21058">
        <ele>87.98046875</ele>
        <time>2021-05-05T11:39:35Z</time>
      </trkpt>
      <trkpt lat="44.59631" lon="-0.21055">
        <ele>89.01171875</ele>
        <time>2021-05-05T11:39:46Z</time>
      </trkpt>
      <trkpt lat="44.5962" lon="-0.21053">
        <ele>89.9609375</ele>
        <time>2021-05-05T11:39:57Z</time>
      </trkpt>
      <trkpt lat="44.59611" lon="-0.21058">
        <ele>91.078125</ele>
        <time>2021-05-05T11:40:08Z</time>
      </trkpt>
      <trkpt lat="44.59601" lon="-0.21061">
        <ele>92.4375</ele>
        <time>2021-05-05T11:40:18Z</time>
      </trkpt>
      <trkpt lat="44.59591" lon="-0.21062">
        <ele>93.68359375</ele>
        <time>2021-05-05T11:40:28Z</time>
      </trkpt>
      <trkpt lat="44.59581" lon="-0.21063">
        <ele>95.01953125</ele>
        <time>2021-05-05T11:40:37Z</time>
      </trkpt>
      <trkpt lat="44.5957" lon="-0.21067">
        <ele>96.5078125</ele>
        <time>2021-05-05T11:40:47Z</time>
      </trkpt>
      <trkpt lat="44.5956" lon="-0.21071">
        <ele>98.0546875</ele>
        <time>2021-05-05T11:40:56Z</time>
      </trkpt>
      <trkpt lat="44.5955" lon="-0.21075">
        <ele>99.5078125</ele>
        <time>2021-05-05T11:41:05Z</time>
      </trkpt>
      <trkpt lat="44.5954" lon="-0.21079">
        <ele>100.8359375</ele>
        <time>2021-05-05T11:41:13Z</time>
      </trkpt>
      <trkpt lat="44.59531" lon="-0.21083">
        <ele>102.0859375</ele>
        <time>2021-05-05T11:41:21Z</time>
      </trkpt>
      <trkpt lat="44.59522" lon="-0.21086">
        <ele>103.30078125</ele>
        <time>2021-05-05T11:41:29Z</time>
      </trkpt>
      <trkpt lat="44.59514" lon="-0.2109">
        <ele>104.49609375</ele>
        <time>2021-05-05T11:41:36Z</time>
      </trkpt>
      <trkpt lat="44.59505" lon="-0.21094">
        <ele>105.69140625</ele>
        <time>2021-05-05T11:41:44Z</time>
      </trkpt>
      <trkpt lat="44.59497" lon="-0.21097">
        <ele>105.65625</ele>
        <time>2021-05-05T11:41:58Z</time>
      </trkpt>
      <trkpt lat="44.59486" lon="-0.21099">
        <ele>105.30859375</ele>
        <time>2021-05-05T11:42:52Z</time>
      </trkpt>
      <trkpt lat="44.59476" lon="-0.21101">
        <ele>104.84375</ele>
        <time>2021-05-05T11:43:12Z</time>
      </trkpt>
      <trkpt lat="44.59465" lon="-0.21104">
        <ele>104.3046875</ele>
        <time>2021-05-05T11:43:21Z</time>
      </trkpt>
      <trkpt lat="44.59455" lon="-0.21106">
        <ele>103.8046875</ele>
        <time>2021-05-05T11:43:32Z</time>
      </trkpt>
      <trkpt lat="44.59445" lon="-0.21105">
        <ele>103.0859375</ele>
        <time>2021-05-05T11:43:43Z</time>
      </trkpt>
      <trkpt lat="44.59436" lon="-0.21103">
        <ele>102.0546875</ele>
        <time>2021-05-05T11:43:51Z</time>
      </trkpt>
      <trkpt lat="44.59427" lon="-0.21099">
        <ele>101.13671875</ele>
        <time>2021-05-05T11:44:01Z</time>
      </trkpt>
      <trkpt lat="44.59419" lon="-0.21092">
        <ele>100.4609375</ele>
        <time>2021-05-05T11:44:12Z</time>
      </trkpt>
      <trkpt lat="44.5941" lon="-0.21083">
        <ele>100.10546875</ele>
        <time>2021-05-05T11:44:24Z</time>
      </trkpt>
      <trkpt lat="44.594" lon="-0.21074">
        <ele>99.7109375</ele>
        <time>2021-05-05T11:44:34Z</time>
      </trkpt>
      <trkpt lat="44.59392" lon="-0.21064">
        <ele>99.94140625</ele>
        <time>2021-05-05T11:44:42Z</time>
      </trkpt>
      <trkpt lat="44.59384" lon="-0.21057">
        <ele>99.96875</ele>
        <time>2021-05-05T11:44:51Z</time>
      </trkpt>
      <trkpt lat="44.59375" lon="-0.21052">
        <ele>99.68359375</ele>
        <time>2021-05-05T11:45:00Z</time>
      </trkpt>
      <trkpt lat="44.59366" lon="-0.21047">
        <ele>99.5078125</ele>
        <time>2021-05-05T11:45:08Z</time>
      </trkpt>
      <trkpt lat="44.59355" lon="-0.21043">
        <ele>99.23828125</ele>
        <time>2021-05-05T11:45:16Z</time>
      </trkpt>
      <trkpt lat="44.59347" lon="-0.2104">
        <ele>98.9375</ele>
        <time>2021-05-05T11:45:28Z</time>
      </trkpt>
      <trkpt lat="44.59337" lon="-0.21035">
        <ele>98.80078125</ele>
        <time>2021-05-05T11:45:36Z</time>
      </trkpt>
      <trkpt lat="44.59328" lon="-0.2103">
        <ele>99.02734375</ele>
        <time>2021-05-05T11:45:44Z</time>
      </trkpt>
      <trkpt lat="44.59318" lon="-0.21026">
        <ele>99.19140625</ele>
        <time>2021-05-05T11:45:52Z</time>
      </trkpt>
      <trkpt lat="44.5931" lon="-0.2102">
        <ele>99.62109375</ele>
        <time>2021-05-05T11:45:59Z</time>
      </trkpt>
      <trkpt lat="44.59301" lon="-0.21017">
        <ele>99.6953125</ele>
        <time>2021-05-05T11:46:06Z</time>
      </trkpt>
      <trkpt lat="44.59291" lon="-0.21014">
        <ele>99.8203125</ele>
        <time>2021-05-05T11:46:14Z</time>
      </trkpt>
      <trkpt lat="44.59281" lon="-0.21012">
        <ele>99.8359375</ele>
        <time>2021-05-05T11:46:22Z</time>
      </trkpt>
      <trkpt lat="44.59271" lon="-0.21009">
        <ele>99.87890625</ele>
        <time>2021-05-05T11:46:30Z</time>
      </trkpt>
      <trkpt lat="44.5926" lon="-0.21006">
        <ele>99.97265625</ele>
        <time>2021-05-05T11:46:39Z</time>
      </trkpt>
      <trkpt lat="44.5925" lon="-0.21001">
        <ele>100.16015625</ele>
        <time>2021-05-05T11:46:47Z</time>
      </trkpt>
      <trkpt lat="44.59239" lon="-0.20997">
        <ele>100.33984375</ele>
        <time>2021-05-05T11:46:56Z</time>
      </trkpt>
      <trkpt lat="44.59229" lon="-0.20994">
        <ele>100.265625</ele>
        <time>2021-05-05T11:47:04Z</time>
      </trkpt>
      <trkpt lat="44.59219" lon="-0.20996">
        <ele>100.140625</ele>
        <time>2021-05-05T11:47:12Z</time>
      </trkpt>
      <trkpt lat="44.59208" lon="-0.20998">
        <ele>100.1640625</ele>
        <time>2021-05-05T11:47:20Z</time>
      </trkpt>
      <trkpt lat="44.59198" lon="-0.20995">
        <ele>100.640625</ele>
        <time>2021-05-05T11:47:28Z</time>
      </trkpt>
      <trkpt lat="44.59188" lon="-0.20992">
        <ele>101.109375</ele>
        <time>2021-05-05T11:47:37Z</time>
      </trkpt>
      <trkpt lat="44.59178" lon="-0.20991">
        <ele>101.4765625</ele>
        <time>2021-05-05T11:47:45Z</time>
      </trkpt>
      <trkpt lat="44.59166" lon="-0.20989">
        <ele>102.09765625</ele>
        <time>2021-05-05T11:47:53Z</time>
      </trkpt>
      <trkpt lat="44.59156" lon="-0.20989">
        <ele>102.6796875</ele>
        <time>2021-05-05T11:48:02Z</time>
      </trkpt>
      <trkpt lat="44.59144" lon="-0.20988">
        <ele>103.34765625</ele>
        <time>2021-05-05T11:48:11Z</time>
      </trkpt>
      <trkpt lat="44.59134" lon="-0.20989">
        <ele>103.8515625</ele>
        <time>2021-05-05T11:48:19Z</time>
      </trkpt>
      <trkpt lat="44.59124" lon="-0.20988">
        <ele>104.47265625</ele>
        <time>2021-05-05T11:48:27Z</time>
      </trkpt>
      <trkpt lat="44.59114" lon="-0.20984">
        <ele>105.41796875</ele>
        <time>2021-05-05T11:48:35Z</time>
      </trkpt>
      <trkpt lat="44.59107" lon="-0.20973">
        <ele>106.58203125</ele>
        <time>2021-05-05T11:48:44Z</time>
      </trkpt>
      <trkpt lat="44.59099" lon="-0.20961">
        <ele>107.7265625</ele>
        <time>2021-05-05T11:48:52Z</time>
      </trkpt>
      <trkpt lat="44.59094" lon="-0.20949">
        <ele>108.51953125</ele>
        <time>2021-05-05T11:48:59Z</time>
      </trkpt>
      <trkpt lat="44.59088" lon="-0.20937">
        <ele>109.265625</ele>
        <time>2021-05-05T11:49:07Z</time>
      </trkpt>
      <trkpt lat="44.59084" lon="-0.20926">
        <ele>109.671875</ele>
        <time>2021-05-05T11:49:14Z</time>
      </trkpt>
      <trkpt lat="44.59081" lon="-0.20916">
        <ele>109.84375</ele>
        <time>2021-05-05T11:49:23Z</time>
      </trkpt>
      <trkpt lat="44.59072" lon="-0.20926">
        <ele>109.83984375</ele>
        <time>2021-05-05T11:49:44Z</time>
      </trkpt>
      <trkpt lat="44.59065" lon="-0.20934">
        <ele>109.87109375</ele>
        <time>2021-05-05T11:49:52Z</time>
      </trkpt>
      <trkpt lat="44.59056" lon="-0.20942">
        <ele>109.7578125</ele>
        <time>2021-05-05T11:50:01Z</time>
      </trkpt>
      <trkpt lat="44.59048" lon="-0.2095">
        <ele>109.58984375</ele>
        <time>2021-05-05T11:50:09Z</time>
      </trkpt>
      <trkpt lat="44.5904" lon="-0.20957">
        <ele>109.5078125</ele>
        <time>2021-05-05T11:50:17Z</time>
      </trkpt>
      <trkpt lat="44.5903" lon="-0.20964">
        <ele>109.5078125</ele>
        <time>2021-05-05T11:50:26Z</time>
      </trkpt>
      <trkpt lat="44.59022" lon="-0.20971">
        <ele>109.58203125</ele>
        <time>2021-05-05T11:50:34Z</time>
      </trkpt>
      <trkpt lat="44.59013" lon="-0.20977">
        <ele>109.734375</ele>
        <time>2021-05-05T11:50:42Z</time>
      </trkpt>
      <trkpt lat="44.59004" lon="-0.20983">
        <ele>109.9140625</ele>
        <time>2021-05-05T11:50:50Z</time>
      </trkpt>
      <trkpt lat="44.58995" lon="-0.20988">
        <ele>110.015625</ele>
        <time>2021-05-05T11:50:59Z</time>
      </trkpt>
      <trkpt lat="44.58985" lon="-0.20995">
        <ele>110.140625</ele>
        <time>2021-05-05T11:51:07Z</time>
      </trkpt>
      <trkpt lat="44.58976" lon="-0.21001">
        <ele>110.24609375</ele>
        <time>2021-05-05T11:51:15Z</time>
      </trkpt>
      <trkpt lat="44.58967" lon="-0.21007">
        <ele>110.35546875</ele>
        <time>2021-05-05T11:51:24Z</time>
      </trkpt>
      <trkpt lat="44.58958" lon="-0.21012">
        <ele>110.453125</ele>
        <time>2021-05-05T11:51:32Z</time>
      </trkpt>
      <trkpt lat="44.58947" lon="-0.21017">
        <ele>110.48828125</ele>
        <time>2021-05-05T11:51:40Z</time>
      </trkpt>
      <trkpt lat="44.58938" lon="-0.21022">
        <ele>110.4609375</ele>
        <time>2021-05-05T11:51:48Z</time>
      </trkpt>
      <trkpt lat="44.58929" lon="-0.21028">
        <ele>110.5234375</ele>
        <time>2021-05-05T11:51:56Z</time>
      </trkpt>
      <trkpt lat="44.5892" lon="-0.21025">
        <ele>110.34765625</ele>
        <time>2021-05-05T11:52:05Z</time>
      </trkpt>
      <trkpt lat="44.58916" lon="-0.21012">
        <ele>109.78125</ele>
        <time>2021-05-05T11:52:13Z</time>
      </trkpt>
      <trkpt lat="44.58908" lon="-0.21003">
        <ele>109.19140625</ele>
        <time>2021-05-05T11:52:30Z</time>
      </trkpt>
      <trkpt lat="44.58897" lon="-0.21001">
        <ele>108.80078125</ele>
        <time>2021-05-05T11:52:39Z</time>
      </trkpt>
      <trkpt lat="44.58888" lon="-0.21">
        <ele>108.64453125</ele>
        <time>2021-05-05T11:52:47Z</time>
      </trkpt>
      <trkpt lat="44.58879" lon="-0.21003">
        <ele>108.78515625</ele>
        <time>2021-05-05T11:52:55Z</time>
      </trkpt>
      <trkpt lat="44.5887" lon="-0.21007">
        <ele>108.90625</ele>
        <time>2021-05-05T11:53:03Z</time>
      </trkpt>
      <trkpt lat="44.58861" lon="-0.21008">
        <ele>108.88671875</ele>
        <time>2021-05-05T11:53:11Z</time>
      </trkpt>
      <trkpt lat="44.58852" lon="-0.21002">
        <ele>108.60546875</ele>
        <time>2021-05-05T11:53:20Z</time>
      </trkpt>
      <trkpt lat="44.58848" lon="-0.20991">
        <ele>108.13671875</ele>
        <time>2021-05-05T11:53:29Z</time>
      </trkpt>
      <trkpt lat="44.58845" lon="-0.20979">
        <ele>107.08984375</ele>
        <time>2021-05-05T11:53:38Z</time>
      </trkpt>
      <trkpt lat="44.58843" lon="-0.20965">
        <ele>105.64453125</ele>
        <time>2021-05-05T11:53:47Z</time>
      </trkpt>
      <trkpt lat="44.58838" lon="-0.20952">
        <ele>104.20703125</ele>
        <time>2021-05-05T11:53:55Z</time>
      </trkpt>
      <trkpt lat="44.58837" lon="-0.2094">
        <ele>102.984375</ele>
        <time>2021-05-05T11:54:03Z</time>
      </trkpt>
      <trkpt lat="44.58834" lon="-0.20927">
        <ele>101.75390625</ele>
        <time>2021-05-05T11:54:12Z</time>
      </trkpt>
      <trkpt lat="44.58829" lon="-0.20914">
        <ele>100.63671875</ele>
        <time>2021-05-05T11:54:21Z</time>
      </trkpt>
      <trkpt lat="44.58824" lon="-0.20901">
        <ele>99.515625</ele>
        <time>2021-05-05T11:54:30Z</time>
      </trkpt>
      <trkpt lat="44.58818" lon="-0.2089">
        <ele>98.66015625</ele>
        <time>2021-05-05T11:54:38Z</time>
      </trkpt>
      <trkpt lat="44.58812" lon="-0.20879">
        <ele>97.76953125</ele>
        <time>2021-05-05T11:54:46Z</time>
      </trkpt>
      <trkpt lat="44.58805" lon="-0.20869">
        <ele>96.91796875</ele>
        <time>2021-05-05T11:54:54Z</time>
      </trkpt>
      <trkpt lat="44.58798" lon="-0.2086">
        <ele>96.0625</ele>
        <time>2021-05-05T11:55:02Z</time>
      </trkpt>
      <trkpt lat="44.5879" lon="-0.20853">
        <ele>95.63671875</ele>
        <time>2021-05-05T11:55:10Z</time>
      </trkpt>
      <trkpt lat="44.58781" lon="-0.20859">
        <ele>96.90625</ele>
        <time>2021-05-05T11:55:19Z</time>
      </trkpt>
      <trkpt lat="44.58771" lon="-0.20865">
        <ele>97.72265625</ele>
        <time>2021-05-05T11:55:29Z</time>
      </trkpt>
      <trkpt lat="44.58764" lon="-0.20875">
        <ele>98.8671875</ele>
        <time>2021-05-05T11:55:37Z</time>
      </trkpt>
      <trkpt lat="44.58757" lon="-0.20886">
        <ele>100.00390625</ele>
        <time>2021-05-05T11:55:47Z</time>
      </trkpt>
      <trkpt lat="44.5875" lon="-0.20895">
        <ele>100.8125</ele>
        <time>2021-05-05T11:56:12Z</time>
      </trkpt>
      <trkpt lat="44.58738" lon="-0.20906">
        <ele>101.80078125</ele>
        <time>2021-05-05T11:56:22Z</time>
      </trkpt>
      <trkpt lat="44.58731" lon="-0.20914">
        <ele>102.453125</ele>
        <time>2021-05-05T11:56:30Z</time>
      </trkpt>
      <trkpt lat="44.58723" lon="-0.20925">
        <ele>102.77734375</ele>
        <time>2021-05-05T11:56:39Z</time>
      </trkpt>
      <trkpt lat="44.58716" lon="-0.20934">
        <ele>102.546875</ele>
        <time>2021-05-05T11:56:47Z</time>
      </trkpt>
      <trkpt lat="44.5871" lon="-0.20933">
        <ele>101.453125</ele>
        <time>2021-05-05T11:56:57Z</time>
      </trkpt>
      <trkpt lat="44.58705" lon="-0.20922">
        <ele>99.8125</ele>
        <time>2021-05-05T11:57:06Z</time>
      </trkpt>
      <trkpt lat="44.58698" lon="-0.20912">
        <ele>97.96875</ele>
        <time>2021-05-05T11:57:16Z</time>
      </trkpt>
      <trkpt lat="44.58692" lon="-0.20902">
        <ele>96.13671875</ele>
        <time>2021-05-05T11:57:26Z</time>
      </trkpt>
      <trkpt lat="44.58686" lon="-0.20893">
        <ele>94.41015625</ele>
        <time>2021-05-05T11:57:35Z</time>
      </trkpt>
      <trkpt lat="44.5868" lon="-0.20883">
        <ele>92.67578125</ele>
        <time>2021-05-05T11:57:45Z</time>
      </trkpt>
      <trkpt lat="44.58676" lon="-0.20872">
        <ele>91.265625</ele>
        <time>2021-05-05T11:58:39Z</time>
      </trkpt>
      <trkpt lat="44.58669" lon="-0.20863">
        <ele>89.75390625</ele>
        <time>2021-05-05T11:58:49Z</time>
      </trkpt>
      <trkpt lat="44.58664" lon="-0.20852">
        <ele>88.37890625</ele>
        <time>2021-05-05T11:58:58Z</time>
      </trkpt>
      <trkpt lat="44.58659" lon="-0.20841">
        <ele>86.91015625</ele>
        <time>2021-05-05T11:59:07Z</time>
      </trkpt>
      <trkpt lat="44.58653" lon="-0.20829">
        <ele>85.3515625</ele>
        <time>2021-05-05T11:59:16Z</time>
      </trkpt>
      <trkpt lat="44.58643" lon="-0.20829">
        <ele>83.7109375</ele>
        <time>2021-05-05T11:59:26Z</time>
      </trkpt>
      <trkpt lat="44.58633" lon="-0.20836">
        <ele>82.48046875</ele>
        <time>2021-05-05T11:59:35Z</time>
      </trkpt>
      <trkpt lat="44.58625" lon="-0.20841">
        <ele>81.3359375</ele>
        <time>2021-05-05T11:59:43Z</time>
      </trkpt>
      <trkpt lat="44.58615" lon="-0.20843">
        <ele>80.16796875</ele>
        <time>2021-05-05T11:59:51Z</time>
      </trkpt>
      <trkpt lat="44.58609" lon="-0.20833">
        <ele>79.28125</ele>
        <time>2021-05-05T11:59:59Z</time>
      </trkpt>
      <trkpt lat="44.58608" lon="-0.2082">
        <ele>78.53125</ele>
        <time>2021-05-05T12:00:07Z</time>
      </trkpt>
      <trkpt lat="44.58608" lon="-0.20806">
        <ele>78.1796875</ele>
        <time>2021-05-05T12:00:15Z</time>
      </trkpt>
      <trkpt lat="44.58605" lon="-0.20793">
        <ele>77.67578125</ele>
        <time>2021-05-05T12:00:23Z</time>
      </trkpt>
      <trkpt lat="44.58602" lon="-0.20782">
        <ele>77.10546875</ele>
        <time>2021-05-05T12:00:31Z</time>
      </trkpt>
      <trkpt lat="44.58596" lon="-0.20771">
        <ele>76.3125</ele>
        <time>2021-05-05T12:00:39Z</time>
      </trkpt>
      <trkpt lat="44.58589" lon="-0.2076">
        <ele>75.4140625</ele>
        <time>2021-05-05T12:00:47Z</time>
      </trkpt>
      <trkpt lat="44.58584" lon="-0.2075">
        <ele>74.59765625</ele>
        <time>2021-05-05T12:00:55Z</time>
      </trkpt>
      <trkpt lat="44.58578" lon="-0.20739">
        <ele>73.71875</ele>
        <time>2021-05-05T12:01:03Z</time>
      </trkpt>
      <trkpt lat="44.58573" lon="-0.20728">
        <ele>72.85546875</ele>
        <time>2021-05-05T12:01:11Z</time>
      </trkpt>
      <trkpt lat="44.58567" lon="-0.20717">
        <ele>71.87890625</ele>
        <time>2021-05-05T12:01:19Z</time>
      </trkpt>
      <trkpt lat="44.58561" lon="-0.20706">
        <ele>70.9609375</ele>
        <time>2021-05-05T12:01:27Z</time>
      </trkpt>
      <trkpt lat="44.58556" lon="-0.20695">
        <ele>70.69140625</ele>
        <time>2021-05-05T12:01:35Z</time>
      </trkpt>
      <trkpt lat="44.5855" lon="-0.20683">
        <ele>70.33203125</ele>
        <time>2021-05-05T12:01:43Z</time>
      </trkpt>
      <trkpt lat="44.58546" lon="-0.20671">
        <ele>69.9296875</ele>
        <time>2021-05-05T12:01:51Z</time>
      </trkpt>
      <trkpt lat="44.58542" lon="-0.20659">
        <ele>69.46484375</ele>
        <time>2021-05-05T12:01:59Z</time>
      </trkpt>
      <trkpt lat="44.58537" lon="-0.20647">
        <ele>69</ele>
        <time>2021-05-05T12:02:07Z</time>
      </trkpt>
      <trkpt lat="44.58532" lon="-0.20634">
        <ele>68.578125</ele>
        <time>2021-05-05T12:02:15Z</time>
      </trkpt>
      <trkpt lat="44.58527" lon="-0.20622">
        <ele>68.0703125</ele>
        <time>2021-05-05T12:02:23Z</time>
      </trkpt>
      <trkpt lat="44.58523" lon="-0.2061">
        <ele>67.52734375</ele>
        <time>2021-05-05T12:02:31Z</time>
      </trkpt>
      <trkpt lat="44.58519" lon="-0.20598">
        <ele>66.92578125</ele>
        <time>2021-05-05T12:02:39Z</time>
      </trkpt>
      <trkpt lat="44.58514" lon="-0.20586">
        <ele>66.11328125</ele>
        <time>2021-05-05T12:02:47Z</time>
      </trkpt>
      <trkpt lat="44.58509" lon="-0.20573">
        <ele>65.33984375</ele>
        <time>2021-05-05T12:02:55Z</time>
      </trkpt>
      <trkpt lat="44.58505" lon="-0.2056">
        <ele>64.6328125</ele>
        <time>2021-05-05T12:03:03Z</time>
      </trkpt>
      <trkpt lat="44.585" lon="-0.20549">
        <ele>64.23046875</ele>
        <time>2021-05-05T12:03:11Z</time>
      </trkpt>
      <trkpt lat="44.58496" lon="-0.20536">
        <ele>63.71875</ele>
        <time>2021-05-05T12:03:19Z</time>
      </trkpt>
      <trkpt lat="44.58491" lon="-0.20524">
        <ele>63.21484375</ele>
        <time>2021-05-05T12:03:27Z</time>
      </trkpt>
      <trkpt lat="44.58488" lon="-0.20512">
        <ele>62.6875</ele>
        <time>2021-05-05T12:03:35Z</time>
      </trkpt>
      <trkpt lat="44.58487" lon="-0.205">
        <ele>62.1953125</ele>
        <time>2021-05-05T12:03:48Z</time>
      </trkpt>
      <trkpt lat="44.58479" lon="-0.20495">
        <ele>61.8515625</ele>
        <time>2021-05-05T12:03:57Z</time>
      </trkpt>
      <trkpt lat="44.58472" lon="-0.20502">
        <ele>62.0859375</ele>
        <time>2021-05-05T12:04:05Z</time>
      </trkpt>
      <trkpt lat="44.58466" lon="-0.20511">
        <ele>62.4140625</ele>
        <time>2021-05-05T12:04:13Z</time>
      </trkpt>
      <trkpt lat="44.58459" lon="-0.20519">
        <ele>62.75</ele>
        <time>2021-05-05T12:04:21Z</time>
      </trkpt>
      <trkpt lat="44.58453" lon="-0.20528">
        <ele>63.2109375</ele>
        <time>2021-05-05T12:04:29Z</time>
      </trkpt>
      <trkpt lat="44.58445" lon="-0.20535">
        <ele>63.66015625</ele>
        <time>2021-05-05T12:04:38Z</time>
      </trkpt>
      <trkpt lat="44.58437" lon="-0.20544">
        <ele>64.2890625</ele>
        <time>2021-05-05T12:04:47Z</time>
      </trkpt>
      <trkpt lat="44.58429" lon="-0.20554">
        <ele>64.875</ele>
        <time>2021-05-05T12:04:56Z</time>
      </trkpt>
      <trkpt lat="44.58421" lon="-0.20562">
        <ele>65.37109375</ele>
        <time>2021-05-05T12:05:04Z</time>
      </trkpt>
      <trkpt lat="44.58413" lon="-0.2057">
        <ele>65.80078125</ele>
        <time>2021-05-05T12:05:13Z</time>
      </trkpt>
      <trkpt lat="44.58404" lon="-0.20576">
        <ele>66.11328125</ele>
        <time>2021-05-05T12:05:21Z</time>
      </trkpt>
      <trkpt lat="44.58396" lon="-0.20583">
        <ele>66.4140625</ele>
        <time>2021-05-05T12:05:29Z</time>
      </trkpt>
      <trkpt lat="44.58387" lon="-0.20589">
        <ele>66.453125</ele>
        <time>2021-05-05T12:05:37Z</time>
      </trkpt>
      <trkpt lat="44.58378" lon="-0.20594">
        <ele>66.5</ele>
        <time>2021-05-05T12:05:45Z</time>
      </trkpt>
      <trkpt lat="44.58369" lon="-0.206">
        <ele>66.6484375</ele>
        <time>2021-05-05T12:05:53Z</time>
      </trkpt>
      <trkpt lat="44.58359" lon="-0.20605">
        <ele>66.94140625</ele>
        <time>2021-05-05T12:06:03Z</time>
      </trkpt>
      <trkpt lat="44.58349" lon="-0.20611">
        <ele>67.44921875</ele>
        <time>2021-05-05T12:06:12Z</time>
      </trkpt>
      <trkpt lat="44.58338" lon="-0.20618">
        <ele>68.19921875</ele>
        <time>2021-05-05T12:06:24Z</time>
      </trkpt>
      <trkpt lat="44.58328" lon="-0.20621">
        <ele>69.4609375</ele>
        <time>2021-05-05T12:06:34Z</time>
      </trkpt>
      <trkpt lat="44.58318" lon="-0.20626">
        <ele>70.85546875</ele>
        <time>2021-05-05T12:06:45Z</time>
      </trkpt>
      <trkpt lat="44.58307" lon="-0.2063">
        <ele>72.21484375</ele>
        <time>2021-05-05T12:06:56Z</time>
      </trkpt>
      <trkpt lat="44.58298" lon="-0.20636">
        <ele>73.4609375</ele>
        <time>2021-05-05T12:07:07Z</time>
      </trkpt>
      <trkpt lat="44.58289" lon="-0.20641">
        <ele>74.6015625</ele>
        <time>2021-05-05T12:07:18Z</time>
      </trkpt>
      <trkpt lat="44.58289" lon="-0.20656">
        <ele>75.74609375</ele>
        <time>2021-05-05T12:07:32Z</time>
      </trkpt>
      <trkpt lat="44.58291" lon="-0.20669">
        <ele>76.88671875</ele>
        <time>2021-05-05T12:07:42Z</time>
      </trkpt>
      <trkpt lat="44.58287" lon="-0.2068">
        <ele>78.0546875</ele>
        <time>2021-05-05T12:07:57Z</time>
      </trkpt>
      <trkpt lat="44.58287" lon="-0.20693">
        <ele>79.25390625</ele>
        <time>2021-05-05T12:08:05Z</time>
      </trkpt>
      <trkpt lat="44.58288" lon="-0.20706">
        <ele>80.41015625</ele>
        <time>2021-05-05T12:08:13Z</time>
      </trkpt>
      <trkpt lat="44.58287" lon="-0.20718">
        <ele>81.421875</ele>
        <time>2021-05-05T12:08:22Z</time>
      </trkpt>
      <trkpt lat="44.58279" lon="-0.20723">
        <ele>81.76171875</ele>
        <time>2021-05-05T12:08:32Z</time>
      </trkpt>
      <trkpt lat="44.58271" lon="-0.20721">
        <ele>81.3359375</ele>
        <time>2021-05-05T12:08:41Z</time>
      </trkpt>
      <trkpt lat="44.58262" lon="-0.20722">
        <ele>80.98828125</ele>
        <time>2021-05-05T12:08:50Z</time>
      </trkpt>
      <trkpt lat="44.58251" lon="-0.20722">
        <ele>80.59765625</ele>
        <time>2021-05-05T12:08:58Z</time>
      </trkpt>
      <trkpt lat="44.58242" lon="-0.20722">
        <ele>80.19921875</ele>
        <time>2021-05-05T12:09:06Z</time>
      </trkpt>
      <trkpt lat="44.58233" lon="-0.20722">
        <ele>79.85546875</ele>
        <time>2021-05-05T12:09:14Z</time>
      </trkpt>
      <trkpt lat="44.58223" lon="-0.20723">
        <ele>79.3203125</ele>
        <time>2021-05-05T12:09:23Z</time>
      </trkpt>
      <trkpt lat="44.58214" lon="-0.20722">
        <ele>78.6328125</ele>
        <time>2021-05-05T12:09:31Z</time>
      </trkpt>
      <trkpt lat="44.58204" lon="-0.20723">
        <ele>77.99609375</ele>
        <time>2021-05-05T12:09:39Z</time>
      </trkpt>
      <trkpt lat="44.58194" lon="-0.20722">
        <ele>77.2578125</ele>
        <time>2021-05-05T12:09:47Z</time>
      </trkpt>
      <trkpt lat="44.58186" lon="-0.20723">
        <ele>76.65234375</ele>
        <time>2021-05-05T12:09:55Z</time>
      </trkpt>
      <trkpt lat="44.58177" lon="-0.20723">
        <ele>76.05859375</ele>
        <time>2021-05-05T12:10:03Z</time>
      </trkpt>
      <trkpt lat="44.58167" lon="-0.20724">
        <ele>75.359375</ele>
        <time>2021-05-05T12:10:12Z</time>
      </trkpt>
      <trkpt lat="44.58158" lon="-0.20724">
        <ele>74.7421875</ele>
        <time>2021-05-05T12:10:20Z</time>
      </trkpt>
      <trkpt lat="44.58148" lon="-0.20724">
        <ele>73.9921875</ele>
        <time>2021-05-05T12:10:28Z</time>
      </trkpt>
      <trkpt lat="44.58138" lon="-0.20725">
        <ele>73.32421875</ele>
        <time>2021-05-05T12:10:36Z</time>
      </trkpt>
      <trkpt lat="44.58128" lon="-0.20725">
        <ele>72.640625</ele>
        <time>2021-05-05T12:10:45Z</time>
      </trkpt>
      <trkpt lat="44.58118" lon="-0.20726">
        <ele>72</ele>
        <time>2021-05-05T12:10:53Z</time>
      </trkpt>
      <trkpt lat="44.58109" lon="-0.20726">
        <ele>71.546875</ele>
        <time>2021-05-05T12:11:01Z</time>
      </trkpt>
      <trkpt lat="44.58099" lon="-0.20732">
        <ele>71.4609375</ele>
        <time>2021-05-05T12:11:10Z</time>
      </trkpt>
      <trkpt lat="44.58092" lon="-0.2074">
        <ele>71.484375</ele>
        <time>2021-05-05T12:11:25Z</time>
      </trkpt>
      <trkpt lat="44.58083" lon="-0.20742">
        <ele>71.1328125</ele>
        <time>2021-05-05T12:11:33Z</time>
      </trkpt>
      <trkpt lat="44.58073" lon="-0.20741">
        <ele>70.6640625</ele>
        <time>2021-05-05T12:11:41Z</time>
      </trkpt>
      <trkpt lat="44.58064" lon="-0.2074">
        <ele>70.1796875</ele>
        <time>2021-05-05T12:11:49Z</time>
      </trkpt>
      <trkpt lat="44.58054" lon="-0.20739">
        <ele>69.51171875</ele>
        <time>2021-05-05T12:11:57Z</time>
      </trkpt>
      <trkpt lat="44.58045" lon="-0.20733">
        <ele>68.69921875</ele>
        <time>2021-05-05T12:12:06Z</time>
      </trkpt>
      <trkpt lat="44.58038" lon="-0.20723">
        <ele>67.99609375</ele>
        <time>2021-05-05T12:12:15Z</time>
      </trkpt>
      <trkpt lat="44.58032" lon="-0.20713">
        <ele>67.44921875</ele>
        <time>2021-05-05T12:12:23Z</time>
      </trkpt>
      <trkpt lat="44.58023" lon="-0.20705">
        <ele>66.72265625</ele>
        <time>2021-05-05T12:12:31Z</time>
      </trkpt>
      <trkpt lat="44.58014" lon="-0.207">
        <ele>66.05859375</ele>
        <time>2021-05-05T12:12:45Z</time>
      </trkpt>
      <trkpt lat="44.58005" lon="-0.20696">
        <ele>65.47265625</ele>
        <time>2021-05-05T12:12:53Z</time>
      </trkpt>
      <trkpt lat="44.57996" lon="-0.20693">
        <ele>65.07421875</ele>
        <time>2021-05-05T12:13:01Z</time>
      </trkpt>
      <trkpt lat="44.57985" lon="-0.2069">
        <ele>64.69140625</ele>
        <time>2021-05-05T12:13:10Z</time>
      </trkpt>
      <trkpt lat="44.57976" lon="-0.2069">
        <ele>64.3984375</ele>
        <time>2021-05-05T12:13:18Z</time>
      </trkpt>
      <trkpt lat="44.57967" lon="-0.20689">
        <ele>64.09765625</ele>
        <time>2021-05-05T12:13:26Z</time>
      </trkpt>
      <trkpt lat="44.57957" lon="-0.20688">
        <ele>63.7890625</ele>
        <time>2021-05-05T12:13:34Z</time>
      </trkpt>
      <trkpt lat="44.57947" lon="-0.20689">
        <ele>63.4453125</ele>
        <time>2021-05-05T12:13:42Z</time>
      </trkpt>
      <trkpt lat="44.57937" lon="-0.20689">
        <ele>62.9296875</ele>
        <time>2021-05-05T12:13:50Z</time>
      </trkpt>
      <trkpt lat="44.57928" lon="-0.20689">
        <ele>62.40234375</ele>
        <time>2021-05-05T12:13:58Z</time>
      </trkpt>
      <trkpt lat="44.57918" lon="-0.20689">
        <ele>61.84765625</ele>
        <time>2021-05-05T12:14:06Z</time>
      </trkpt>
      <trkpt lat="44.57908" lon="-0.20689">
        <ele>61.3515625</ele>
        <time>2021-05-05T12:14:14Z</time>
      </trkpt>
      <trkpt lat="44.57899" lon="-0.20689">
        <ele>60.8359375</ele>
        <time>2021-05-05T12:14:22Z</time>
      </trkpt>
      <trkpt lat="44.57888" lon="-0.20692">
        <ele>60.21875</ele>
        <time>2021-05-05T12:14:31Z</time>
      </trkpt>
      <trkpt lat="44.57877" lon="-0.20694">
        <ele>59.51171875</ele>
        <time>2021-05-05T12:14:41Z</time>
      </trkpt>
      <trkpt lat="44.57867" lon="-0.20696">
        <ele>58.859375</ele>
        <time>2021-05-05T12:14:49Z</time>
      </trkpt>
      <trkpt lat="44.57856" lon="-0.20698">
        <ele>58.1484375</ele>
        <time>2021-05-05T12:14:58Z</time>
      </trkpt>
      <trkpt lat="44.57844" lon="-0.207">
        <ele>57.32421875</ele>
        <time>2021-05-05T12:15:08Z</time>
      </trkpt>
      <trkpt lat="44.57834" lon="-0.20704">
        <ele>56.49609375</ele>
        <time>2021-05-05T12:15:17Z</time>
      </trkpt>
      <trkpt lat="44.57828" lon="-0.20713">
        <ele>55.83203125</ele>
        <time>2021-05-05T12:15:31Z</time>
      </trkpt>
      <trkpt lat="44.57822" lon="-0.20726">
        <ele>54.94921875</ele>
        <time>2021-05-05T12:15:40Z</time>
      </trkpt>
      <trkpt lat="44.57817" lon="-0.20738">
        <ele>54.171875</ele>
        <time>2021-05-05T12:15:49Z</time>
      </trkpt>
      <trkpt lat="44.5781" lon="-0.20749">
        <ele>53.26953125</ele>
        <time>2021-05-05T12:15:58Z</time>
      </trkpt>
      <trkpt lat="44.57801" lon="-0.20756">
        <ele>52.4296875</ele>
        <time>2021-05-05T12:16:06Z</time>
      </trkpt>
      <trkpt lat="44.57792" lon="-0.20757">
        <ele>51.7421875</ele>
        <time>2021-05-05T12:16:15Z</time>
      </trkpt>
      <trkpt lat="44.57783" lon="-0.20764">
        <ele>50.9375</ele>
        <time>2021-05-05T12:16:23Z</time>
      </trkpt>
      <trkpt lat="44.57774" lon="-0.20771">
        <ele>50.16796875</ele>
        <time>2021-05-05T12:16:31Z</time>
      </trkpt>
      <trkpt lat="44.57765" lon="-0.20777">
        <ele>49.421875</ele>
        <time>2021-05-05T12:16:39Z</time>
      </trkpt>
      <trkpt lat="44.57756" lon="-0.20784">
        <ele>48.6640625</ele>
        <time>2021-05-05T12:16:47Z</time>
      </trkpt>
      <trkpt lat="44.57749" lon="-0.20792">
        <ele>47.9765625</ele>
        <time>2021-05-05T12:16:54Z</time>
      </trkpt>
      <trkpt lat="44.5774" lon="-0.20798">
        <ele>47.25</ele>
        <time>2021-05-05T12:17:02Z</time>
      </trkpt>
      <trkpt lat="44.57732" lon="-0.20805">
        <ele>46.5625</ele>
        <time>2021-05-05T12:17:09Z</time>
      </trkpt>
      <trkpt lat="44.57723" lon="-0.2081">
        <ele>45.875</ele>
        <time>2021-05-05T12:17:17Z</time>
      </trkpt>
      <trkpt lat="44.57715" lon="-0.20817">
        <ele>45.28515625</ele>
        <time>2021-05-05T12:17:26Z</time>
      </trkpt>
      <trkpt lat="44.57707" lon="-0.20828">
        <ele>44.7890625</ele>
        <time>2021-05-05T12:17:35Z</time>
      </trkpt>
      <trkpt lat="44.57699" lon="-0.20836">
        <ele>44.2890625</ele>
        <time>2021-05-05T12:17:43Z</time>
      </trkpt>
      <trkpt lat="44.5769" lon="-0.20844">
        <ele>43.80859375</ele>
        <time>2021-05-05T12:17:51Z</time>
      </trkpt>
      <trkpt lat="44.57683" lon="-0.20852">
        <ele>43.44921875</ele>
        <time>2021-05-05T12:17:58Z</time>
      </trkpt>
      <trkpt lat="44.57675" lon="-0.2086">
        <ele>43.06640625</ele>
        <time>2021-05-05T12:18:06Z</time>
      </trkpt>
      <trkpt lat="44.57666" lon="-0.20868">
        <ele>42.625</ele>
        <time>2021-05-05T12:18:14Z</time>
      </trkpt>
      <trkpt lat="44.57658" lon="-0.20876">
        <ele>42.19140625</ele>
        <time>2021-05-05T12:18:22Z</time>
      </trkpt>
      <trkpt lat="44.57651" lon="-0.20887">
        <ele>41.6796875</ele>
        <time>2021-05-05T12:18:30Z</time>
      </trkpt>
      <trkpt lat="44.57648" lon="-0.20901">
        <ele>41.40234375</ele>
        <time>2021-05-05T12:18:38Z</time>
      </trkpt>
      <trkpt lat="44.57647" lon="-0.20916">
        <ele>41.23046875</ele>
        <time>2021-05-05T12:18:46Z</time>
      </trkpt>
      <trkpt lat="44.57647" lon="-0.2093">
        <ele>41.1015625</ele>
        <time>2021-05-05T12:18:54Z</time>
      </trkpt>
      <trkpt lat="44.57646" lon="-0.20943">
        <ele>40.62109375</ele>
        <time>2021-05-05T12:19:02Z</time>
      </trkpt>
      <trkpt lat="44.57644" lon="-0.20957">
        <ele>40.05078125</ele>
        <time>2021-05-05T12:19:10Z</time>
      </trkpt>
      <trkpt lat="44.57639" lon="-0.20969">
        <ele>39.44140625</ele>
        <time>2021-05-05T12:19:18Z</time>
      </trkpt>
      <trkpt lat="44.57632" lon="-0.20978">
        <ele>38.8515625</ele>
        <time>2021-05-05T12:19:26Z</time>
      </trkpt>
      <trkpt lat="44.57624" lon="-0.20985">
        <ele>38.3046875</ele>
        <time>2021-05-05T12:19:34Z</time>
      </trkpt>
      <trkpt lat="44.57615" lon="-0.20991">
        <ele>37.82421875</ele>
        <time>2021-05-05T12:19:42Z</time>
      </trkpt>
      <trkpt lat="44.57606" lon="-0.20994">
        <ele>37.296875</ele>
        <time>2021-05-05T12:19:49Z</time>
      </trkpt>
      <trkpt lat="44.57596" lon="-0.20995">
        <ele>36.77734375</ele>
        <time>2021-05-05T12:19:57Z</time>
      </trkpt>
      <trkpt lat="44.57586" lon="-0.20996">
        <ele>36.22265625</ele>
        <time>2021-05-05T12:20:05Z</time>
      </trkpt>
      <trkpt lat="44.57576" lon="-0.20997">
        <ele>35.7421875</ele>
        <time>2021-05-05T12:20:12Z</time>
      </trkpt>
      <trkpt lat="44.57567" lon="-0.20999">
        <ele>35.2421875</ele>
        <time>2021-05-05T12:20:20Z</time>
      </trkpt>
      <trkpt lat="44.57558" lon="-0.21004">
        <ele>34.71875</ele>
        <time>2021-05-05T12:20:28Z</time>
      </trkpt>
      <trkpt lat="44.57553" lon="-0.21016">
        <ele>34.3671875</ele>
        <time>2021-05-05T12:20:36Z</time>
      </trkpt>
      <trkpt lat="44.57548" lon="-0.21029">
        <ele>33.9765625</ele>
        <time>2021-05-05T12:20:44Z</time>
      </trkpt>
      <trkpt lat="44.57544" lon="-0.21042">
        <ele>33.68359375</ele>
        <time>2021-05-05T12:20:52Z</time>
      </trkpt>
      <trkpt lat="44.5754" lon="-0.21054">
        <ele>33.609375</ele>
        <time>2021-05-05T12:20:59Z</time>
      </trkpt>
      <trkpt lat="44.57536" lon="-0.21067">
        <ele>33.54296875</ele>
        <time>2021-05-05T12:21:07Z</time>
      </trkpt>
      <trkpt lat="44.57531" lon="-0.2108">
        <ele>33.4609375</ele>
        <time>2021-05-05T12:21:15Z</time>
      </trkpt>
      <trkpt lat="44.57527" lon="-0.21093">
        <ele>33.359375</ele>
        <time>2021-05-05T12:21:23Z</time>
      </trkpt>
      <trkpt lat="44.57521" lon="-0.21105">
        <ele>33.08984375</ele>
        <time>2021-05-05T12:21:31Z</time>
      </trkpt>
      <trkpt lat="44.57515" lon="-0.21114">
        <ele>32.63671875</ele>
        <time>2021-05-05T12:21:38Z</time>
      </trkpt>
      <trkpt lat="44.57509" lon="-0.21125">
        <ele>32.21484375</ele>
        <time>2021-05-05T12:21:46Z</time>
      </trkpt>
      <trkpt lat="44.57504" lon="-0.21137">
        <ele>31.82421875</ele>
        <time>2021-05-05T12:21:54Z</time>
      </trkpt>
      <trkpt lat="44.57498" lon="-0.21149">
        <ele>31.2734375</ele>
        <time>2021-05-05T12:22:02Z</time>
      </trkpt>
      <trkpt lat="44.57493" lon="-0.21159">
        <ele>30.7109375</ele>
        <time>2021-05-05T12:22:09Z</time>
      </trkpt>
      <trkpt lat="44.57488" lon="-0.21171">
        <ele>30.12890625</ele>
        <time>2021-05-05T12:22:17Z</time>
      </trkpt>
      <trkpt lat="44.57485" lon="-0.21184">
        <ele>29.72265625</ele>
        <time>2021-05-05T12:22:25Z</time>
      </trkpt>
      <trkpt lat="44.5748" lon="-0.21196">
        <ele>29.23828125</ele>
        <time>2021-05-05T12:22:33Z</time>
      </trkpt>
      <trkpt lat="44.57475" lon="-0.21208">
        <ele>28.7578125</ele>
        <time>2021-05-05T12:22:41Z</time>
      </trkpt>
      <trkpt lat="44.5747" lon="-0.2122">
        <ele>28.390625</ele>
        <time>2021-05-05T12:22:48Z</time>
      </trkpt>
      <trkpt lat="44.57465" lon="-0.2123">
        <ele>28.05078125</ele>
        <time>2021-05-05T12:22:55Z</time>
      </trkpt>
      <trkpt lat="44.57459" lon="-0.2124">
        <ele>27.55859375</ele>
        <time>2021-05-05T12:23:02Z</time>
      </trkpt>
      <trkpt lat="44.57452" lon="-0.21249">
        <ele>27.0859375</ele>
        <time>2021-05-05T12:23:09Z</time>
      </trkpt>
      <trkpt lat="44.57444" lon="-0.21257">
        <ele>26.65625</ele>
        <time>2021-05-05T12:23:16Z</time>
      </trkpt>
      <trkpt lat="44.57437" lon="-0.21265">
        <ele>26.25390625</ele>
        <time>2021-05-05T12:23:23Z</time>
      </trkpt>
      <trkpt lat="44.5743" lon="-0.21274">
        <ele>25.87109375</ele>
        <time>2021-05-05T12:23:30Z</time>
      </trkpt>
      <trkpt lat="44.57421" lon="-0.21282">
        <ele>25.40234375</ele>
        <time>2021-05-05T12:23:38Z</time>
      </trkpt>
      <trkpt lat="44.57414" lon="-0.2129">
        <ele>25.0234375</ele>
        <time>2021-05-05T12:23:45Z</time>
      </trkpt>
      <trkpt lat="44.57406" lon="-0.21298">
        <ele>24.58984375</ele>
        <time>2021-05-05T12:23:52Z</time>
      </trkpt>
      <trkpt lat="44.57397" lon="-0.21305">
        <ele>24.10546875</ele>
        <time>2021-05-05T12:24:00Z</time>
      </trkpt>
      <trkpt lat="44.57389" lon="-0.21313">
        <ele>23.890625</ele>
        <time>2021-05-05T12:24:07Z</time>
      </trkpt>
      <trkpt lat="44.57381" lon="-0.21321">
        <ele>23.73828125</ele>
        <time>2021-05-05T12:24:15Z</time>
      </trkpt>
      <trkpt lat="44.57372" lon="-0.21327">
        <ele>23.6484375</ele>
        <time>2021-05-05T12:24:22Z</time>
      </trkpt>
      <trkpt lat="44.57364" lon="-0.21334">
        <ele>23.546875</ele>
        <time>2021-05-05T12:24:29Z</time>
      </trkpt>
      <trkpt lat="44.57356" lon="-0.2134">
        <ele>23.3984375</ele>
        <time>2021-05-05T12:24:36Z</time>
      </trkpt>
      <trkpt lat="44.57348" lon="-0.21349">
        <ele>23.234375</ele>
        <time>2021-05-05T12:24:43Z</time>
      </trkpt>
      <trkpt lat="44.57341" lon="-0.21357">
        <ele>23.04296875</ele>
        <time>2021-05-05T12:24:50Z</time>
      </trkpt>
      <trkpt lat="44.57333" lon="-0.21366">
        <ele>23</ele>
        <time>2021-05-05T12:24:58Z</time>
      </trkpt>
      <trkpt lat="44.57325" lon="-0.21375">
        <ele>23</ele>
        <time>2021-05-05T12:25:06Z</time>
      </trkpt>
      <trkpt lat="44.57318" lon="-0.21383">
        <ele>23.07421875</ele>
        <time>2021-05-05T12:25:13Z</time>
      </trkpt>
      <trkpt lat="44.57312" lon="-0.21391">
        <ele>23.1328125</ele>
        <time>2021-05-05T12:25:20Z</time>
      </trkpt>
      <trkpt lat="44.57305" lon="-0.21399">
        <ele>23.15234375</ele>
        <time>2021-05-05T12:25:28Z</time>
      </trkpt>
      <trkpt lat="44.57297" lon="-0.21407">
        <ele>23.12890625</ele>
        <time>2021-05-05T12:25:35Z</time>
      </trkpt>
      <trkpt lat="44.5729" lon="-0.21415">
        <ele>23.06640625</ele>
        <time>2021-05-05T12:25:42Z</time>
      </trkpt>
      <trkpt lat="44.57282" lon="-0.21424">
        <ele>22.953125</ele>
        <time>2021-05-05T12:25:50Z</time>
      </trkpt>
      <trkpt lat="44.57273" lon="-0.21431">
        <ele>22.796875</ele>
        <time>2021-05-05T12:25:58Z</time>
      </trkpt>
      <trkpt lat="44.57266" lon="-0.21439">
        <ele>22.6640625</ele>
        <time>2021-05-05T12:26:05Z</time>
      </trkpt>
      <trkpt lat="44.57258" lon="-0.21448">
        <ele>22.5234375</ele>
        <time>2021-05-05T12:26:13Z</time>
      </trkpt>
      <trkpt lat="44.57249" lon="-0.21448">
        <ele>22.37109375</ele>
        <time>2021-05-05T12:26:21Z</time>
      </trkpt>
      <trkpt lat="44.57243" lon="-0.21441">
        <ele>22.2578125</ele>
        <time>2021-05-05T12:26:32Z</time>
      </trkpt>
      <trkpt lat="44.57237" lon="-0.21448">
        <ele>22.15234375</ele>
        <time>2021-05-05T12:26:51Z</time>
      </trkpt>
      <trkpt lat="44.57235" lon="-0.2146">
        <ele>22.11328125</ele>
        <time>2021-05-05T12:26:58Z</time>
      </trkpt>
      <trkpt lat="44.57232" lon="-0.21472">
        <ele>22.05859375</ele>
        <time>2021-05-05T12:27:06Z</time>
      </trkpt>
      <trkpt lat="44.57222" lon="-0.21476">
        <ele>21.7734375</ele>
        <time>2021-05-05T12:27:15Z</time>
      </trkpt>
      <trkpt lat="44.57213" lon="-0.2147">
        <ele>21.44140625</ele>
        <time>2021-05-05T12:27:23Z</time>
      </trkpt>
      <trkpt lat="44.57204" lon="-0.21464">
        <ele>21.1171875</ele>
        <time>2021-05-05T12:27:31Z</time>
      </trkpt>
      <trkpt lat="44.57195" lon="-0.21459">
        <ele>20.80078125</ele>
        <time>2021-05-05T12:27:38Z</time>
      </trkpt>
      <trkpt lat="44.57187" lon="-0.21453">
        <ele>20.49609375</ele>
        <time>2021-05-05T12:27:46Z</time>
      </trkpt>
      <trkpt lat="44.57177" lon="-0.21447">
        <ele>20.15234375</ele>
        <time>2021-05-05T12:27:54Z</time>
      </trkpt>
      <trkpt lat="44.57169" lon="-0.21441">
        <ele>19.921875</ele>
        <time>2021-05-05T12:28:01Z</time>
      </trkpt>
      <trkpt lat="44.5716" lon="-0.21435">
        <ele>19.76171875</ele>
        <time>2021-05-05T12:28:09Z</time>
      </trkpt>
      <trkpt lat="44.57151" lon="-0.2143">
        <ele>19.59765625</ele>
        <time>2021-05-05T12:28:19Z</time>
      </trkpt>
      <trkpt lat="44.5714" lon="-0.21418">
        <ele>19.41015625</ele>
        <time>2021-05-05T12:28:27Z</time>
      </trkpt>
      <trkpt lat="44.57131" lon="-0.21414">
        <ele>19.23828125</ele>
        <time>2021-05-05T12:28:34Z</time>
      </trkpt>
      <trkpt lat="44.57122" lon="-0.21408">
        <ele>19.07421875</ele>
        <time>2021-05-05T12:28:42Z</time>
      </trkpt>
      <trkpt lat="44.57113" lon="-0.214">
        <ele>18.9140625</ele>
        <time>2021-05-05T12:28:50Z</time>
      </trkpt>
      <trkpt lat="44.57104" lon="-0.21395">
        <ele>18.7578125</ele>
        <time>2021-05-05T12:28:58Z</time>
      </trkpt>
      <trkpt lat="44.57095" lon="-0.21391">
        <ele>18.59765625</ele>
        <time>2021-05-05T12:29:06Z</time>
      </trkpt>
      <trkpt lat="44.57087" lon="-0.21386">
        <ele>18.4453125</ele>
        <time>2021-05-05T12:29:14Z</time>
      </trkpt>
      <trkpt lat="44.57078" lon="-0.21381">
        <ele>18.28515625</ele>
        <time>2021-05-05T12:29:21Z</time>
      </trkpt>
      <trkpt lat="44.57071" lon="-0.21374">
        <ele>18.1640625</ele>
        <time>2021-05-05T12:29:29Z</time>
      </trkpt>
      <trkpt lat="44.57066" lon="-0.21363">
        <ele>18.0859375</ele>
        <time>2021-05-05T12:29:37Z</time>
      </trkpt>
      <trkpt lat="44.57058" lon="-0.21355">
        <ele>17.890625</ele>
        <time>2021-05-05T12:29:46Z</time>
      </trkpt>
      <trkpt lat="44.57052" lon="-0.21347">
        <ele>17.7265625</ele>
        <time>2021-05-05T12:30:02Z</time>
      </trkpt>
      <trkpt lat="44.57043" lon="-0.21346">
        <ele>17.48828125</ele>
        <time>2021-05-05T12:30:12Z</time>
      </trkpt>
      <trkpt lat="44.57038" lon="-0.21335">
        <ele>17.44921875</ele>
        <time>2021-05-05T12:30:20Z</time>
      </trkpt>
      <trkpt lat="44.57038" lon="-0.21322">
        <ele>17.5546875</ele>
        <time>2021-05-05T12:31:00Z</time>
      </trkpt>
      <trkpt lat="44.57035" lon="-0.21308">
        <ele>17.41015625</ele>
        <time>2021-05-05T12:31:08Z</time>
      </trkpt>
      <trkpt lat="44.57032" lon="-0.21295">
        <ele>17.21875</ele>
        <time>2021-05-05T12:31:15Z</time>
      </trkpt>
      <trkpt lat="44.5703" lon="-0.21283">
        <ele>17.0390625</ele>
        <time>2021-05-05T12:31:22Z</time>
      </trkpt>
      <trkpt lat="44.57027" lon="-0.21271">
        <ele>16.80859375</ele>
        <time>2021-05-05T12:31:29Z</time>
      </trkpt>
      <trkpt lat="44.57025" lon="-0.21257">
        <ele>16.67578125</ele>
        <time>2021-05-05T12:31:37Z</time>
      </trkpt>
      <trkpt lat="44.57023" lon="-0.21243">
        <ele>16.5859375</ele>
        <time>2021-05-05T12:31:45Z</time>
      </trkpt>
      <trkpt lat="44.57019" lon="-0.2123">
        <ele>16.44921875</ele>
        <time>2021-05-05T12:31:53Z</time>
      </trkpt>
      <trkpt lat="44.57015" lon="-0.21217">
        <ele>16.30859375</ele>
        <time>2021-05-05T12:32:01Z</time>
      </trkpt>
      <trkpt lat="44.57013" lon="-0.21203">
        <ele>16.21484375</ele>
        <time>2021-05-05T12:32:09Z</time>
      </trkpt>
      <trkpt lat="44.5701" lon="-0.21191">
        <ele>16.13671875</ele>
        <time>2021-05-05T12:32:17Z</time>
      </trkpt>
      <trkpt lat="44.57007" lon="-0.21177">
        <ele>16.01171875</ele>
        <time>2021-05-05T12:32:26Z</time>
      </trkpt>
      <trkpt lat="44.57004" lon="-0.21163">
        <ele>15.90234375</ele>
        <time>2021-05-05T12:32:34Z</time>
      </trkpt>
      <trkpt lat="44.56997" lon="-0.21155">
        <ele>15.65625</ele>
        <time>2021-05-05T12:32:43Z</time>
      </trkpt>
      <trkpt lat="44.56986" lon="-0.21153">
        <ele>15.25</ele>
        <time>2021-05-05T12:32:53Z</time>
      </trkpt>
      <trkpt lat="44.56974" lon="-0.21153">
        <ele>14.828125</ele>
        <time>2021-05-05T12:33:02Z</time>
      </trkpt>
      <trkpt lat="44.56964" lon="-0.21151">
        <ele>14.453125</ele>
        <time>2021-05-05T12:33:18Z</time>
      </trkpt>
      <trkpt lat="44.56954" lon="-0.21149">
        <ele>14.109375</ele>
        <time>2021-05-05T12:33:26Z</time>
      </trkpt>
      <trkpt lat="44.56944" lon="-0.21146">
        <ele>13.74609375</ele>
        <time>2021-05-05T12:33:34Z</time>
      </trkpt>
      <trkpt lat="44.56934" lon="-0.21144">
        <ele>13.37890625</ele>
        <time>2021-05-05T12:33:42Z</time>
      </trkpt>
      <trkpt lat="44.56924" lon="-0.2114">
        <ele>13.0390625</ele>
        <time>2021-05-05T12:33:49Z</time>
      </trkpt>
      <trkpt lat="44.56914" lon="-0.21138">
        <ele>12.6796875</ele>
        <time>2021-05-05T12:33:58Z</time>
      </trkpt>
      <trkpt lat="44.56902" lon="-0.21136">
        <ele>12.2265625</ele>
        <time>2021-05-05T12:34:07Z</time>
      </trkpt>
      <trkpt lat="44.56893" lon="-0.21133">
        <ele>11.8359375</ele>
        <time>2021-05-05T12:34:14Z</time>
      </trkpt>
      <trkpt lat="44.56884" lon="-0.21133">
        <ele>11.37890625</ele>
        <time>2021-05-05T12:34:27Z</time>
      </trkpt>
      <trkpt lat="44.56874" lon="-0.21134">
        <ele>10.86328125</ele>
        <time>2021-05-05T12:34:35Z</time>
      </trkpt>
      <trkpt lat="44.56864" lon="-0.21134">
        <ele>10.3125</ele>
        <time>2021-05-05T12:34:43Z</time>
      </trkpt>
      <trkpt lat="44.56854" lon="-0.21134">
        <ele>9.765625</ele>
        <time>2021-05-05T12:34:51Z</time>
      </trkpt>
      <trkpt lat="44.56844" lon="-0.21135">
        <ele>9.2109375</ele>
        <time>2021-05-05T12:35:00Z</time>
      </trkpt>
      <trkpt lat="44.56833" lon="-0.21136">
        <ele>8.86328125</ele>
        <time>2021-05-05T12:35:08Z</time>
      </trkpt>
      <trkpt lat="44.56823" lon="-0.21136">
        <ele>8.69140625</ele>
        <time>2021-05-05T12:35:16Z</time>
      </trkpt>
      <trkpt lat="44.56811" lon="-0.21134">
        <ele>8.484375</ele>
        <time>2021-05-05T12:35:24Z</time>
      </trkpt>
      <trkpt lat="44.56801" lon="-0.21136">
        <ele>8.296875</ele>
        <time>2021-05-05T12:35:31Z</time>
      </trkpt>
      <trkpt lat="44.5679" lon="-0.21137">
        <ele>8.10546875</ele>
        <time>2021-05-05T12:35:38Z</time>
      </trkpt>
      <trkpt lat="44.56782" lon="-0.21139">
        <ele>8</ele>
        <time>2021-05-05T12:35:45Z</time>
      </trkpt>
      <trkpt lat="44.56772" lon="-0.21142">
        <ele>8</ele>
        <time>2021-05-05T12:35:52Z</time>
      </trkpt>
      <trkpt lat="44.56763" lon="-0.21145">
        <ele>8</ele>
        <time>2021-05-05T12:35:59Z</time>
      </trkpt>
      <trkpt lat="44.56754" lon="-0.21148">
        <ele>8</ele>
        <time>2021-05-05T12:36:06Z</time>
      </trkpt>
      <trkpt lat="44.56743" lon="-0.21151">
        <ele>8</ele>
        <time>2021-05-05T12:36:14Z</time>
      </trkpt>
      <trkpt lat="44.56733" lon="-0.21154">
        <ele>8</ele>
        <time>2021-05-05T12:36:22Z</time>
      </trkpt>
      <trkpt lat="44.56724" lon="-0.2116">
        <ele>8</ele>
        <time>2021-05-05T12:36:41Z</time>
      </trkpt>
      <trkpt lat="44.56715" lon="-0.21166">
        <ele>8</ele>
        <time>2021-05-05T12:36:50Z</time>
      </trkpt>
      <trkpt lat="44.56707" lon="-0.21178">
        <ele>8</ele>
        <time>2021-05-05T12:37:00Z</time>
      </trkpt>
      <trkpt lat="44.56707" lon="-0.21193">
        <ele>8</ele>
        <time>2021-05-05T12:37:09Z</time>
      </trkpt>
      <trkpt lat="44.56706" lon="-0.21209">
        <ele>8</ele>
        <time>2021-05-05T12:37:20Z</time>
      </trkpt>
      <trkpt lat="44.56707" lon="-0.21224">
        <ele>8</ele>
        <time>2021-05-05T12:37:28Z</time>
      </trkpt>
      <trkpt lat="44.56708" lon="-0.21239">
        <ele>8</ele>
        <time>2021-05-05T12:37:37Z</time>
      </trkpt>
      <trkpt lat="44.56711" lon="-0.21254">
        <ele>8</ele>
        <time>2021-05-05T12:37:46Z</time>
      </trkpt>
      <trkpt lat="44.56711" lon="-0.2127">
        <ele>7.9375</ele>
        <time>2021-05-05T12:37:55Z</time>
      </trkpt>
      <trkpt lat="44.5671" lon="-0.21287">
        <ele>7.734375</ele>
        <time>2021-05-05T12:38:03Z</time>
      </trkpt>
      <trkpt lat="44.56708" lon="-0.21303">
        <ele>7.56640625</ele>
        <time>2021-05-05T12:38:11Z</time>
      </trkpt>
      <trkpt lat="44.56707" lon="-0.21319">
        <ele>7.41015625</ele>
        <time>2021-05-05T12:38:20Z</time>
      </trkpt>
      <trkpt lat="44.56707" lon="-0.21336">
        <ele>7.40234375</ele>
        <time>2021-05-05T12:38:29Z</time>
      </trkpt>
      <trkpt lat="44.56707" lon="-0.21352">
        <ele>7.40234375</ele>
        <time>2021-05-05T12:38:37Z</time>
      </trkpt>
      <trkpt lat="44.56707" lon="-0.21367">
        <ele>7.40234375</ele>
        <time>2021-05-05T12:38:45Z</time>
      </trkpt>
      <trkpt lat="44.56706" lon="-0.21382">
        <ele>7.36328125</ele>
        <time>2021-05-05T12:38:54Z</time>
      </trkpt>
      <trkpt lat="44.56705" lon="-0.21396">
        <ele>7.27734375</ele>
        <time>2021-05-05T12:39:01Z</time>
      </trkpt>
      <trkpt lat="44.56705" lon="-0.21409">
        <ele>7.1796875</ele>
        <time>2021-05-05T12:39:15Z</time>
      </trkpt>
      <trkpt lat="44.56704" lon="-0.21424">
        <ele>7.0625</ele>
        <time>2021-05-05T12:39:23Z</time>
      </trkpt>
      <trkpt lat="44.56703" lon="-0.21437">
        <ele>7</ele>
        <time>2021-05-05T12:39:31Z</time>
      </trkpt>
      <trkpt lat="44.56703" lon="-0.21451">
        <ele>7</ele>
        <time>2021-05-05T12:39:38Z</time>
      </trkpt>
      <trkpt lat="44.56702" lon="-0.21466">
        <ele>7</ele>
        <time>2021-05-05T12:39:46Z</time>
      </trkpt>
      <trkpt lat="44.56701" lon="-0.21479">
        <ele>7</ele>
        <time>2021-05-05T12:39:53Z</time>
      </trkpt>
      <trkpt lat="44.56702" lon="-0.21493">
        <ele>7</ele>
        <time>2021-05-05T12:40:01Z</time>
      </trkpt>
      <trkpt lat="44.56702" lon="-0.21506">
        <ele>7</ele>
        <time>2021-05-05T12:40:08Z</time>
      </trkpt>
      <trkpt lat="44.56701" lon="-0.21521">
        <ele>7</ele>
        <time>2021-05-05T12:40:16Z</time>
      </trkpt>
      <trkpt lat="44.56701" lon="-0.21534">
        <ele>7</ele>
        <time>2021-05-05T12:40:24Z</time>
      </trkpt>
      <trkpt lat="44.56701" lon="-0.21549">
        <ele>7</ele>
        <time>2021-05-05T12:40:32Z</time>
      </trkpt>
      <trkpt lat="44.56702" lon="-0.21562">
        <ele>7</ele>
        <time>2021-05-05T12:40:39Z</time>
      </trkpt>
      <trkpt lat="44.567" lon="-0.21576">
        <ele>7</ele>
        <time>2021-05-05T12:40:46Z</time>
      </trkpt>
      <trkpt lat="44.56701" lon="-0.21589">
        <ele>7</ele>
        <time>2021-05-05T12:40:53Z</time>
      </trkpt>
      <trkpt lat="44.567" lon="-0.21602">
        <ele>6.93359375</ele>
        <time>2021-05-05T12:41:00Z</time>
      </trkpt>
      <trkpt lat="44.56699" lon="-0.21614">
        <ele>6.70703125</ele>
        <time>2021-05-05T12:41:07Z</time>
      </trkpt>
      <trkpt lat="44.56698" lon="-0.21627">
        <ele>6.4765625</ele>
        <time>2021-05-05T12:41:14Z</time>
      </trkpt>
      <trkpt lat="44.56698" lon="-0.2164">
        <ele>6.234375</ele>
        <time>2021-05-05T12:41:21Z</time>
      </trkpt>
      <trkpt lat="44.56698" lon="-0.21655">
        <ele>6.01171875</ele>
        <time>2021-05-05T12:41:29Z</time>
      </trkpt>
      <trkpt lat="44.56696" lon="-0.21668">
        <ele>6.109375</ele>
        <time>2021-05-05T12:41:36Z</time>
      </trkpt>
      <trkpt lat="44.56696" lon="-0.21681">
        <ele>6.1953125</ele>
        <time>2021-05-05T12:41:43Z</time>
      </trkpt>
      <trkpt lat="44.56695" lon="-0.21694">
        <ele>6.27734375</ele>
        <time>2021-05-05T12:41:50Z</time>
      </trkpt>
      <trkpt lat="44.56694" lon="-0.21708">
        <ele>6.3671875</ele>
        <time>2021-05-05T12:41:57Z</time>
      </trkpt>
      <trkpt lat="44.56694" lon="-0.21721">
        <ele>6.3671875</ele>
        <time>2021-05-05T12:42:04Z</time>
      </trkpt>
      <trkpt lat="44.56692" lon="-0.21734">
        <ele>6.34375</ele>
        <time>2021-05-05T12:42:11Z</time>
      </trkpt>
      <trkpt lat="44.56691" lon="-0.21747">
        <ele>6.3203125</ele>
        <time>2021-05-05T12:42:18Z</time>
      </trkpt>
      <trkpt lat="44.5669" lon="-0.2176">
        <ele>6.296875</ele>
        <time>2021-05-05T12:42:25Z</time>
      </trkpt>
      <trkpt lat="44.56688" lon="-0.21775">
        <ele>6.45703125</ele>
        <time>2021-05-05T12:42:33Z</time>
      </trkpt>
      <trkpt lat="44.56688" lon="-0.21788">
        <ele>6.69140625</ele>
        <time>2021-05-05T12:42:40Z</time>
      </trkpt>
      <trkpt lat="44.56686" lon="-0.21801">
        <ele>6.890625</ele>
        <time>2021-05-05T12:42:47Z</time>
      </trkpt>
      <trkpt lat="44.56686" lon="-0.21816">
        <ele>7.140625</ele>
        <time>2021-05-05T12:42:55Z</time>
      </trkpt>
      <trkpt lat="44.56685" lon="-0.2183">
        <ele>7.2421875</ele>
        <time>2021-05-05T12:43:02Z</time>
      </trkpt>
      <trkpt lat="44.56683" lon="-0.21843">
        <ele>7.23828125</ele>
        <time>2021-05-05T12:43:10Z</time>
      </trkpt>
      <trkpt lat="44.56682" lon="-0.21857">
        <ele>7.25390625</ele>
        <time>2021-05-05T12:43:18Z</time>
      </trkpt>
      <trkpt lat="44.56681" lon="-0.21871">
        <ele>7.2578125</ele>
        <time>2021-05-05T12:43:26Z</time>
      </trkpt>
      <trkpt lat="44.56679" lon="-0.21885">
        <ele>7.38671875</ele>
        <time>2021-05-05T12:43:34Z</time>
      </trkpt>
      <trkpt lat="44.56678" lon="-0.21901">
        <ele>7.6015625</ele>
        <time>2021-05-05T12:43:42Z</time>
      </trkpt>
      <trkpt lat="44.56676" lon="-0.21914">
        <ele>7.7890625</ele>
        <time>2021-05-05T12:43:50Z</time>
      </trkpt>
      <trkpt lat="44.56674" lon="-0.21928">
        <ele>7.9609375</ele>
        <time>2021-05-05T12:43:58Z</time>
      </trkpt>
      <trkpt lat="44.56672" lon="-0.21941">
        <ele>8.1640625</ele>
        <time>2021-05-05T12:44:05Z</time>
      </trkpt>
      <trkpt lat="44.56672" lon="-0.21955">
        <ele>8.3984375</ele>
        <time>2021-05-05T12:44:13Z</time>
      </trkpt>
      <trkpt lat="44.56671" lon="-0.21969">
        <ele>8.6484375</ele>
        <time>2021-05-05T12:44:21Z</time>
      </trkpt>
      <trkpt lat="44.56669" lon="-0.21983">
        <ele>8.84375</ele>
        <time>2021-05-05T12:44:28Z</time>
      </trkpt>
      <trkpt lat="44.56666" lon="-0.21997">
        <ele>9.0546875</ele>
        <time>2021-05-05T12:44:37Z</time>
      </trkpt>
      <trkpt lat="44.56663" lon="-0.22012">
        <ele>9.26953125</ele>
        <time>2021-05-05T12:44:45Z</time>
      </trkpt>
      <trkpt lat="44.56662" lon="-0.22026">
        <ele>9.50390625</ele>
        <time>2021-05-05T12:44:53Z</time>
      </trkpt>
      <trkpt lat="44.5666" lon="-0.22041">
        <ele>9.734375</ele>
        <time>2021-05-05T12:45:03Z</time>
      </trkpt>
      <trkpt lat="44.56659" lon="-0.22054">
        <ele>10.046875</ele>
        <time>2021-05-05T12:45:11Z</time>
      </trkpt>
      <trkpt lat="44.56656" lon="-0.22067">
        <ele>10.3046875</ele>
        <time>2021-05-05T12:45:19Z</time>
      </trkpt>
      <trkpt lat="44.56653" lon="-0.22082">
        <ele>10.54296875</ele>
        <time>2021-05-05T12:45:28Z</time>
      </trkpt>
      <trkpt lat="44.56651" lon="-0.22095">
        <ele>10.73828125</ele>
        <time>2021-05-05T12:45:36Z</time>
      </trkpt>
      <trkpt lat="44.56649" lon="-0.2211">
        <ele>10.7578125</ele>
        <time>2021-05-05T12:45:44Z</time>
      </trkpt>
      <trkpt lat="44.56647" lon="-0.22124">
        <ele>10.7890625</ele>
        <time>2021-05-05T12:45:52Z</time>
      </trkpt>
      <trkpt lat="44.56644" lon="-0.22138">
        <ele>10.80078125</ele>
        <time>2021-05-05T12:46:00Z</time>
      </trkpt>
      <trkpt lat="44.56641" lon="-0.22152">
        <ele>10.83203125</ele>
        <time>2021-05-05T12:46:09Z</time>
      </trkpt>
      <trkpt lat="44.5664" lon="-0.22166">
        <ele>11.015625</ele>
        <time>2021-05-05T12:46:18Z</time>
      </trkpt>
      <trkpt lat="44.5664" lon="-0.22182">
        <ele>11.3203125</ele>
        <time>2021-05-05T12:46:39Z</time>
      </trkpt>
      <trkpt lat="44.56633" lon="-0.22196">
        <ele>11.30859375</ele>
        <time>2021-05-05T12:46:49Z</time>
      </trkpt>
      <trkpt lat="44.56623" lon="-0.22206">
        <ele>11.14453125</ele>
        <time>2021-05-05T12:46:58Z</time>
      </trkpt>
      <trkpt lat="44.56616" lon="-0.22218">
        <ele>11.0859375</ele>
        <time>2021-05-05T12:47:07Z</time>
      </trkpt>
      <trkpt lat="44.56609" lon="-0.22229">
        <ele>10.93359375</ele>
        <time>2021-05-05T12:47:16Z</time>
      </trkpt>
      <trkpt lat="44.56601" lon="-0.22239">
        <ele>10.7890625</ele>
        <time>2021-05-05T12:47:24Z</time>
      </trkpt>
      <trkpt lat="44.56593" lon="-0.22247">
        <ele>10.671875</ele>
        <time>2021-05-05T12:47:39Z</time>
      </trkpt>
      <trkpt lat="44.56588" lon="-0.22258">
        <ele>10.73828125</ele>
        <time>2021-05-05T12:47:49Z</time>
      </trkpt>
      <trkpt lat="44.56581" lon="-0.22268">
        <ele>10.87890625</ele>
        <time>2021-05-05T12:47:58Z</time>
      </trkpt>
      <trkpt lat="44.56576" lon="-0.22282">
        <ele>11.39453125</ele>
        <time>2021-05-05T12:48:07Z</time>
      </trkpt>
      <trkpt lat="44.56571" lon="-0.22292">
        <ele>11.74609375</ele>
        <time>2021-05-05T12:48:16Z</time>
      </trkpt>
      <trkpt lat="44.56567" lon="-0.22308">
        <ele>12.4375</ele>
        <time>2021-05-05T12:48:26Z</time>
      </trkpt>
      <trkpt lat="44.56564" lon="-0.22321">
        <ele>13.11328125</ele>
        <time>2021-05-05T12:48:34Z</time>
      </trkpt>
      <trkpt lat="44.5656" lon="-0.22335">
        <ele>13.7265625</ele>
        <time>2021-05-05T12:48:42Z</time>
      </trkpt>
      <trkpt lat="44.56557" lon="-0.22348">
        <ele>14.2734375</ele>
        <time>2021-05-05T12:48:53Z</time>
      </trkpt>
      <trkpt lat="44.56552" lon="-0.22364">
        <ele>15.0078125</ele>
        <time>2021-05-05T12:49:02Z</time>
      </trkpt>
      <trkpt lat="44.56547" lon="-0.2238">
        <ele>15.72265625</ele>
        <time>2021-05-05T12:49:13Z</time>
      </trkpt>
      <trkpt lat="44.5654" lon="-0.22396">
        <ele>16.6328125</ele>
        <time>2021-05-05T12:49:24Z</time>
      </trkpt>
      <trkpt lat="44.56538" lon="-0.22411">
        <ele>17.58984375</ele>
        <time>2021-05-05T12:49:33Z</time>
      </trkpt>
      <trkpt lat="44.56532" lon="-0.22426">
        <ele>18.65234375</ele>
        <time>2021-05-05T12:49:43Z</time>
      </trkpt>
      <trkpt lat="44.56525" lon="-0.22437">
        <ele>19.41015625</ele>
        <time>2021-05-05T12:49:52Z</time>
      </trkpt>
      <trkpt lat="44.56517" lon="-0.22447">
        <ele>20.0859375</ele>
        <time>2021-05-05T12:49:59Z</time>
      </trkpt>
      <trkpt lat="44.56518" lon="-0.2246">
        <ele>20.99609375</ele>
        <time>2021-05-05T12:50:10Z</time>
      </trkpt>
      <trkpt lat="44.56512" lon="-0.22474">
        <ele>22.046875</ele>
        <time>2021-05-05T12:50:19Z</time>
      </trkpt>
      <trkpt lat="44.56507" lon="-0.22486">
        <ele>22.953125</ele>
        <time>2021-05-05T12:50:27Z</time>
      </trkpt>
      <trkpt lat="44.56501" lon="-0.22496">
        <ele>23.37109375</ele>
        <time>2021-05-05T12:50:36Z</time>
      </trkpt>
      <trkpt lat="44.56497" lon="-0.22508">
        <ele>23.8359375</ele>
        <time>2021-05-05T12:50:44Z</time>
      </trkpt>
      <trkpt lat="44.56493" lon="-0.22519">
        <ele>24.32421875</ele>
        <time>2021-05-05T12:50:52Z</time>
      </trkpt>
      <trkpt lat="44.56486" lon="-0.22529">
        <ele>24.83203125</ele>
        <time>2021-05-05T12:51:00Z</time>
      </trkpt>
      <trkpt lat="44.56476" lon="-0.22533">
        <ele>25.140625</ele>
        <time>2021-05-05T12:51:08Z</time>
      </trkpt>
      <trkpt lat="44.5647" lon="-0.22545">
        <ele>25.76171875</ele>
        <time>2021-05-05T12:51:20Z</time>
      </trkpt>
      <trkpt lat="44.56463" lon="-0.22553">
        <ele>26.1484375</ele>
        <time>2021-05-05T12:51:46Z</time>
      </trkpt>
      <trkpt lat="44.56456" lon="-0.22539">
        <ele>25.78515625</ele>
        <time>2021-05-05T12:51:54Z</time>
      </trkpt>
      <trkpt lat="44.56449" lon="-0.22528">
        <ele>25.125</ele>
        <time>2021-05-05T12:52:01Z</time>
      </trkpt>
      <trkpt lat="44.56437" lon="-0.22514">
        <ele>23.33984375</ele>
        <time>2021-05-05T12:52:10Z</time>
      </trkpt>
      <trkpt lat="44.56429" lon="-0.22504">
        <ele>21.85546875</ele>
        <time>2021-05-05T12:52:19Z</time>
      </trkpt>
      <trkpt lat="44.56423" lon="-0.22496">
        <ele>20.78125</ele>
        <time>2021-05-05T12:52:30Z</time>
      </trkpt>
      <trkpt lat="44.56426" lon="-0.22486">
        <ele>20.26953125</ele>
        <time>2021-05-05T12:52:45Z</time>
      </trkpt>
      <trkpt lat="44.56432" lon="-0.22478">
        <ele>20.05859375</ele>
        <time>2021-05-05T12:52:54Z</time>
      </trkpt>
      <trkpt lat="44.56419" lon="-0.22472">
        <ele>17.94921875</ele>
        <time>2021-05-05T12:53:02Z</time>
      </trkpt>
      <trkpt lat="44.56408" lon="-0.22469">
        <ele>16.43359375</ele>
        <time>2021-05-05T12:53:12Z</time>
      </trkpt>
      <trkpt lat="44.56399" lon="-0.22485">
        <ele>17.12109375</ele>
        <time>2021-05-05T12:53:22Z</time>
      </trkpt>
      <trkpt lat="44.56389" lon="-0.22497">
        <ele>16.9453125</ele>
        <time>2021-05-05T12:53:36Z</time>
      </trkpt>
      <trkpt lat="44.56379" lon="-0.22496">
        <ele>15.17578125</ele>
        <time>2021-05-05T12:53:46Z</time>
      </trkpt>
      <trkpt lat="44.56375" lon="-0.22486">
        <ele>13.65234375</ele>
        <time>2021-05-05T12:53:58Z</time>
      </trkpt>
      <trkpt lat="44.56382" lon="-0.22473">
        <ele>13.5078125</ele>
        <time>2021-05-05T12:54:06Z</time>
      </trkpt>
      <trkpt lat="44.56381" lon="-0.22462">
        <ele>12.3984375</ele>
        <time>2021-05-05T12:54:55Z</time>
      </trkpt>
      <trkpt lat="44.56365" lon="-0.22454">
        <ele>9.7734375</ele>
        <time>2021-05-05T12:55:15Z</time>
      </trkpt>
      <trkpt lat="44.56353" lon="-0.22453">
        <ele>8.33984375</ele>
        <time>2021-05-05T12:55:52Z</time>
      </trkpt>
    </trkseg>
  </trk>
</gpx>